<?xml version="1.0" encoding="UTF-8" standalone="no" ?>
<gpx xmlns="http://www.topografix.com/GPX/1/1" xmlns:xsi="http://www.w3.org/2001/XMLSchema-instance" xsi:schemaLocation="http://www.topografix.com/GPX/1/1 http://www.topografix.com/GPX/1/1/gpx.xsd" version="1.1" creator="VisuGPX - https://www.visugpx.com">
  <metadata>
    <name>Saint-Croix en Jarez le 18 Février 2010</name>
    <desc><![CDATA[Saint-Croix en Jarez le 18 Février 2010 avec une belle journée de fin d'hiver]]></desc>
  </metadata>
  <trk>
    <name><![CDATA[2010-02-18-01-SAINTE CROIX]]></name>
    <trkseg>
      <trkpt lat="45.47854" lon="4.64627">
        <ele>428</ele>
        <time>2010-02-18T07:47:37Z</time>
      </trkpt>
      <trkpt lat="45.4785" lon="4.64622">
        <ele>429</ele>
        <time>2010-02-18T07:47:38Z</time>
      </trkpt>
      <trkpt lat="45.47846" lon="4.64617">
        <ele>429</ele>
        <time>2010-02-18T07:47:39Z</time>
      </trkpt>
      <trkpt lat="45.47846" lon="4.64617">
        <ele>429</ele>
        <time>2010-02-18T07:47:39Z</time>
      </trkpt>
      <trkpt lat="45.479" lon="4.64713">
        <ele>425</ele>
        <time>2010-02-18T08:00:52Z</time>
      </trkpt>
      <trkpt lat="45.479" lon="4.64713">
        <ele>425</ele>
        <time>2010-02-18T08:00:53Z</time>
      </trkpt>
      <trkpt lat="45.47912" lon="4.64719">
        <ele>425</ele>
        <time>2010-02-18T08:01:05Z</time>
      </trkpt>
      <trkpt lat="45.4792" lon="4.64725">
        <ele>424</ele>
        <time>2010-02-18T08:01:13Z</time>
      </trkpt>
      <trkpt lat="45.47925" lon="4.64735">
        <ele>425</ele>
        <time>2010-02-18T08:01:21Z</time>
      </trkpt>
      <trkpt lat="45.4793" lon="4.64744">
        <ele>425</ele>
        <time>2010-02-18T08:01:26Z</time>
      </trkpt>
      <trkpt lat="45.4793" lon="4.64757">
        <ele>428</ele>
        <time>2010-02-18T08:01:40Z</time>
      </trkpt>
      <trkpt lat="45.47928" lon="4.64768">
        <ele>429</ele>
        <time>2010-02-18T08:01:50Z</time>
      </trkpt>
      <trkpt lat="45.47927" lon="4.6478">
        <ele>430</ele>
        <time>2010-02-18T08:01:59Z</time>
      </trkpt>
      <trkpt lat="45.47929" lon="4.64781">
        <ele>431</ele>
        <time>2010-02-18T08:02:00Z</time>
      </trkpt>
      <trkpt lat="45.47926" lon="4.64802">
        <ele>433</ele>
        <time>2010-02-18T08:02:14Z</time>
      </trkpt>
      <trkpt lat="45.47929" lon="4.64812">
        <ele>434</ele>
        <time>2010-02-18T08:02:23Z</time>
      </trkpt>
      <trkpt lat="45.47931" lon="4.64824">
        <ele>436</ele>
        <time>2010-02-18T08:02:34Z</time>
      </trkpt>
      <trkpt lat="45.47935" lon="4.64835">
        <ele>440</ele>
        <time>2010-02-18T08:02:45Z</time>
      </trkpt>
      <trkpt lat="45.47936" lon="4.64846">
        <ele>440</ele>
        <time>2010-02-18T08:02:56Z</time>
      </trkpt>
      <trkpt lat="45.47939" lon="4.64858">
        <ele>440</ele>
        <time>2010-02-18T08:03:04Z</time>
      </trkpt>
      <trkpt lat="45.47939" lon="4.64859">
        <ele>440</ele>
        <time>2010-02-18T08:03:05Z</time>
      </trkpt>
      <trkpt lat="45.4794" lon="4.64881">
        <ele>441</ele>
        <time>2010-02-18T08:03:24Z</time>
      </trkpt>
      <trkpt lat="45.47937" lon="4.64893">
        <ele>442</ele>
        <time>2010-02-18T08:03:35Z</time>
      </trkpt>
      <trkpt lat="45.47937" lon="4.64905">
        <ele>444</ele>
        <time>2010-02-18T08:03:47Z</time>
      </trkpt>
      <trkpt lat="45.47936" lon="4.64918">
        <ele>448</ele>
        <time>2010-02-18T08:04:00Z</time>
      </trkpt>
      <trkpt lat="45.47939" lon="4.64929">
        <ele>447</ele>
        <time>2010-02-18T08:04:11Z</time>
      </trkpt>
      <trkpt lat="45.47939" lon="4.6493">
        <ele>447</ele>
        <time>2010-02-18T08:04:12Z</time>
      </trkpt>
      <trkpt lat="45.47941" lon="4.64953">
        <ele>447</ele>
        <time>2010-02-18T08:04:30Z</time>
      </trkpt>
      <trkpt lat="45.47942" lon="4.64964">
        <ele>448</ele>
        <time>2010-02-18T08:04:37Z</time>
      </trkpt>
      <trkpt lat="45.47942" lon="4.64977">
        <ele>449</ele>
        <time>2010-02-18T08:04:46Z</time>
      </trkpt>
      <trkpt lat="45.47944" lon="4.64989">
        <ele>450</ele>
        <time>2010-02-18T08:04:56Z</time>
      </trkpt>
      <trkpt lat="45.47949" lon="4.65">
        <ele>449</ele>
        <time>2010-02-18T08:05:03Z</time>
      </trkpt>
      <trkpt lat="45.47953" lon="4.65011">
        <ele>455</ele>
        <time>2010-02-18T08:05:11Z</time>
      </trkpt>
      <trkpt lat="45.47955" lon="4.65023">
        <ele>455</ele>
        <time>2010-02-18T08:05:22Z</time>
      </trkpt>
      <trkpt lat="45.47955" lon="4.65024">
        <ele>455</ele>
        <time>2010-02-18T08:05:23Z</time>
      </trkpt>
      <trkpt lat="45.47959" lon="4.65047">
        <ele>456</ele>
        <time>2010-02-18T08:05:41Z</time>
      </trkpt>
      <trkpt lat="45.47962" lon="4.65058">
        <ele>456</ele>
        <time>2010-02-18T08:05:51Z</time>
      </trkpt>
      <trkpt lat="45.47965" lon="4.65068">
        <ele>456</ele>
        <time>2010-02-18T08:06:00Z</time>
      </trkpt>
      <trkpt lat="45.4797" lon="4.65079">
        <ele>456</ele>
        <time>2010-02-18T08:06:08Z</time>
      </trkpt>
      <trkpt lat="45.47975" lon="4.65086">
        <ele>462</ele>
        <time>2010-02-18T08:06:14Z</time>
      </trkpt>
      <trkpt lat="45.47979" lon="4.65096">
        <ele>462</ele>
        <time>2010-02-18T08:06:22Z</time>
      </trkpt>
      <trkpt lat="45.47982" lon="4.65108">
        <ele>463</ele>
        <time>2010-02-18T08:06:33Z</time>
      </trkpt>
      <trkpt lat="45.47982" lon="4.65109">
        <ele>463</ele>
        <time>2010-02-18T08:06:34Z</time>
      </trkpt>
      <trkpt lat="45.47986" lon="4.65132">
        <ele>465</ele>
        <time>2010-02-18T08:06:50Z</time>
      </trkpt>
      <trkpt lat="45.47987" lon="4.65143">
        <ele>465</ele>
        <time>2010-02-18T08:06:57Z</time>
      </trkpt>
      <trkpt lat="45.47993" lon="4.65152">
        <ele>465</ele>
        <time>2010-02-18T08:07:02Z</time>
      </trkpt>
      <trkpt lat="45.47994" lon="4.65164">
        <ele>465</ele>
        <time>2010-02-18T08:07:10Z</time>
      </trkpt>
      <trkpt lat="45.47995" lon="4.65176">
        <ele>468</ele>
        <time>2010-02-18T08:07:18Z</time>
      </trkpt>
      <trkpt lat="45.47995" lon="4.65188">
        <ele>471</ele>
        <time>2010-02-18T08:07:26Z</time>
      </trkpt>
      <trkpt lat="45.47996" lon="4.652">
        <ele>473</ele>
        <time>2010-02-18T08:07:33Z</time>
      </trkpt>
      <trkpt lat="45.47998" lon="4.65211">
        <ele>474</ele>
        <time>2010-02-18T08:07:40Z</time>
      </trkpt>
      <trkpt lat="45.47999" lon="4.65212">
        <ele>474</ele>
        <time>2010-02-18T08:07:41Z</time>
      </trkpt>
      <trkpt lat="45.48005" lon="4.65234">
        <ele>466</ele>
        <time>2010-02-18T08:07:56Z</time>
      </trkpt>
      <trkpt lat="45.4801" lon="4.65244">
        <ele>468</ele>
        <time>2010-02-18T08:08:04Z</time>
      </trkpt>
      <trkpt lat="45.48014" lon="4.65254">
        <ele>471</ele>
        <time>2010-02-18T08:08:11Z</time>
      </trkpt>
      <trkpt lat="45.48017" lon="4.65265">
        <ele>470</ele>
        <time>2010-02-18T08:08:19Z</time>
      </trkpt>
      <trkpt lat="45.48019" lon="4.65277">
        <ele>470</ele>
        <time>2010-02-18T08:08:27Z</time>
      </trkpt>
      <trkpt lat="45.48024" lon="4.65286">
        <ele>470</ele>
        <time>2010-02-18T08:08:33Z</time>
      </trkpt>
      <trkpt lat="45.48029" lon="4.65297">
        <ele>471</ele>
        <time>2010-02-18T08:08:40Z</time>
      </trkpt>
      <trkpt lat="45.48035" lon="4.65306">
        <ele>471</ele>
        <time>2010-02-18T08:08:47Z</time>
      </trkpt>
      <trkpt lat="45.48036" lon="4.65308">
        <ele>471</ele>
        <time>2010-02-18T08:08:48Z</time>
      </trkpt>
      <trkpt lat="45.48045" lon="4.65325">
        <ele>470</ele>
        <time>2010-02-18T08:09:02Z</time>
      </trkpt>
      <trkpt lat="45.48051" lon="4.65333">
        <ele>470</ele>
        <time>2010-02-18T08:09:09Z</time>
      </trkpt>
      <trkpt lat="45.48058" lon="4.6534">
        <ele>475</ele>
        <time>2010-02-18T08:09:16Z</time>
      </trkpt>
      <trkpt lat="45.48064" lon="4.65348">
        <ele>475</ele>
        <time>2010-02-18T08:09:23Z</time>
      </trkpt>
      <trkpt lat="45.4807" lon="4.65355">
        <ele>475</ele>
        <time>2010-02-18T08:09:30Z</time>
      </trkpt>
      <trkpt lat="45.48077" lon="4.65363">
        <ele>476</ele>
        <time>2010-02-18T08:09:37Z</time>
      </trkpt>
      <trkpt lat="45.48084" lon="4.65369">
        <ele>467</ele>
        <time>2010-02-18T08:09:44Z</time>
      </trkpt>
      <trkpt lat="45.4809" lon="4.65376">
        <ele>467</ele>
        <time>2010-02-18T08:09:51Z</time>
      </trkpt>
      <trkpt lat="45.48092" lon="4.65377">
        <ele>467</ele>
        <time>2010-02-18T08:09:52Z</time>
      </trkpt>
      <trkpt lat="45.48102" lon="4.65392">
        <ele>468</ele>
        <time>2010-02-18T08:10:05Z</time>
      </trkpt>
      <trkpt lat="45.48107" lon="4.65401">
        <ele>469</ele>
        <time>2010-02-18T08:10:12Z</time>
      </trkpt>
      <trkpt lat="45.48113" lon="4.6541">
        <ele>468</ele>
        <time>2010-02-18T08:10:19Z</time>
      </trkpt>
      <trkpt lat="45.48118" lon="4.65421">
        <ele>476</ele>
        <time>2010-02-18T08:10:27Z</time>
      </trkpt>
      <trkpt lat="45.48121" lon="4.65432">
        <ele>476</ele>
        <time>2010-02-18T08:10:35Z</time>
      </trkpt>
      <trkpt lat="45.4812" lon="4.65444">
        <ele>476</ele>
        <time>2010-02-18T08:10:44Z</time>
      </trkpt>
      <trkpt lat="45.4812" lon="4.65456">
        <ele>477</ele>
        <time>2010-02-18T08:10:53Z</time>
      </trkpt>
      <trkpt lat="45.4812" lon="4.65457">
        <ele>477</ele>
        <time>2010-02-18T08:10:54Z</time>
      </trkpt>
      <trkpt lat="45.48117" lon="4.65481">
        <ele>480</ele>
        <time>2010-02-18T08:11:11Z</time>
      </trkpt>
      <trkpt lat="45.48121" lon="4.65491">
        <ele>480</ele>
        <time>2010-02-18T08:11:18Z</time>
      </trkpt>
      <trkpt lat="45.48127" lon="4.65497">
        <ele>479</ele>
        <time>2010-02-18T08:11:23Z</time>
      </trkpt>
      <trkpt lat="45.48133" lon="4.65505">
        <ele>488</ele>
        <time>2010-02-18T08:11:30Z</time>
      </trkpt>
      <trkpt lat="45.48139" lon="4.65513">
        <ele>487</ele>
        <time>2010-02-18T08:11:38Z</time>
      </trkpt>
      <trkpt lat="45.48146" lon="4.65522">
        <ele>487</ele>
        <time>2010-02-18T08:11:45Z</time>
      </trkpt>
      <trkpt lat="45.48153" lon="4.65527">
        <ele>488</ele>
        <time>2010-02-18T08:11:51Z</time>
      </trkpt>
      <trkpt lat="45.48159" lon="4.65536">
        <ele>489</ele>
        <time>2010-02-18T08:12:00Z</time>
      </trkpt>
      <trkpt lat="45.4816" lon="4.65537">
        <ele>489</ele>
        <time>2010-02-18T08:12:01Z</time>
      </trkpt>
      <trkpt lat="45.48173" lon="4.65551">
        <ele>483</ele>
        <time>2010-02-18T08:12:15Z</time>
      </trkpt>
      <trkpt lat="45.48179" lon="4.65558">
        <ele>484</ele>
        <time>2010-02-18T08:12:22Z</time>
      </trkpt>
      <trkpt lat="45.48185" lon="4.65567">
        <ele>485</ele>
        <time>2010-02-18T08:12:32Z</time>
      </trkpt>
      <trkpt lat="45.48192" lon="4.65574">
        <ele>485</ele>
        <time>2010-02-18T08:12:41Z</time>
      </trkpt>
      <trkpt lat="45.48199" lon="4.65578">
        <ele>484</ele>
        <time>2010-02-18T08:12:49Z</time>
      </trkpt>
      <trkpt lat="45.48207" lon="4.65582">
        <ele>483</ele>
        <time>2010-02-18T08:12:54Z</time>
      </trkpt>
      <trkpt lat="45.48215" lon="4.65584">
        <ele>493</ele>
        <time>2010-02-18T08:13:01Z</time>
      </trkpt>
      <trkpt lat="45.48216" lon="4.65585">
        <ele>493</ele>
        <time>2010-02-18T08:13:02Z</time>
      </trkpt>
      <trkpt lat="45.48231" lon="4.65588">
        <ele>491</ele>
        <time>2010-02-18T08:13:15Z</time>
      </trkpt>
      <trkpt lat="45.48239" lon="4.65592">
        <ele>490</ele>
        <time>2010-02-18T08:13:23Z</time>
      </trkpt>
      <trkpt lat="45.48248" lon="4.65595">
        <ele>489</ele>
        <time>2010-02-18T08:13:32Z</time>
      </trkpt>
      <trkpt lat="45.48255" lon="4.656">
        <ele>487</ele>
        <time>2010-02-18T08:13:41Z</time>
      </trkpt>
      <trkpt lat="45.48263" lon="4.65604">
        <ele>487</ele>
        <time>2010-02-18T08:13:49Z</time>
      </trkpt>
      <trkpt lat="45.48272" lon="4.65608">
        <ele>488</ele>
        <time>2010-02-18T08:13:56Z</time>
      </trkpt>
      <trkpt lat="45.48279" lon="4.65612">
        <ele>488</ele>
        <time>2010-02-18T08:14:02Z</time>
      </trkpt>
      <trkpt lat="45.4828" lon="4.65613">
        <ele>488</ele>
        <time>2010-02-18T08:14:03Z</time>
      </trkpt>
      <trkpt lat="45.48294" lon="4.65621">
        <ele>488</ele>
        <time>2010-02-18T08:14:14Z</time>
      </trkpt>
      <trkpt lat="45.48301" lon="4.65628">
        <ele>489</ele>
        <time>2010-02-18T08:14:20Z</time>
      </trkpt>
      <trkpt lat="45.48308" lon="4.65632">
        <ele>489</ele>
        <time>2010-02-18T08:14:26Z</time>
      </trkpt>
      <trkpt lat="45.48315" lon="4.65632">
        <ele>489</ele>
        <time>2010-02-18T08:14:30Z</time>
      </trkpt>
      <trkpt lat="45.48322" lon="4.6564">
        <ele>490</ele>
        <time>2010-02-18T08:14:39Z</time>
      </trkpt>
      <trkpt lat="45.48329" lon="4.65648">
        <ele>491</ele>
        <time>2010-02-18T08:14:46Z</time>
      </trkpt>
      <trkpt lat="45.48337" lon="4.65651">
        <ele>489</ele>
        <time>2010-02-18T08:14:54Z</time>
      </trkpt>
      <trkpt lat="45.48345" lon="4.65655">
        <ele>488</ele>
        <time>2010-02-18T08:15:00Z</time>
      </trkpt>
      <trkpt lat="45.48353" lon="4.65661">
        <ele>488</ele>
        <time>2010-02-18T08:15:08Z</time>
      </trkpt>
      <trkpt lat="45.48354" lon="4.65662">
        <ele>488</ele>
        <time>2010-02-18T08:15:09Z</time>
      </trkpt>
      <trkpt lat="45.48368" lon="4.6567">
        <ele>494</ele>
        <time>2010-02-18T08:15:22Z</time>
      </trkpt>
      <trkpt lat="45.48376" lon="4.65675">
        <ele>493</ele>
        <time>2010-02-18T08:15:29Z</time>
      </trkpt>
      <trkpt lat="45.48383" lon="4.6568">
        <ele>493</ele>
        <time>2010-02-18T08:15:36Z</time>
      </trkpt>
      <trkpt lat="45.4839" lon="4.65686">
        <ele>492</ele>
        <time>2010-02-18T08:15:43Z</time>
      </trkpt>
      <trkpt lat="45.48397" lon="4.65694">
        <ele>493</ele>
        <time>2010-02-18T08:15:50Z</time>
      </trkpt>
      <trkpt lat="45.48403" lon="4.65703">
        <ele>493</ele>
        <time>2010-02-18T08:15:57Z</time>
      </trkpt>
      <trkpt lat="45.48408" lon="4.65712">
        <ele>494</ele>
        <time>2010-02-18T08:16:04Z</time>
      </trkpt>
      <trkpt lat="45.48412" lon="4.65722">
        <ele>494</ele>
        <time>2010-02-18T08:16:10Z</time>
      </trkpt>
      <trkpt lat="45.48412" lon="4.65724">
        <ele>494</ele>
        <time>2010-02-18T08:16:11Z</time>
      </trkpt>
      <trkpt lat="45.48414" lon="4.65745">
        <ele>495</ele>
        <time>2010-02-18T08:16:23Z</time>
      </trkpt>
      <trkpt lat="45.48416" lon="4.65755">
        <ele>496</ele>
        <time>2010-02-18T08:16:30Z</time>
      </trkpt>
      <trkpt lat="45.48418" lon="4.65767">
        <ele>489</ele>
        <time>2010-02-18T08:16:37Z</time>
      </trkpt>
      <trkpt lat="45.48417" lon="4.65779">
        <ele>488</ele>
        <time>2010-02-18T08:16:45Z</time>
      </trkpt>
      <trkpt lat="45.48414" lon="4.6579">
        <ele>500</ele>
        <time>2010-02-18T08:16:53Z</time>
      </trkpt>
      <trkpt lat="45.48411" lon="4.658">
        <ele>500</ele>
        <time>2010-02-18T08:16:59Z</time>
      </trkpt>
      <trkpt lat="45.4841" lon="4.65812">
        <ele>499</ele>
        <time>2010-02-18T08:17:05Z</time>
      </trkpt>
      <trkpt lat="45.48412" lon="4.65824">
        <ele>498</ele>
        <time>2010-02-18T08:17:13Z</time>
      </trkpt>
      <trkpt lat="45.48411" lon="4.65827">
        <ele>497</ele>
        <time>2010-02-18T08:17:14Z</time>
      </trkpt>
      <trkpt lat="45.48411" lon="4.65849">
        <ele>501</ele>
        <time>2010-02-18T08:17:27Z</time>
      </trkpt>
      <trkpt lat="45.48409" lon="4.65861">
        <ele>504</ele>
        <time>2010-02-18T08:17:31Z</time>
      </trkpt>
      <trkpt lat="45.48411" lon="4.65873">
        <ele>505</ele>
        <time>2010-02-18T08:17:36Z</time>
      </trkpt>
      <trkpt lat="45.48419" lon="4.6588">
        <ele>491</ele>
        <time>2010-02-18T08:17:44Z</time>
      </trkpt>
      <trkpt lat="45.48424" lon="4.65888">
        <ele>491</ele>
        <time>2010-02-18T08:17:52Z</time>
      </trkpt>
      <trkpt lat="45.48421" lon="4.65898">
        <ele>493</ele>
        <time>2010-02-18T08:17:55Z</time>
      </trkpt>
      <trkpt lat="45.4842" lon="4.65909">
        <ele>495</ele>
        <time>2010-02-18T08:17:59Z</time>
      </trkpt>
      <trkpt lat="45.48428" lon="4.65914">
        <ele>494</ele>
        <time>2010-02-18T08:18:08Z</time>
      </trkpt>
      <trkpt lat="45.48433" lon="4.65922">
        <ele>496</ele>
        <time>2010-02-18T08:18:12Z</time>
      </trkpt>
      <trkpt lat="45.48443" lon="4.65924">
        <ele>494</ele>
        <time>2010-02-18T08:18:13Z</time>
      </trkpt>
      <trkpt lat="45.48442" lon="4.65934">
        <ele>494</ele>
        <time>2010-02-18T08:18:18Z</time>
      </trkpt>
      <trkpt lat="45.48442" lon="4.65937">
        <ele>494</ele>
        <time>2010-02-18T08:18:19Z</time>
      </trkpt>
      <trkpt lat="45.48431" lon="4.6595">
        <ele>495</ele>
        <time>2010-02-18T08:18:23Z</time>
      </trkpt>
      <trkpt lat="45.4843" lon="4.65961">
        <ele>496</ele>
        <time>2010-02-18T08:18:31Z</time>
      </trkpt>
      <trkpt lat="45.48425" lon="4.65971">
        <ele>497</ele>
        <time>2010-02-18T08:18:36Z</time>
      </trkpt>
      <trkpt lat="45.4842" lon="4.6598">
        <ele>498</ele>
        <time>2010-02-18T08:18:42Z</time>
      </trkpt>
      <trkpt lat="45.48415" lon="4.65988">
        <ele>508</ele>
        <time>2010-02-18T08:18:47Z</time>
      </trkpt>
      <trkpt lat="45.48464" lon="4.66">
        <ele>499</ele>
        <time>2010-02-18T08:19:11Z</time>
      </trkpt>
      <trkpt lat="45.48447" lon="4.65989">
        <ele>496</ele>
        <time>2010-02-18T08:19:12Z</time>
      </trkpt>
      <trkpt lat="45.48439" lon="4.6599">
        <ele>497</ele>
        <time>2010-02-18T08:19:23Z</time>
      </trkpt>
      <trkpt lat="45.48436" lon="4.65991">
        <ele>498</ele>
        <time>2010-02-18T08:19:24Z</time>
      </trkpt>
      <trkpt lat="45.48467" lon="4.65993">
        <ele>493</ele>
        <time>2010-02-18T08:19:55Z</time>
      </trkpt>
      <trkpt lat="45.48514" lon="4.65997">
        <ele>484</ele>
        <time>2010-02-18T08:19:56Z</time>
      </trkpt>
      <trkpt lat="45.48518" lon="4.65992">
        <ele>483</ele>
        <time>2010-02-18T08:19:59Z</time>
      </trkpt>
      <trkpt lat="45.48504" lon="4.66">
        <ele>487</ele>
        <time>2010-02-18T08:20:00Z</time>
      </trkpt>
      <trkpt lat="45.48512" lon="4.65994">
        <ele>484</ele>
        <time>2010-02-18T08:20:12Z</time>
      </trkpt>
      <trkpt lat="45.48513" lon="4.65993">
        <ele>484</ele>
        <time>2010-02-18T08:20:14Z</time>
      </trkpt>
      <trkpt lat="45.48469" lon="4.66037">
        <ele>500</ele>
        <time>2010-02-18T08:20:22Z</time>
      </trkpt>
      <trkpt lat="45.48472" lon="4.66027">
        <ele>499</ele>
        <time>2010-02-18T08:20:25Z</time>
      </trkpt>
      <trkpt lat="45.48474" lon="4.66026">
        <ele>499</ele>
        <time>2010-02-18T08:20:26Z</time>
      </trkpt>
      <trkpt lat="45.48485" lon="4.66026">
        <ele>498</ele>
        <time>2010-02-18T08:20:31Z</time>
      </trkpt>
      <trkpt lat="45.48496" lon="4.66017">
        <ele>495</ele>
        <time>2010-02-18T08:20:32Z</time>
      </trkpt>
      <trkpt lat="45.48504" lon="4.66018">
        <ele>488</ele>
        <time>2010-02-18T08:20:37Z</time>
      </trkpt>
      <trkpt lat="45.48509" lon="4.66028">
        <ele>488</ele>
        <time>2010-02-18T08:20:47Z</time>
      </trkpt>
      <trkpt lat="45.48516" lon="4.66033">
        <ele>487</ele>
        <time>2010-02-18T08:20:52Z</time>
      </trkpt>
      <trkpt lat="45.48524" lon="4.66037">
        <ele>487</ele>
        <time>2010-02-18T08:20:58Z</time>
      </trkpt>
      <trkpt lat="45.4853" lon="4.66046">
        <ele>487</ele>
        <time>2010-02-18T08:21:08Z</time>
      </trkpt>
      <trkpt lat="45.48537" lon="4.66054">
        <ele>487</ele>
        <time>2010-02-18T08:21:17Z</time>
      </trkpt>
      <trkpt lat="45.4854" lon="4.66064">
        <ele>487</ele>
        <time>2010-02-18T08:21:23Z</time>
      </trkpt>
      <trkpt lat="45.48542" lon="4.66074">
        <ele>487</ele>
        <time>2010-02-18T08:21:29Z</time>
      </trkpt>
      <trkpt lat="45.48543" lon="4.66076">
        <ele>487</ele>
        <time>2010-02-18T08:21:30Z</time>
      </trkpt>
      <trkpt lat="45.48548" lon="4.66094">
        <ele>491</ele>
        <time>2010-02-18T08:21:43Z</time>
      </trkpt>
      <trkpt lat="45.48552" lon="4.66104">
        <ele>491</ele>
        <time>2010-02-18T08:21:50Z</time>
      </trkpt>
      <trkpt lat="45.48558" lon="4.66112">
        <ele>490</ele>
        <time>2010-02-18T08:21:56Z</time>
      </trkpt>
      <trkpt lat="45.48565" lon="4.66119">
        <ele>490</ele>
        <time>2010-02-18T08:22:04Z</time>
      </trkpt>
      <trkpt lat="45.48571" lon="4.66128">
        <ele>490</ele>
        <time>2010-02-18T08:22:13Z</time>
      </trkpt>
      <trkpt lat="45.48577" lon="4.66137">
        <ele>490</ele>
        <time>2010-02-18T08:22:21Z</time>
      </trkpt>
      <trkpt lat="45.48584" lon="4.66142">
        <ele>481</ele>
        <time>2010-02-18T08:22:30Z</time>
      </trkpt>
      <trkpt lat="45.48585" lon="4.66143">
        <ele>481</ele>
        <time>2010-02-18T08:22:31Z</time>
      </trkpt>
      <trkpt lat="45.48596" lon="4.66155">
        <ele>482</ele>
        <time>2010-02-18T08:22:39Z</time>
      </trkpt>
      <trkpt lat="45.48601" lon="4.66163">
        <ele>482</ele>
        <time>2010-02-18T08:22:46Z</time>
      </trkpt>
      <trkpt lat="45.48605" lon="4.66173">
        <ele>482</ele>
        <time>2010-02-18T08:22:53Z</time>
      </trkpt>
      <trkpt lat="45.48611" lon="4.66182">
        <ele>481</ele>
        <time>2010-02-18T08:23:02Z</time>
      </trkpt>
      <trkpt lat="45.48616" lon="4.66194">
        <ele>480</ele>
        <time>2010-02-18T08:23:13Z</time>
      </trkpt>
      <trkpt lat="45.48617" lon="4.66205">
        <ele>480</ele>
        <time>2010-02-18T08:23:21Z</time>
      </trkpt>
      <trkpt lat="45.48617" lon="4.66217">
        <ele>480</ele>
        <time>2010-02-18T08:23:28Z</time>
      </trkpt>
      <trkpt lat="45.48613" lon="4.66227">
        <ele>480</ele>
        <time>2010-02-18T08:23:35Z</time>
      </trkpt>
      <trkpt lat="45.48613" lon="4.66229">
        <ele>480</ele>
        <time>2010-02-18T08:23:36Z</time>
      </trkpt>
      <trkpt lat="45.48605" lon="4.66248">
        <ele>481</ele>
        <time>2010-02-18T08:24:02Z</time>
      </trkpt>
      <trkpt lat="45.48603" lon="4.66257">
        <ele>482</ele>
        <time>2010-02-18T08:24:12Z</time>
      </trkpt>
      <trkpt lat="45.48596" lon="4.66257">
        <ele>482</ele>
        <time>2010-02-18T08:24:20Z</time>
      </trkpt>
      <trkpt lat="45.4859" lon="4.66257">
        <ele>482</ele>
        <time>2010-02-18T08:24:25Z</time>
      </trkpt>
      <trkpt lat="45.48585" lon="4.6626">
        <ele>482</ele>
        <time>2010-02-18T08:24:28Z</time>
      </trkpt>
      <trkpt lat="45.48591" lon="4.66269">
        <ele>482</ele>
        <time>2010-02-18T08:24:42Z</time>
      </trkpt>
      <trkpt lat="45.48594" lon="4.66268">
        <ele>482</ele>
        <time>2010-02-18T08:24:43Z</time>
      </trkpt>
      <trkpt lat="45.48605" lon="4.66266">
        <ele>482</ele>
        <time>2010-02-18T08:24:53Z</time>
      </trkpt>
      <trkpt lat="45.48616" lon="4.66268">
        <ele>482</ele>
        <time>2010-02-18T08:24:54Z</time>
      </trkpt>
      <trkpt lat="45.48623" lon="4.66267">
        <ele>482</ele>
        <time>2010-02-18T08:25:23Z</time>
      </trkpt>
      <trkpt lat="45.4863" lon="4.66267">
        <ele>482</ele>
        <time>2010-02-18T08:25:27Z</time>
      </trkpt>
      <trkpt lat="45.48638" lon="4.66264">
        <ele>481</ele>
        <time>2010-02-18T08:25:38Z</time>
      </trkpt>
      <trkpt lat="45.48633" lon="4.66273">
        <ele>482</ele>
        <time>2010-02-18T08:25:48Z</time>
      </trkpt>
      <trkpt lat="45.48631" lon="4.66273">
        <ele>482</ele>
        <time>2010-02-18T08:25:49Z</time>
      </trkpt>
      <trkpt lat="45.48646" lon="4.66263">
        <ele>481</ele>
        <time>2010-02-18T08:26:04Z</time>
      </trkpt>
      <trkpt lat="45.48653" lon="4.66264">
        <ele>481</ele>
        <time>2010-02-18T08:26:11Z</time>
      </trkpt>
      <trkpt lat="45.48661" lon="4.66258">
        <ele>480</ele>
        <time>2010-02-18T08:26:24Z</time>
      </trkpt>
      <trkpt lat="45.48668" lon="4.66252">
        <ele>479</ele>
        <time>2010-02-18T08:26:28Z</time>
      </trkpt>
      <trkpt lat="45.48675" lon="4.66245">
        <ele>479</ele>
        <time>2010-02-18T08:26:31Z</time>
      </trkpt>
      <trkpt lat="45.48682" lon="4.66238">
        <ele>479</ele>
        <time>2010-02-18T08:26:45Z</time>
      </trkpt>
      <trkpt lat="45.4869" lon="4.66234">
        <ele>480</ele>
        <time>2010-02-18T08:26:56Z</time>
      </trkpt>
      <trkpt lat="45.48691" lon="4.66233">
        <ele>480</ele>
        <time>2010-02-18T08:26:57Z</time>
      </trkpt>
      <trkpt lat="45.48703" lon="4.66227">
        <ele>480</ele>
        <time>2010-02-18T08:27:07Z</time>
      </trkpt>
      <trkpt lat="45.48709" lon="4.6622">
        <ele>481</ele>
        <time>2010-02-18T08:27:22Z</time>
      </trkpt>
      <trkpt lat="45.48716" lon="4.66221">
        <ele>481</ele>
        <time>2010-02-18T08:27:38Z</time>
      </trkpt>
      <trkpt lat="45.48724" lon="4.66225">
        <ele>482</ele>
        <time>2010-02-18T08:27:57Z</time>
      </trkpt>
      <trkpt lat="45.48725" lon="4.66226">
        <ele>482</ele>
        <time>2010-02-18T08:27:58Z</time>
      </trkpt>
      <trkpt lat="45.48737" lon="4.66242">
        <ele>484</ele>
        <time>2010-02-18T08:28:16Z</time>
      </trkpt>
      <trkpt lat="45.48743" lon="4.66249">
        <ele>486</ele>
        <time>2010-02-18T08:28:26Z</time>
      </trkpt>
      <trkpt lat="45.48749" lon="4.66255">
        <ele>488</ele>
        <time>2010-02-18T08:28:34Z</time>
      </trkpt>
      <trkpt lat="45.48757" lon="4.66256">
        <ele>491</ele>
        <time>2010-02-18T08:28:42Z</time>
      </trkpt>
      <trkpt lat="45.48765" lon="4.66259">
        <ele>493</ele>
        <time>2010-02-18T08:28:50Z</time>
      </trkpt>
      <trkpt lat="45.48771" lon="4.66267">
        <ele>495</ele>
        <time>2010-02-18T08:29:04Z</time>
      </trkpt>
      <trkpt lat="45.48772" lon="4.6627">
        <ele>495</ele>
        <time>2010-02-18T08:29:05Z</time>
      </trkpt>
      <trkpt lat="45.48785" lon="4.66277">
        <ele>497</ele>
        <time>2010-02-18T08:29:15Z</time>
      </trkpt>
      <trkpt lat="45.48791" lon="4.66285">
        <ele>498</ele>
        <time>2010-02-18T08:29:26Z</time>
      </trkpt>
      <trkpt lat="45.48799" lon="4.66288">
        <ele>498</ele>
        <time>2010-02-18T08:29:32Z</time>
      </trkpt>
      <trkpt lat="45.48807" lon="4.66292">
        <ele>499</ele>
        <time>2010-02-18T08:29:50Z</time>
      </trkpt>
      <trkpt lat="45.48815" lon="4.66295">
        <ele>499</ele>
        <time>2010-02-18T08:29:57Z</time>
      </trkpt>
      <trkpt lat="45.48823" lon="4.66299">
        <ele>500</ele>
        <time>2010-02-18T08:30:02Z</time>
      </trkpt>
      <trkpt lat="45.4883" lon="4.66303">
        <ele>500</ele>
        <time>2010-02-18T08:30:09Z</time>
      </trkpt>
      <trkpt lat="45.48833" lon="4.66305">
        <ele>501</ele>
        <time>2010-02-18T08:30:10Z</time>
      </trkpt>
      <trkpt lat="45.48845" lon="4.66311">
        <ele>505</ele>
        <time>2010-02-18T08:30:31Z</time>
      </trkpt>
      <trkpt lat="45.48852" lon="4.66311">
        <ele>505</ele>
        <time>2010-02-18T08:30:35Z</time>
      </trkpt>
      <trkpt lat="45.4886" lon="4.66307">
        <ele>505</ele>
        <time>2010-02-18T08:30:43Z</time>
      </trkpt>
      <trkpt lat="45.48868" lon="4.66309">
        <ele>505</ele>
        <time>2010-02-18T08:30:50Z</time>
      </trkpt>
      <trkpt lat="45.48877" lon="4.66309">
        <ele>505</ele>
        <time>2010-02-18T08:30:57Z</time>
      </trkpt>
      <trkpt lat="45.48885" lon="4.66308">
        <ele>506</ele>
        <time>2010-02-18T08:31:06Z</time>
      </trkpt>
      <trkpt lat="45.48893" lon="4.66309">
        <ele>506</ele>
        <time>2010-02-18T08:31:13Z</time>
      </trkpt>
      <trkpt lat="45.48894" lon="4.66309">
        <ele>506</ele>
        <time>2010-02-18T08:31:14Z</time>
      </trkpt>
      <trkpt lat="45.48908" lon="4.66307">
        <ele>507</ele>
        <time>2010-02-18T08:31:27Z</time>
      </trkpt>
      <trkpt lat="45.48916" lon="4.66308">
        <ele>507</ele>
        <time>2010-02-18T08:31:35Z</time>
      </trkpt>
      <trkpt lat="45.48922" lon="4.66307">
        <ele>510</ele>
        <time>2010-02-18T08:31:41Z</time>
      </trkpt>
      <trkpt lat="45.4893" lon="4.66309">
        <ele>510</ele>
        <time>2010-02-18T08:32:06Z</time>
      </trkpt>
      <trkpt lat="45.48939" lon="4.66308">
        <ele>510</ele>
        <time>2010-02-18T08:32:12Z</time>
      </trkpt>
      <trkpt lat="45.48947" lon="4.66307">
        <ele>510</ele>
        <time>2010-02-18T08:32:20Z</time>
      </trkpt>
      <trkpt lat="45.48948" lon="4.66307">
        <ele>510</ele>
        <time>2010-02-18T08:32:21Z</time>
      </trkpt>
      <trkpt lat="45.48963" lon="4.66303">
        <ele>511</ele>
        <time>2010-02-18T08:32:34Z</time>
      </trkpt>
      <trkpt lat="45.48972" lon="4.66301">
        <ele>511</ele>
        <time>2010-02-18T08:32:45Z</time>
      </trkpt>
      <trkpt lat="45.4898" lon="4.66304">
        <ele>511</ele>
        <time>2010-02-18T08:32:54Z</time>
      </trkpt>
      <trkpt lat="45.48989" lon="4.66308">
        <ele>512</ele>
        <time>2010-02-18T08:33:02Z</time>
      </trkpt>
      <trkpt lat="45.48996" lon="4.66315">
        <ele>513</ele>
        <time>2010-02-18T08:33:11Z</time>
      </trkpt>
      <trkpt lat="45.49003" lon="4.66318">
        <ele>515</ele>
        <time>2010-02-18T08:33:19Z</time>
      </trkpt>
      <trkpt lat="45.49011" lon="4.66323">
        <ele>515</ele>
        <time>2010-02-18T08:33:26Z</time>
      </trkpt>
      <trkpt lat="45.49012" lon="4.66323">
        <ele>515</ele>
        <time>2010-02-18T08:33:27Z</time>
      </trkpt>
      <trkpt lat="45.49028" lon="4.66321">
        <ele>516</ele>
        <time>2010-02-18T08:33:39Z</time>
      </trkpt>
      <trkpt lat="45.49036" lon="4.66323">
        <ele>516</ele>
        <time>2010-02-18T08:33:51Z</time>
      </trkpt>
      <trkpt lat="45.49043" lon="4.6633">
        <ele>517</ele>
        <time>2010-02-18T08:34:01Z</time>
      </trkpt>
      <trkpt lat="45.49051" lon="4.66336">
        <ele>521</ele>
        <time>2010-02-18T08:34:09Z</time>
      </trkpt>
      <trkpt lat="45.49057" lon="4.66342">
        <ele>522</ele>
        <time>2010-02-18T08:34:18Z</time>
      </trkpt>
      <trkpt lat="45.49064" lon="4.66351">
        <ele>522</ele>
        <time>2010-02-18T08:34:27Z</time>
      </trkpt>
      <trkpt lat="45.49064" lon="4.66351">
        <ele>522</ele>
        <time>2010-02-18T08:34:28Z</time>
      </trkpt>
      <trkpt lat="45.49077" lon="4.66365">
        <ele>523</ele>
        <time>2010-02-18T08:34:46Z</time>
      </trkpt>
      <trkpt lat="45.49085" lon="4.66369">
        <ele>524</ele>
        <time>2010-02-18T08:34:55Z</time>
      </trkpt>
      <trkpt lat="45.49093" lon="4.66372">
        <ele>524</ele>
        <time>2010-02-18T08:35:03Z</time>
      </trkpt>
      <trkpt lat="45.49101" lon="4.66376">
        <ele>525</ele>
        <time>2010-02-18T08:35:12Z</time>
      </trkpt>
      <trkpt lat="45.49109" lon="4.66378">
        <ele>525</ele>
        <time>2010-02-18T08:35:20Z</time>
      </trkpt>
      <trkpt lat="45.49116" lon="4.66381">
        <ele>525</ele>
        <time>2010-02-18T08:35:27Z</time>
      </trkpt>
      <trkpt lat="45.49119" lon="4.66382">
        <ele>525</ele>
        <time>2010-02-18T08:35:30Z</time>
      </trkpt>
      <trkpt lat="45.49132" lon="4.66386">
        <ele>525</ele>
        <time>2010-02-18T08:35:43Z</time>
      </trkpt>
      <trkpt lat="45.49141" lon="4.66389">
        <ele>525</ele>
        <time>2010-02-18T08:35:51Z</time>
      </trkpt>
      <trkpt lat="45.49149" lon="4.66391">
        <ele>526</ele>
        <time>2010-02-18T08:35:58Z</time>
      </trkpt>
      <trkpt lat="45.49157" lon="4.66394">
        <ele>526</ele>
        <time>2010-02-18T08:36:05Z</time>
      </trkpt>
      <trkpt lat="45.49166" lon="4.66395">
        <ele>526</ele>
        <time>2010-02-18T08:36:12Z</time>
      </trkpt>
      <trkpt lat="45.49174" lon="4.66399">
        <ele>526</ele>
        <time>2010-02-18T08:36:20Z</time>
      </trkpt>
      <trkpt lat="45.49182" lon="4.664">
        <ele>526</ele>
        <time>2010-02-18T08:36:28Z</time>
      </trkpt>
      <trkpt lat="45.4919" lon="4.66403">
        <ele>526</ele>
        <time>2010-02-18T08:36:37Z</time>
      </trkpt>
      <trkpt lat="45.49191" lon="4.66403">
        <ele>526</ele>
        <time>2010-02-18T08:36:38Z</time>
      </trkpt>
      <trkpt lat="45.49206" lon="4.66409">
        <ele>526</ele>
        <time>2010-02-18T08:36:52Z</time>
      </trkpt>
      <trkpt lat="45.49215" lon="4.66411">
        <ele>526</ele>
        <time>2010-02-18T08:37:00Z</time>
      </trkpt>
      <trkpt lat="45.49223" lon="4.66413">
        <ele>526</ele>
        <time>2010-02-18T08:37:08Z</time>
      </trkpt>
      <trkpt lat="45.49232" lon="4.66414">
        <ele>526</ele>
        <time>2010-02-18T08:37:16Z</time>
      </trkpt>
      <trkpt lat="45.4924" lon="4.66417">
        <ele>526</ele>
        <time>2010-02-18T08:37:24Z</time>
      </trkpt>
      <trkpt lat="45.49248" lon="4.66422">
        <ele>527</ele>
        <time>2010-02-18T08:38:31Z</time>
      </trkpt>
      <trkpt lat="45.49249" lon="4.66421">
        <ele>526</ele>
        <time>2010-02-18T08:38:32Z</time>
      </trkpt>
      <trkpt lat="45.49264" lon="4.66414">
        <ele>526</ele>
        <time>2010-02-18T08:38:50Z</time>
      </trkpt>
      <trkpt lat="45.49272" lon="4.66412">
        <ele>526</ele>
        <time>2010-02-18T08:38:59Z</time>
      </trkpt>
      <trkpt lat="45.4928" lon="4.66409">
        <ele>526</ele>
        <time>2010-02-18T08:40:02Z</time>
      </trkpt>
      <trkpt lat="45.49281" lon="4.66409">
        <ele>526</ele>
        <time>2010-02-18T08:40:03Z</time>
      </trkpt>
      <trkpt lat="45.49298" lon="4.66402">
        <ele>526</ele>
        <time>2010-02-18T08:40:26Z</time>
      </trkpt>
      <trkpt lat="45.49303" lon="4.66411">
        <ele>526</ele>
        <time>2010-02-18T08:40:40Z</time>
      </trkpt>
      <trkpt lat="45.4931" lon="4.66417">
        <ele>524</ele>
        <time>2010-02-18T08:40:51Z</time>
      </trkpt>
      <trkpt lat="45.49318" lon="4.66423">
        <ele>524</ele>
        <time>2010-02-18T08:41:01Z</time>
      </trkpt>
      <trkpt lat="45.49324" lon="4.66431">
        <ele>524</ele>
        <time>2010-02-18T08:41:11Z</time>
      </trkpt>
      <trkpt lat="45.49325" lon="4.66431">
        <ele>524</ele>
        <time>2010-02-18T08:41:12Z</time>
      </trkpt>
      <trkpt lat="45.4934" lon="4.66441">
        <ele>521</ele>
        <time>2010-02-18T08:41:29Z</time>
      </trkpt>
      <trkpt lat="45.49348" lon="4.66447">
        <ele>520</ele>
        <time>2010-02-18T08:41:40Z</time>
      </trkpt>
      <trkpt lat="45.49355" lon="4.66452">
        <ele>520</ele>
        <time>2010-02-18T08:41:49Z</time>
      </trkpt>
      <trkpt lat="45.49363" lon="4.66457">
        <ele>519</ele>
        <time>2010-02-18T08:42:01Z</time>
      </trkpt>
      <trkpt lat="45.49371" lon="4.66461">
        <ele>519</ele>
        <time>2010-02-18T08:42:14Z</time>
      </trkpt>
      <trkpt lat="45.49373" lon="4.66462">
        <ele>519</ele>
        <time>2010-02-18T08:42:15Z</time>
      </trkpt>
      <trkpt lat="45.49386" lon="4.66472">
        <ele>518</ele>
        <time>2010-02-18T08:42:33Z</time>
      </trkpt>
      <trkpt lat="45.49394" lon="4.66477">
        <ele>517</ele>
        <time>2010-02-18T08:42:42Z</time>
      </trkpt>
      <trkpt lat="45.49402" lon="4.66479">
        <ele>516</ele>
        <time>2010-02-18T08:42:51Z</time>
      </trkpt>
      <trkpt lat="45.4941" lon="4.6648">
        <ele>516</ele>
        <time>2010-02-18T08:42:58Z</time>
      </trkpt>
      <trkpt lat="45.49418" lon="4.66483">
        <ele>513</ele>
        <time>2010-02-18T08:43:07Z</time>
      </trkpt>
      <trkpt lat="45.49426" lon="4.66485">
        <ele>513</ele>
        <time>2010-02-18T08:43:17Z</time>
      </trkpt>
      <trkpt lat="45.49427" lon="4.66485">
        <ele>512</ele>
        <time>2010-02-18T08:43:18Z</time>
      </trkpt>
      <trkpt lat="45.49443" lon="4.66491">
        <ele>512</ele>
        <time>2010-02-18T08:43:35Z</time>
      </trkpt>
      <trkpt lat="45.49451" lon="4.66492">
        <ele>512</ele>
        <time>2010-02-18T08:43:39Z</time>
      </trkpt>
      <trkpt lat="45.49459" lon="4.66491">
        <ele>512</ele>
        <time>2010-02-18T08:43:45Z</time>
      </trkpt>
      <trkpt lat="45.49467" lon="4.66491">
        <ele>511</ele>
        <time>2010-02-18T08:43:54Z</time>
      </trkpt>
      <trkpt lat="45.49475" lon="4.66493">
        <ele>510</ele>
        <time>2010-02-18T08:44:02Z</time>
      </trkpt>
      <trkpt lat="45.49484" lon="4.66494">
        <ele>509</ele>
        <time>2010-02-18T08:44:10Z</time>
      </trkpt>
      <trkpt lat="45.49493" lon="4.66495">
        <ele>507</ele>
        <time>2010-02-18T08:44:20Z</time>
      </trkpt>
      <trkpt lat="45.49493" lon="4.66495">
        <ele>507</ele>
        <time>2010-02-18T08:44:21Z</time>
      </trkpt>
      <trkpt lat="45.49509" lon="4.66496">
        <ele>506</ele>
        <time>2010-02-18T08:44:40Z</time>
      </trkpt>
      <trkpt lat="45.49518" lon="4.66497">
        <ele>506</ele>
        <time>2010-02-18T08:44:48Z</time>
      </trkpt>
      <trkpt lat="45.49526" lon="4.66498">
        <ele>506</ele>
        <time>2010-02-18T08:44:57Z</time>
      </trkpt>
      <trkpt lat="45.49534" lon="4.66499">
        <ele>506</ele>
        <time>2010-02-18T08:45:07Z</time>
      </trkpt>
      <trkpt lat="45.49543" lon="4.66501">
        <ele>497</ele>
        <time>2010-02-18T08:45:16Z</time>
      </trkpt>
      <trkpt lat="45.49551" lon="4.66503">
        <ele>497</ele>
        <time>2010-02-18T08:45:23Z</time>
      </trkpt>
      <trkpt lat="45.49552" lon="4.66503">
        <ele>497</ele>
        <time>2010-02-18T08:45:24Z</time>
      </trkpt>
      <trkpt lat="45.49568" lon="4.66505">
        <ele>497</ele>
        <time>2010-02-18T08:45:38Z</time>
      </trkpt>
      <trkpt lat="45.49576" lon="4.66506">
        <ele>497</ele>
        <time>2010-02-18T08:45:46Z</time>
      </trkpt>
      <trkpt lat="45.49585" lon="4.66505">
        <ele>498</ele>
        <time>2010-02-18T08:45:53Z</time>
      </trkpt>
      <trkpt lat="45.49593" lon="4.66504">
        <ele>498</ele>
        <time>2010-02-18T08:46:01Z</time>
      </trkpt>
      <trkpt lat="45.49602" lon="4.66503">
        <ele>498</ele>
        <time>2010-02-18T08:46:09Z</time>
      </trkpt>
      <trkpt lat="45.4961" lon="4.66502">
        <ele>499</ele>
        <time>2010-02-18T08:46:17Z</time>
      </trkpt>
      <trkpt lat="45.49619" lon="4.66504">
        <ele>499</ele>
        <time>2010-02-18T08:46:24Z</time>
      </trkpt>
      <trkpt lat="45.4962" lon="4.66505">
        <ele>499</ele>
        <time>2010-02-18T08:46:25Z</time>
      </trkpt>
      <trkpt lat="45.49629" lon="4.66521">
        <ele>499</ele>
        <time>2010-02-18T08:47:02Z</time>
      </trkpt>
      <trkpt lat="45.49634" lon="4.6653">
        <ele>499</ele>
        <time>2010-02-18T08:47:10Z</time>
      </trkpt>
      <trkpt lat="45.49636" lon="4.66542">
        <ele>499</ele>
        <time>2010-02-18T08:47:20Z</time>
      </trkpt>
      <trkpt lat="45.49638" lon="4.66554">
        <ele>499</ele>
        <time>2010-02-18T08:47:28Z</time>
      </trkpt>
      <trkpt lat="45.49638" lon="4.66555">
        <ele>499</ele>
        <time>2010-02-18T08:47:29Z</time>
      </trkpt>
      <trkpt lat="45.49644" lon="4.66576">
        <ele>499</ele>
        <time>2010-02-18T08:47:45Z</time>
      </trkpt>
      <trkpt lat="45.49648" lon="4.66587">
        <ele>495</ele>
        <time>2010-02-18T08:47:54Z</time>
      </trkpt>
      <trkpt lat="45.49652" lon="4.66598">
        <ele>494</ele>
        <time>2010-02-18T08:48:14Z</time>
      </trkpt>
      <trkpt lat="45.49657" lon="4.66609">
        <ele>493</ele>
        <time>2010-02-18T08:48:23Z</time>
      </trkpt>
      <trkpt lat="45.49663" lon="4.66618">
        <ele>492</ele>
        <time>2010-02-18T08:48:32Z</time>
      </trkpt>
      <trkpt lat="45.49664" lon="4.66619">
        <ele>492</ele>
        <time>2010-02-18T08:48:33Z</time>
      </trkpt>
      <trkpt lat="45.49676" lon="4.66633">
        <ele>498</ele>
        <time>2010-02-18T08:48:48Z</time>
      </trkpt>
      <trkpt lat="45.49682" lon="4.66641">
        <ele>497</ele>
        <time>2010-02-18T08:48:56Z</time>
      </trkpt>
      <trkpt lat="45.49689" lon="4.66649">
        <ele>497</ele>
        <time>2010-02-18T08:49:05Z</time>
      </trkpt>
      <trkpt lat="45.49697" lon="4.66654">
        <ele>498</ele>
        <time>2010-02-18T08:49:12Z</time>
      </trkpt>
      <trkpt lat="45.49704" lon="4.66659">
        <ele>498</ele>
        <time>2010-02-18T08:49:19Z</time>
      </trkpt>
      <trkpt lat="45.4971" lon="4.66667">
        <ele>498</ele>
        <time>2010-02-18T08:49:26Z</time>
      </trkpt>
      <trkpt lat="45.49716" lon="4.66674">
        <ele>491</ele>
        <time>2010-02-18T08:49:33Z</time>
      </trkpt>
      <trkpt lat="45.49718" lon="4.66675">
        <ele>491</ele>
        <time>2010-02-18T08:49:34Z</time>
      </trkpt>
      <trkpt lat="45.49732" lon="4.66683">
        <ele>492</ele>
        <time>2010-02-18T08:49:47Z</time>
      </trkpt>
      <trkpt lat="45.4974" lon="4.66688">
        <ele>492</ele>
        <time>2010-02-18T08:49:54Z</time>
      </trkpt>
      <trkpt lat="45.49748" lon="4.66694">
        <ele>491</ele>
        <time>2010-02-18T08:50:01Z</time>
      </trkpt>
      <trkpt lat="45.49756" lon="4.66698">
        <ele>496</ele>
        <time>2010-02-18T08:50:08Z</time>
      </trkpt>
      <trkpt lat="45.49763" lon="4.66705">
        <ele>495</ele>
        <time>2010-02-18T08:50:16Z</time>
      </trkpt>
      <trkpt lat="45.4977" lon="4.6671">
        <ele>495</ele>
        <time>2010-02-18T08:50:23Z</time>
      </trkpt>
      <trkpt lat="45.49778" lon="4.66715">
        <ele>495</ele>
        <time>2010-02-18T08:50:31Z</time>
      </trkpt>
      <trkpt lat="45.49787" lon="4.66719">
        <ele>495</ele>
        <time>2010-02-18T08:50:39Z</time>
      </trkpt>
      <trkpt lat="45.49788" lon="4.6672">
        <ele>495</ele>
        <time>2010-02-18T08:50:40Z</time>
      </trkpt>
      <trkpt lat="45.49802" lon="4.6673">
        <ele>495</ele>
        <time>2010-02-18T08:50:54Z</time>
      </trkpt>
      <trkpt lat="45.4981" lon="4.66735">
        <ele>495</ele>
        <time>2010-02-18T08:51:03Z</time>
      </trkpt>
      <trkpt lat="45.49818" lon="4.6674">
        <ele>495</ele>
        <time>2010-02-18T08:51:11Z</time>
      </trkpt>
      <trkpt lat="45.49826" lon="4.66746">
        <ele>495</ele>
        <time>2010-02-18T08:51:19Z</time>
      </trkpt>
      <trkpt lat="45.49833" lon="4.66749">
        <ele>495</ele>
        <time>2010-02-18T08:51:27Z</time>
      </trkpt>
      <trkpt lat="45.49841" lon="4.66751">
        <ele>494</ele>
        <time>2010-02-18T08:51:39Z</time>
      </trkpt>
      <trkpt lat="45.4985" lon="4.6675">
        <ele>493</ele>
        <time>2010-02-18T08:51:47Z</time>
      </trkpt>
      <trkpt lat="45.49851" lon="4.66751">
        <ele>493</ele>
        <time>2010-02-18T08:51:48Z</time>
      </trkpt>
      <trkpt lat="45.49866" lon="4.66748">
        <ele>497</ele>
        <time>2010-02-18T08:52:03Z</time>
      </trkpt>
      <trkpt lat="45.49875" lon="4.66749">
        <ele>497</ele>
        <time>2010-02-18T08:52:11Z</time>
      </trkpt>
      <trkpt lat="45.49883" lon="4.66749">
        <ele>496</ele>
        <time>2010-02-18T08:52:18Z</time>
      </trkpt>
      <trkpt lat="45.49891" lon="4.66748">
        <ele>496</ele>
        <time>2010-02-18T08:52:25Z</time>
      </trkpt>
      <trkpt lat="45.49899" lon="4.66744">
        <ele>495</ele>
        <time>2010-02-18T08:52:32Z</time>
      </trkpt>
      <trkpt lat="45.49907" lon="4.6674">
        <ele>495</ele>
        <time>2010-02-18T08:52:39Z</time>
      </trkpt>
      <trkpt lat="45.49915" lon="4.66735">
        <ele>495</ele>
        <time>2010-02-18T08:52:46Z</time>
      </trkpt>
      <trkpt lat="45.49923" lon="4.66733">
        <ele>492</ele>
        <time>2010-02-18T08:52:53Z</time>
      </trkpt>
      <trkpt lat="45.49924" lon="4.66733">
        <ele>492</ele>
        <time>2010-02-18T08:52:54Z</time>
      </trkpt>
      <trkpt lat="45.49939" lon="4.66731">
        <ele>492</ele>
        <time>2010-02-18T08:53:12Z</time>
      </trkpt>
      <trkpt lat="45.49947" lon="4.66727">
        <ele>491</ele>
        <time>2010-02-18T08:53:19Z</time>
      </trkpt>
      <trkpt lat="45.49955" lon="4.66722">
        <ele>491</ele>
        <time>2010-02-18T08:53:26Z</time>
      </trkpt>
      <trkpt lat="45.49963" lon="4.66717">
        <ele>490</ele>
        <time>2010-02-18T08:53:33Z</time>
      </trkpt>
      <trkpt lat="45.49971" lon="4.66712">
        <ele>490</ele>
        <time>2010-02-18T08:53:40Z</time>
      </trkpt>
      <trkpt lat="45.49977" lon="4.66704">
        <ele>490</ele>
        <time>2010-02-18T08:53:47Z</time>
      </trkpt>
      <trkpt lat="45.49984" lon="4.66697">
        <ele>490</ele>
        <time>2010-02-18T08:53:54Z</time>
      </trkpt>
      <trkpt lat="45.49985" lon="4.66696">
        <ele>490</ele>
        <time>2010-02-18T08:53:55Z</time>
      </trkpt>
      <trkpt lat="45.49996" lon="4.66682">
        <ele>489</ele>
        <time>2010-02-18T08:54:08Z</time>
      </trkpt>
      <trkpt lat="45.50001" lon="4.66673">
        <ele>486</ele>
        <time>2010-02-18T08:54:15Z</time>
      </trkpt>
      <trkpt lat="45.50009" lon="4.66668">
        <ele>485</ele>
        <time>2010-02-18T08:54:24Z</time>
      </trkpt>
      <trkpt lat="45.50015" lon="4.6666">
        <ele>485</ele>
        <time>2010-02-18T08:54:31Z</time>
      </trkpt>
      <trkpt lat="45.50021" lon="4.66652">
        <ele>485</ele>
        <time>2010-02-18T08:54:38Z</time>
      </trkpt>
      <trkpt lat="45.50028" lon="4.66644">
        <ele>484</ele>
        <time>2010-02-18T08:54:46Z</time>
      </trkpt>
      <trkpt lat="45.50034" lon="4.66635">
        <ele>483</ele>
        <time>2010-02-18T08:54:54Z</time>
      </trkpt>
      <trkpt lat="45.5004" lon="4.66625">
        <ele>483</ele>
        <time>2010-02-18T08:55:02Z</time>
      </trkpt>
      <trkpt lat="45.50041" lon="4.66624">
        <ele>483</ele>
        <time>2010-02-18T08:55:03Z</time>
      </trkpt>
      <trkpt lat="45.50052" lon="4.66607">
        <ele>483</ele>
        <time>2010-02-18T08:55:18Z</time>
      </trkpt>
      <trkpt lat="45.50058" lon="4.66598">
        <ele>482</ele>
        <time>2010-02-18T08:55:26Z</time>
      </trkpt>
      <trkpt lat="45.50064" lon="4.6659">
        <ele>481</ele>
        <time>2010-02-18T08:55:34Z</time>
      </trkpt>
      <trkpt lat="45.5007" lon="4.66581">
        <ele>483</ele>
        <time>2010-02-18T08:55:41Z</time>
      </trkpt>
      <trkpt lat="45.50076" lon="4.66574">
        <ele>482</ele>
        <time>2010-02-18T08:55:49Z</time>
      </trkpt>
      <trkpt lat="45.50083" lon="4.66566">
        <ele>483</ele>
        <time>2010-02-18T08:56:00Z</time>
      </trkpt>
      <trkpt lat="45.50089" lon="4.66557">
        <ele>478</ele>
        <time>2010-02-18T08:56:10Z</time>
      </trkpt>
      <trkpt lat="45.5009" lon="4.66556">
        <ele>478</ele>
        <time>2010-02-18T08:56:11Z</time>
      </trkpt>
      <trkpt lat="45.50104" lon="4.66545">
        <ele>478</ele>
        <time>2010-02-18T08:56:31Z</time>
      </trkpt>
      <trkpt lat="45.50106" lon="4.66534">
        <ele>479</ele>
        <time>2010-02-18T08:57:43Z</time>
      </trkpt>
      <trkpt lat="45.50107" lon="4.66533">
        <ele>479</ele>
        <time>2010-02-18T08:57:44Z</time>
      </trkpt>
      <trkpt lat="45.50123" lon="4.66526">
        <ele>478</ele>
        <time>2010-02-18T08:58:05Z</time>
      </trkpt>
      <trkpt lat="45.50131" lon="4.66522">
        <ele>478</ele>
        <time>2010-02-18T08:58:37Z</time>
      </trkpt>
      <trkpt lat="45.50139" lon="4.66518">
        <ele>478</ele>
        <time>2010-02-18T08:58:50Z</time>
      </trkpt>
      <trkpt lat="45.5014" lon="4.66518">
        <ele>478</ele>
        <time>2010-02-18T08:58:51Z</time>
      </trkpt>
      <trkpt lat="45.50155" lon="4.66518">
        <ele>478</ele>
        <time>2010-02-18T08:59:07Z</time>
      </trkpt>
      <trkpt lat="45.50163" lon="4.66518">
        <ele>478</ele>
        <time>2010-02-18T08:59:15Z</time>
      </trkpt>
      <trkpt lat="45.50172" lon="4.66515">
        <ele>477</ele>
        <time>2010-02-18T08:59:25Z</time>
      </trkpt>
      <trkpt lat="45.5018" lon="4.66512">
        <ele>477</ele>
        <time>2010-02-18T09:00:01Z</time>
      </trkpt>
      <trkpt lat="45.50181" lon="4.66512">
        <ele>477</ele>
        <time>2010-02-18T09:00:02Z</time>
      </trkpt>
      <trkpt lat="45.50198" lon="4.66509">
        <ele>477</ele>
        <time>2010-02-18T09:00:20Z</time>
      </trkpt>
      <trkpt lat="45.50207" lon="4.66508">
        <ele>477</ele>
        <time>2010-02-18T09:00:29Z</time>
      </trkpt>
      <trkpt lat="45.50215" lon="4.66507">
        <ele>477</ele>
        <time>2010-02-18T09:00:38Z</time>
      </trkpt>
      <trkpt lat="45.50224" lon="4.66506">
        <ele>478</ele>
        <time>2010-02-18T09:00:46Z</time>
      </trkpt>
      <trkpt lat="45.50232" lon="4.66506">
        <ele>478</ele>
        <time>2010-02-18T09:00:54Z</time>
      </trkpt>
      <trkpt lat="45.5024" lon="4.66505">
        <ele>479</ele>
        <time>2010-02-18T09:01:02Z</time>
      </trkpt>
      <trkpt lat="45.50241" lon="4.66505">
        <ele>479</ele>
        <time>2010-02-18T09:01:03Z</time>
      </trkpt>
      <trkpt lat="45.50256" lon="4.66498">
        <ele>480</ele>
        <time>2010-02-18T09:01:18Z</time>
      </trkpt>
      <trkpt lat="45.50264" lon="4.66492">
        <ele>479</ele>
        <time>2010-02-18T09:01:27Z</time>
      </trkpt>
      <trkpt lat="45.50273" lon="4.6649">
        <ele>479</ele>
        <time>2010-02-18T09:01:42Z</time>
      </trkpt>
      <trkpt lat="45.5028" lon="4.66497">
        <ele>478</ele>
        <time>2010-02-18T09:01:54Z</time>
      </trkpt>
      <trkpt lat="45.50283" lon="4.66507">
        <ele>477</ele>
        <time>2010-02-18T09:02:55Z</time>
      </trkpt>
      <trkpt lat="45.50283" lon="4.66509">
        <ele>477</ele>
        <time>2010-02-18T09:02:56Z</time>
      </trkpt>
      <trkpt lat="45.50285" lon="4.66531">
        <ele>477</ele>
        <time>2010-02-18T09:03:11Z</time>
      </trkpt>
      <trkpt lat="45.50287" lon="4.66543">
        <ele>477</ele>
        <time>2010-02-18T09:03:19Z</time>
      </trkpt>
      <trkpt lat="45.5029" lon="4.66554">
        <ele>477</ele>
        <time>2010-02-18T09:03:27Z</time>
      </trkpt>
      <trkpt lat="45.50295" lon="4.66565">
        <ele>477</ele>
        <time>2010-02-18T09:03:36Z</time>
      </trkpt>
      <trkpt lat="45.50299" lon="4.66575">
        <ele>477</ele>
        <time>2010-02-18T09:03:45Z</time>
      </trkpt>
      <trkpt lat="45.50304" lon="4.66584">
        <ele>476</ele>
        <time>2010-02-18T09:03:53Z</time>
      </trkpt>
      <trkpt lat="45.50309" lon="4.66594">
        <ele>476</ele>
        <time>2010-02-18T09:04:01Z</time>
      </trkpt>
      <trkpt lat="45.5031" lon="4.66594">
        <ele>476</ele>
        <time>2010-02-18T09:04:02Z</time>
      </trkpt>
      <trkpt lat="45.50321" lon="4.6661">
        <ele>476</ele>
        <time>2010-02-18T09:04:17Z</time>
      </trkpt>
      <trkpt lat="45.50327" lon="4.66618">
        <ele>476</ele>
        <time>2010-02-18T09:04:25Z</time>
      </trkpt>
      <trkpt lat="45.50333" lon="4.66626">
        <ele>476</ele>
        <time>2010-02-18T09:04:33Z</time>
      </trkpt>
      <trkpt lat="45.50339" lon="4.66635">
        <ele>476</ele>
        <time>2010-02-18T09:04:41Z</time>
      </trkpt>
      <trkpt lat="45.50344" lon="4.66644">
        <ele>476</ele>
        <time>2010-02-18T09:04:49Z</time>
      </trkpt>
      <trkpt lat="45.5035" lon="4.66654">
        <ele>476</ele>
        <time>2010-02-18T09:04:57Z</time>
      </trkpt>
      <trkpt lat="45.50355" lon="4.66664">
        <ele>476</ele>
        <time>2010-02-18T09:05:05Z</time>
      </trkpt>
      <trkpt lat="45.50356" lon="4.66665">
        <ele>476</ele>
        <time>2010-02-18T09:05:06Z</time>
      </trkpt>
      <trkpt lat="45.50366" lon="4.66683">
        <ele>474</ele>
        <time>2010-02-18T09:05:21Z</time>
      </trkpt>
      <trkpt lat="45.50371" lon="4.66693">
        <ele>473</ele>
        <time>2010-02-18T09:05:28Z</time>
      </trkpt>
      <trkpt lat="45.50376" lon="4.66702">
        <ele>472</ele>
        <time>2010-02-18T09:05:35Z</time>
      </trkpt>
      <trkpt lat="45.5038" lon="4.66713">
        <ele>472</ele>
        <time>2010-02-18T09:05:43Z</time>
      </trkpt>
      <trkpt lat="45.50384" lon="4.66723">
        <ele>472</ele>
        <time>2010-02-18T09:05:50Z</time>
      </trkpt>
      <trkpt lat="45.50388" lon="4.66734">
        <ele>471</ele>
        <time>2010-02-18T09:05:57Z</time>
      </trkpt>
      <trkpt lat="45.50391" lon="4.66744">
        <ele>471</ele>
        <time>2010-02-18T09:06:04Z</time>
      </trkpt>
      <trkpt lat="45.50394" lon="4.66755">
        <ele>467</ele>
        <time>2010-02-18T09:06:12Z</time>
      </trkpt>
      <trkpt lat="45.50395" lon="4.66757">
        <ele>467</ele>
        <time>2010-02-18T09:06:13Z</time>
      </trkpt>
      <trkpt lat="45.50395" lon="4.6678">
        <ele>467</ele>
        <time>2010-02-18T09:06:32Z</time>
      </trkpt>
      <trkpt lat="45.50398" lon="4.66791">
        <ele>467</ele>
        <time>2010-02-18T09:06:40Z</time>
      </trkpt>
      <trkpt lat="45.50403" lon="4.668">
        <ele>466</ele>
        <time>2010-02-18T09:06:48Z</time>
      </trkpt>
      <trkpt lat="45.50409" lon="4.66808">
        <ele>466</ele>
        <time>2010-02-18T09:06:56Z</time>
      </trkpt>
      <trkpt lat="45.50416" lon="4.66813">
        <ele>466</ele>
        <time>2010-02-18T09:07:04Z</time>
      </trkpt>
      <trkpt lat="45.50425" lon="4.6681">
        <ele>464</ele>
        <time>2010-02-18T09:07:13Z</time>
      </trkpt>
      <trkpt lat="45.50426" lon="4.6681">
        <ele>464</ele>
        <time>2010-02-18T09:07:14Z</time>
      </trkpt>
      <trkpt lat="45.50442" lon="4.66803">
        <ele>464</ele>
        <time>2010-02-18T09:07:32Z</time>
      </trkpt>
      <trkpt lat="45.5045" lon="4.66799">
        <ele>463</ele>
        <time>2010-02-18T09:07:42Z</time>
      </trkpt>
      <trkpt lat="45.50458" lon="4.66803">
        <ele>463</ele>
        <time>2010-02-18T09:08:22Z</time>
      </trkpt>
      <trkpt lat="45.50459" lon="4.66803">
        <ele>463</ele>
        <time>2010-02-18T09:08:23Z</time>
      </trkpt>
      <trkpt lat="45.50474" lon="4.66797">
        <ele>463</ele>
        <time>2010-02-18T09:08:38Z</time>
      </trkpt>
      <trkpt lat="45.50483" lon="4.66794">
        <ele>462</ele>
        <time>2010-02-18T09:08:46Z</time>
      </trkpt>
      <trkpt lat="45.50491" lon="4.66791">
        <ele>462</ele>
        <time>2010-02-18T09:08:54Z</time>
      </trkpt>
      <trkpt lat="45.50499" lon="4.66787">
        <ele>462</ele>
        <time>2010-02-18T09:09:02Z</time>
      </trkpt>
      <trkpt lat="45.50507" lon="4.66783">
        <ele>457</ele>
        <time>2010-02-18T09:09:10Z</time>
      </trkpt>
      <trkpt lat="45.50515" lon="4.66779">
        <ele>456</ele>
        <time>2010-02-18T09:09:18Z</time>
      </trkpt>
      <trkpt lat="45.50523" lon="4.66775">
        <ele>456</ele>
        <time>2010-02-18T09:09:26Z</time>
      </trkpt>
      <trkpt lat="45.50524" lon="4.66775">
        <ele>456</ele>
        <time>2010-02-18T09:09:27Z</time>
      </trkpt>
      <trkpt lat="45.50539" lon="4.66768">
        <ele>455</ele>
        <time>2010-02-18T09:09:42Z</time>
      </trkpt>
      <trkpt lat="45.50547" lon="4.66766">
        <ele>454</ele>
        <time>2010-02-18T09:09:56Z</time>
      </trkpt>
      <trkpt lat="45.50552" lon="4.66775">
        <ele>454</ele>
        <time>2010-02-18T09:10:08Z</time>
      </trkpt>
      <trkpt lat="45.50554" lon="4.66787">
        <ele>453</ele>
        <time>2010-02-18T09:10:17Z</time>
      </trkpt>
      <trkpt lat="45.50554" lon="4.668">
        <ele>453</ele>
        <time>2010-02-18T09:10:26Z</time>
      </trkpt>
      <trkpt lat="45.50556" lon="4.66812">
        <ele>453</ele>
        <time>2010-02-18T09:10:34Z</time>
      </trkpt>
      <trkpt lat="45.50556" lon="4.66814">
        <ele>453</ele>
        <time>2010-02-18T09:10:35Z</time>
      </trkpt>
      <trkpt lat="45.50559" lon="4.66835">
        <ele>451</ele>
        <time>2010-02-18T09:10:48Z</time>
      </trkpt>
      <trkpt lat="45.50561" lon="4.66846">
        <ele>452</ele>
        <time>2010-02-18T09:10:55Z</time>
      </trkpt>
      <trkpt lat="45.50564" lon="4.66858">
        <ele>452</ele>
        <time>2010-02-18T09:11:02Z</time>
      </trkpt>
      <trkpt lat="45.50567" lon="4.66869">
        <ele>452</ele>
        <time>2010-02-18T09:11:09Z</time>
      </trkpt>
      <trkpt lat="45.50571" lon="4.66879">
        <ele>452</ele>
        <time>2010-02-18T09:11:16Z</time>
      </trkpt>
      <trkpt lat="45.50575" lon="4.66889">
        <ele>452</ele>
        <time>2010-02-18T09:11:23Z</time>
      </trkpt>
      <trkpt lat="45.50579" lon="4.66899">
        <ele>452</ele>
        <time>2010-02-18T09:11:30Z</time>
      </trkpt>
      <trkpt lat="45.50582" lon="4.6691">
        <ele>451</ele>
        <time>2010-02-18T09:11:37Z</time>
      </trkpt>
      <trkpt lat="45.50582" lon="4.66911">
        <ele>451</ele>
        <time>2010-02-18T09:11:38Z</time>
      </trkpt>
      <trkpt lat="45.50587" lon="4.66934">
        <ele>447</ele>
        <time>2010-02-18T09:11:53Z</time>
      </trkpt>
      <trkpt lat="45.5059" lon="4.66945">
        <ele>446</ele>
        <time>2010-02-18T09:12:01Z</time>
      </trkpt>
      <trkpt lat="45.50592" lon="4.66957">
        <ele>446</ele>
        <time>2010-02-18T09:12:09Z</time>
      </trkpt>
      <trkpt lat="45.50594" lon="4.66969">
        <ele>447</ele>
        <time>2010-02-18T09:12:19Z</time>
      </trkpt>
      <trkpt lat="45.50597" lon="4.6698">
        <ele>447</ele>
        <time>2010-02-18T09:12:28Z</time>
      </trkpt>
      <trkpt lat="45.506" lon="4.66992">
        <ele>448</ele>
        <time>2010-02-18T09:12:37Z</time>
      </trkpt>
      <trkpt lat="45.506" lon="4.67004">
        <ele>450</ele>
        <time>2010-02-18T09:12:45Z</time>
      </trkpt>
      <trkpt lat="45.506" lon="4.67006">
        <ele>450</ele>
        <time>2010-02-18T09:12:46Z</time>
      </trkpt>
      <trkpt lat="45.50602" lon="4.67027">
        <ele>449</ele>
        <time>2010-02-18T09:12:59Z</time>
      </trkpt>
      <trkpt lat="45.50604" lon="4.67039">
        <ele>448</ele>
        <time>2010-02-18T09:13:07Z</time>
      </trkpt>
      <trkpt lat="45.50605" lon="4.67051">
        <ele>449</ele>
        <time>2010-02-18T09:13:14Z</time>
      </trkpt>
      <trkpt lat="45.50608" lon="4.67062">
        <ele>449</ele>
        <time>2010-02-18T09:13:21Z</time>
      </trkpt>
      <trkpt lat="45.50608" lon="4.67074">
        <ele>450</ele>
        <time>2010-02-18T09:13:30Z</time>
      </trkpt>
      <trkpt lat="45.50609" lon="4.67086">
        <ele>451</ele>
        <time>2010-02-18T09:13:38Z</time>
      </trkpt>
      <trkpt lat="45.50609" lon="4.67098">
        <ele>450</ele>
        <time>2010-02-18T09:13:45Z</time>
      </trkpt>
      <trkpt lat="45.5061" lon="4.67109">
        <ele>450</ele>
        <time>2010-02-18T09:13:52Z</time>
      </trkpt>
      <trkpt lat="45.50611" lon="4.67111">
        <ele>450</ele>
        <time>2010-02-18T09:13:53Z</time>
      </trkpt>
      <trkpt lat="45.50618" lon="4.67133">
        <ele>449</ele>
        <time>2010-02-18T09:14:07Z</time>
      </trkpt>
      <trkpt lat="45.5062" lon="4.67145">
        <ele>449</ele>
        <time>2010-02-18T09:14:15Z</time>
      </trkpt>
      <trkpt lat="45.50621" lon="4.67157">
        <ele>449</ele>
        <time>2010-02-18T09:14:23Z</time>
      </trkpt>
      <trkpt lat="45.50621" lon="4.67168">
        <ele>449</ele>
        <time>2010-02-18T09:14:30Z</time>
      </trkpt>
      <trkpt lat="45.50619" lon="4.6718">
        <ele>449</ele>
        <time>2010-02-18T09:14:38Z</time>
      </trkpt>
      <trkpt lat="45.50615" lon="4.6719">
        <ele>449</ele>
        <time>2010-02-18T09:14:46Z</time>
      </trkpt>
      <trkpt lat="45.5061" lon="4.672">
        <ele>449</ele>
        <time>2010-02-18T09:14:53Z</time>
      </trkpt>
      <trkpt lat="45.5061" lon="4.67202">
        <ele>449</ele>
        <time>2010-02-18T09:14:54Z</time>
      </trkpt>
      <trkpt lat="45.50607" lon="4.67223">
        <ele>449</ele>
        <time>2010-02-18T09:15:07Z</time>
      </trkpt>
      <trkpt lat="45.50604" lon="4.67235">
        <ele>449</ele>
        <time>2010-02-18T09:15:14Z</time>
      </trkpt>
      <trkpt lat="45.50602" lon="4.67245">
        <ele>450</ele>
        <time>2010-02-18T09:15:21Z</time>
      </trkpt>
      <trkpt lat="45.50598" lon="4.67257">
        <ele>448</ele>
        <time>2010-02-18T09:15:29Z</time>
      </trkpt>
      <trkpt lat="45.50592" lon="4.67266">
        <ele>448</ele>
        <time>2010-02-18T09:15:36Z</time>
      </trkpt>
      <trkpt lat="45.50587" lon="4.67275">
        <ele>447</ele>
        <time>2010-02-18T09:15:43Z</time>
      </trkpt>
      <trkpt lat="45.50583" lon="4.67285">
        <ele>451</ele>
        <time>2010-02-18T09:15:50Z</time>
      </trkpt>
      <trkpt lat="45.50578" lon="4.67295">
        <ele>451</ele>
        <time>2010-02-18T09:15:59Z</time>
      </trkpt>
      <trkpt lat="45.50578" lon="4.67296">
        <ele>451</ele>
        <time>2010-02-18T09:16:00Z</time>
      </trkpt>
      <trkpt lat="45.50567" lon="4.67312">
        <ele>450</ele>
        <time>2010-02-18T09:16:14Z</time>
      </trkpt>
      <trkpt lat="45.50561" lon="4.67319">
        <ele>450</ele>
        <time>2010-02-18T09:16:22Z</time>
      </trkpt>
      <trkpt lat="45.50555" lon="4.67329">
        <ele>450</ele>
        <time>2010-02-18T09:16:33Z</time>
      </trkpt>
      <trkpt lat="45.50551" lon="4.6734">
        <ele>443</ele>
        <time>2010-02-18T09:16:43Z</time>
      </trkpt>
      <trkpt lat="45.50545" lon="4.6735">
        <ele>443</ele>
        <time>2010-02-18T09:16:52Z</time>
      </trkpt>
      <trkpt lat="45.50539" lon="4.67358">
        <ele>443</ele>
        <time>2010-02-18T09:17:00Z</time>
      </trkpt>
      <trkpt lat="45.50539" lon="4.67359">
        <ele>443</ele>
        <time>2010-02-18T09:17:01Z</time>
      </trkpt>
      <trkpt lat="45.50529" lon="4.67378">
        <ele>441</ele>
        <time>2010-02-18T09:17:21Z</time>
      </trkpt>
      <trkpt lat="45.50524" lon="4.67388">
        <ele>440</ele>
        <time>2010-02-18T09:17:33Z</time>
      </trkpt>
      <trkpt lat="45.50519" lon="4.67398">
        <ele>439</ele>
        <time>2010-02-18T09:17:46Z</time>
      </trkpt>
      <trkpt lat="45.50513" lon="4.67407">
        <ele>437</ele>
        <time>2010-02-18T09:18:01Z</time>
      </trkpt>
      <trkpt lat="45.50513" lon="4.67408">
        <ele>437</ele>
        <time>2010-02-18T09:18:02Z</time>
      </trkpt>
      <trkpt lat="45.50501" lon="4.67424">
        <ele>432</ele>
        <time>2010-02-18T09:18:28Z</time>
      </trkpt>
      <trkpt lat="45.50495" lon="4.67433">
        <ele>430</ele>
        <time>2010-02-18T09:18:39Z</time>
      </trkpt>
      <trkpt lat="45.5049" lon="4.67444">
        <ele>428</ele>
        <time>2010-02-18T09:18:51Z</time>
      </trkpt>
      <trkpt lat="45.50485" lon="4.67454">
        <ele>427</ele>
        <time>2010-02-18T09:19:02Z</time>
      </trkpt>
      <trkpt lat="45.50485" lon="4.67455">
        <ele>426</ele>
        <time>2010-02-18T09:19:03Z</time>
      </trkpt>
      <trkpt lat="45.50475" lon="4.67474">
        <ele>424</ele>
        <time>2010-02-18T09:19:22Z</time>
      </trkpt>
      <trkpt lat="45.5047" lon="4.67484">
        <ele>423</ele>
        <time>2010-02-18T09:19:31Z</time>
      </trkpt>
      <trkpt lat="45.50464" lon="4.67494">
        <ele>422</ele>
        <time>2010-02-18T09:19:41Z</time>
      </trkpt>
      <trkpt lat="45.50459" lon="4.67503">
        <ele>412</ele>
        <time>2010-02-18T09:19:50Z</time>
      </trkpt>
      <trkpt lat="45.50454" lon="4.67513">
        <ele>411</ele>
        <time>2010-02-18T09:19:58Z</time>
      </trkpt>
      <trkpt lat="45.50448" lon="4.6752">
        <ele>411</ele>
        <time>2010-02-18T09:20:09Z</time>
      </trkpt>
      <trkpt lat="45.50447" lon="4.6752">
        <ele>411</ele>
        <time>2010-02-18T09:20:10Z</time>
      </trkpt>
      <trkpt lat="45.50434" lon="4.67531">
        <ele>409</ele>
        <time>2010-02-18T09:20:29Z</time>
      </trkpt>
      <trkpt lat="45.50431" lon="4.67542">
        <ele>408</ele>
        <time>2010-02-18T09:20:40Z</time>
      </trkpt>
      <trkpt lat="45.50429" lon="4.67554">
        <ele>406</ele>
        <time>2010-02-18T09:20:51Z</time>
      </trkpt>
      <trkpt lat="45.50427" lon="4.67566">
        <ele>404</ele>
        <time>2010-02-18T09:21:02Z</time>
      </trkpt>
      <trkpt lat="45.50427" lon="4.67578">
        <ele>402</ele>
        <time>2010-02-18T09:21:11Z</time>
      </trkpt>
      <trkpt lat="45.50428" lon="4.67579">
        <ele>402</ele>
        <time>2010-02-18T09:21:12Z</time>
      </trkpt>
      <trkpt lat="45.50433" lon="4.67601">
        <ele>398</ele>
        <time>2010-02-18T09:21:34Z</time>
      </trkpt>
      <trkpt lat="45.50438" lon="4.67612">
        <ele>398</ele>
        <time>2010-02-18T09:21:47Z</time>
      </trkpt>
      <trkpt lat="45.50441" lon="4.67623">
        <ele>398</ele>
        <time>2010-02-18T09:22:00Z</time>
      </trkpt>
      <trkpt lat="45.50443" lon="4.67636">
        <ele>397</ele>
        <time>2010-02-18T09:22:13Z</time>
      </trkpt>
      <trkpt lat="45.50443" lon="4.67637">
        <ele>397</ele>
        <time>2010-02-18T09:22:14Z</time>
      </trkpt>
      <trkpt lat="45.50453" lon="4.67656">
        <ele>396</ele>
        <time>2010-02-18T09:22:37Z</time>
      </trkpt>
      <trkpt lat="45.50455" lon="4.67668">
        <ele>392</ele>
        <time>2010-02-18T09:22:48Z</time>
      </trkpt>
      <trkpt lat="45.50461" lon="4.67677">
        <ele>392</ele>
        <time>2010-02-18T09:23:11Z</time>
      </trkpt>
      <trkpt lat="45.50467" lon="4.67685">
        <ele>392</ele>
        <time>2010-02-18T09:24:21Z</time>
      </trkpt>
      <trkpt lat="45.50468" lon="4.67687">
        <ele>392</ele>
        <time>2010-02-18T09:24:22Z</time>
      </trkpt>
      <trkpt lat="45.50471" lon="4.67708">
        <ele>392</ele>
        <time>2010-02-18T09:25:11Z</time>
      </trkpt>
      <trkpt lat="45.50474" lon="4.6772">
        <ele>392</ele>
        <time>2010-02-18T09:25:22Z</time>
      </trkpt>
      <trkpt lat="45.50475" lon="4.6772">
        <ele>392</ele>
        <time>2010-02-18T09:25:23Z</time>
      </trkpt>
      <trkpt lat="45.50489" lon="4.67729">
        <ele>391</ele>
        <time>2010-02-18T09:25:45Z</time>
      </trkpt>
      <trkpt lat="45.50497" lon="4.67735">
        <ele>390</ele>
        <time>2010-02-18T09:25:57Z</time>
      </trkpt>
      <trkpt lat="45.50495" lon="4.67747">
        <ele>389</ele>
        <time>2010-02-18T09:26:15Z</time>
      </trkpt>
      <trkpt lat="45.50492" lon="4.67759">
        <ele>391</ele>
        <time>2010-02-18T09:26:30Z</time>
      </trkpt>
      <trkpt lat="45.50492" lon="4.6776">
        <ele>391</ele>
        <time>2010-02-18T09:26:31Z</time>
      </trkpt>
      <trkpt lat="45.50488" lon="4.67783">
        <ele>395</ele>
        <time>2010-02-18T09:27:03Z</time>
      </trkpt>
      <trkpt lat="45.50484" lon="4.67795">
        <ele>396</ele>
        <time>2010-02-18T09:27:19Z</time>
      </trkpt>
      <trkpt lat="45.50484" lon="4.67807">
        <ele>397</ele>
        <time>2010-02-18T09:27:34Z</time>
      </trkpt>
      <trkpt lat="45.50484" lon="4.67808">
        <ele>397</ele>
        <time>2010-02-18T09:27:35Z</time>
      </trkpt>
      <trkpt lat="45.50479" lon="4.67832">
        <ele>398</ele>
        <time>2010-02-18T09:28:06Z</time>
      </trkpt>
      <trkpt lat="45.50476" lon="4.67844">
        <ele>403</ele>
        <time>2010-02-18T09:28:19Z</time>
      </trkpt>
      <trkpt lat="45.50473" lon="4.67855">
        <ele>404</ele>
        <time>2010-02-18T09:28:32Z</time>
      </trkpt>
      <trkpt lat="45.5047" lon="4.67867">
        <ele>405</ele>
        <time>2010-02-18T09:28:41Z</time>
      </trkpt>
      <trkpt lat="45.5047" lon="4.67869">
        <ele>405</ele>
        <time>2010-02-18T09:28:42Z</time>
      </trkpt>
      <trkpt lat="45.50466" lon="4.67891">
        <ele>406</ele>
        <time>2010-02-18T09:29:01Z</time>
      </trkpt>
      <trkpt lat="45.50464" lon="4.67903">
        <ele>407</ele>
        <time>2010-02-18T09:29:12Z</time>
      </trkpt>
      <trkpt lat="45.50463" lon="4.67915">
        <ele>407</ele>
        <time>2010-02-18T09:29:24Z</time>
      </trkpt>
      <trkpt lat="45.5046" lon="4.67927">
        <ele>413</ele>
        <time>2010-02-18T09:29:37Z</time>
      </trkpt>
      <trkpt lat="45.50456" lon="4.67938">
        <ele>413</ele>
        <time>2010-02-18T09:30:14Z</time>
      </trkpt>
      <trkpt lat="45.50456" lon="4.67939">
        <ele>413</ele>
        <time>2010-02-18T09:30:15Z</time>
      </trkpt>
      <trkpt lat="45.50454" lon="4.67962">
        <ele>414</ele>
        <time>2010-02-18T09:30:37Z</time>
      </trkpt>
      <trkpt lat="45.50452" lon="4.67973">
        <ele>415</ele>
        <time>2010-02-18T09:30:46Z</time>
      </trkpt>
      <trkpt lat="45.50449" lon="4.67984">
        <ele>416</ele>
        <time>2010-02-18T09:30:55Z</time>
      </trkpt>
      <trkpt lat="45.50447" lon="4.67996">
        <ele>416</ele>
        <time>2010-02-18T09:31:04Z</time>
      </trkpt>
      <trkpt lat="45.50446" lon="4.68007">
        <ele>418</ele>
        <time>2010-02-18T09:31:13Z</time>
      </trkpt>
      <trkpt lat="45.50443" lon="4.68019">
        <ele>418</ele>
        <time>2010-02-18T09:31:22Z</time>
      </trkpt>
      <trkpt lat="45.50443" lon="4.6802">
        <ele>418</ele>
        <time>2010-02-18T09:31:23Z</time>
      </trkpt>
      <trkpt lat="45.50436" lon="4.68041">
        <ele>418</ele>
        <time>2010-02-18T09:31:41Z</time>
      </trkpt>
      <trkpt lat="45.50433" lon="4.68052">
        <ele>419</ele>
        <time>2010-02-18T09:31:50Z</time>
      </trkpt>
      <trkpt lat="45.50429" lon="4.68063">
        <ele>419</ele>
        <time>2010-02-18T09:31:58Z</time>
      </trkpt>
      <trkpt lat="45.50425" lon="4.68074">
        <ele>420</ele>
        <time>2010-02-18T09:32:07Z</time>
      </trkpt>
      <trkpt lat="45.50419" lon="4.68084">
        <ele>421</ele>
        <time>2010-02-18T09:32:16Z</time>
      </trkpt>
      <trkpt lat="45.50414" lon="4.68094">
        <ele>423</ele>
        <time>2010-02-18T09:32:24Z</time>
      </trkpt>
      <trkpt lat="45.50413" lon="4.68095">
        <ele>423</ele>
        <time>2010-02-18T09:32:25Z</time>
      </trkpt>
      <trkpt lat="45.50408" lon="4.68116">
        <ele>423</ele>
        <time>2010-02-18T09:32:42Z</time>
      </trkpt>
      <trkpt lat="45.50402" lon="4.68126">
        <ele>423</ele>
        <time>2010-02-18T09:32:50Z</time>
      </trkpt>
      <trkpt lat="45.50398" lon="4.68136">
        <ele>423</ele>
        <time>2010-02-18T09:32:58Z</time>
      </trkpt>
      <trkpt lat="45.50395" lon="4.68147">
        <ele>422</ele>
        <time>2010-02-18T09:33:05Z</time>
      </trkpt>
      <trkpt lat="45.5039" lon="4.68157">
        <ele>422</ele>
        <time>2010-02-18T09:33:12Z</time>
      </trkpt>
      <trkpt lat="45.50385" lon="4.68167">
        <ele>423</ele>
        <time>2010-02-18T09:33:19Z</time>
      </trkpt>
      <trkpt lat="45.50381" lon="4.68177">
        <ele>423</ele>
        <time>2010-02-18T09:33:27Z</time>
      </trkpt>
      <trkpt lat="45.5038" lon="4.68178">
        <ele>423</ele>
        <time>2010-02-18T09:33:28Z</time>
      </trkpt>
      <trkpt lat="45.5037" lon="4.68196">
        <ele>423</ele>
        <time>2010-02-18T09:33:43Z</time>
      </trkpt>
      <trkpt lat="45.5037" lon="4.68208">
        <ele>423</ele>
        <time>2010-02-18T09:33:51Z</time>
      </trkpt>
      <trkpt lat="45.50373" lon="4.6822">
        <ele>423</ele>
        <time>2010-02-18T09:33:58Z</time>
      </trkpt>
      <trkpt lat="45.50379" lon="4.68229">
        <ele>423</ele>
        <time>2010-02-18T09:34:06Z</time>
      </trkpt>
      <trkpt lat="45.50385" lon="4.68237">
        <ele>422</ele>
        <time>2010-02-18T09:34:17Z</time>
      </trkpt>
      <trkpt lat="45.50392" lon="4.68244">
        <ele>422</ele>
        <time>2010-02-18T09:34:27Z</time>
      </trkpt>
      <trkpt lat="45.50397" lon="4.68254">
        <ele>423</ele>
        <time>2010-02-18T09:34:36Z</time>
      </trkpt>
      <trkpt lat="45.50398" lon="4.68255">
        <ele>423</ele>
        <time>2010-02-18T09:34:37Z</time>
      </trkpt>
      <trkpt lat="45.50408" lon="4.68272">
        <ele>424</ele>
        <time>2010-02-18T09:34:54Z</time>
      </trkpt>
      <trkpt lat="45.50414" lon="4.68282">
        <ele>425</ele>
        <time>2010-02-18T09:35:03Z</time>
      </trkpt>
      <trkpt lat="45.5042" lon="4.68291">
        <ele>422</ele>
        <time>2010-02-18T09:35:13Z</time>
      </trkpt>
      <trkpt lat="45.50425" lon="4.683">
        <ele>423</ele>
        <time>2010-02-18T09:35:22Z</time>
      </trkpt>
      <trkpt lat="45.5043" lon="4.6831">
        <ele>423</ele>
        <time>2010-02-18T09:35:30Z</time>
      </trkpt>
      <trkpt lat="45.50435" lon="4.6832">
        <ele>424</ele>
        <time>2010-02-18T09:35:39Z</time>
      </trkpt>
      <trkpt lat="45.50435" lon="4.68321">
        <ele>424</ele>
        <time>2010-02-18T09:35:40Z</time>
      </trkpt>
      <trkpt lat="45.50443" lon="4.68342">
        <ele>427</ele>
        <time>2010-02-18T09:35:57Z</time>
      </trkpt>
      <trkpt lat="45.50446" lon="4.68353">
        <ele>428</ele>
        <time>2010-02-18T09:36:06Z</time>
      </trkpt>
      <trkpt lat="45.50449" lon="4.68365">
        <ele>428</ele>
        <time>2010-02-18T09:36:15Z</time>
      </trkpt>
      <trkpt lat="45.50452" lon="4.68376">
        <ele>428</ele>
        <time>2010-02-18T09:36:24Z</time>
      </trkpt>
      <trkpt lat="45.50454" lon="4.68388">
        <ele>428</ele>
        <time>2010-02-18T09:36:33Z</time>
      </trkpt>
      <trkpt lat="45.50455" lon="4.684">
        <ele>429</ele>
        <time>2010-02-18T09:36:41Z</time>
      </trkpt>
      <trkpt lat="45.50455" lon="4.68402">
        <ele>429</ele>
        <time>2010-02-18T09:36:42Z</time>
      </trkpt>
      <trkpt lat="45.50458" lon="4.68424">
        <ele>433</ele>
        <time>2010-02-18T09:36:58Z</time>
      </trkpt>
      <trkpt lat="45.50459" lon="4.68436">
        <ele>434</ele>
        <time>2010-02-18T09:37:06Z</time>
      </trkpt>
      <trkpt lat="45.5046" lon="4.68448">
        <ele>434</ele>
        <time>2010-02-18T09:37:15Z</time>
      </trkpt>
      <trkpt lat="45.50461" lon="4.6846">
        <ele>434</ele>
        <time>2010-02-18T09:37:23Z</time>
      </trkpt>
      <trkpt lat="45.5046" lon="4.68472">
        <ele>435</ele>
        <time>2010-02-18T09:37:32Z</time>
      </trkpt>
      <trkpt lat="45.50458" lon="4.68484">
        <ele>435</ele>
        <time>2010-02-18T09:37:40Z</time>
      </trkpt>
      <trkpt lat="45.50456" lon="4.68496">
        <ele>436</ele>
        <time>2010-02-18T09:37:49Z</time>
      </trkpt>
      <trkpt lat="45.50455" lon="4.68497">
        <ele>436</ele>
        <time>2010-02-18T09:37:50Z</time>
      </trkpt>
      <trkpt lat="45.50451" lon="4.6852">
        <ele>441</ele>
        <time>2010-02-18T09:38:05Z</time>
      </trkpt>
      <trkpt lat="45.50449" lon="4.68532">
        <ele>441</ele>
        <time>2010-02-18T09:38:13Z</time>
      </trkpt>
      <trkpt lat="45.50447" lon="4.68544">
        <ele>442</ele>
        <time>2010-02-18T09:38:22Z</time>
      </trkpt>
      <trkpt lat="45.50446" lon="4.68556">
        <ele>442</ele>
        <time>2010-02-18T09:38:30Z</time>
      </trkpt>
      <trkpt lat="45.50445" lon="4.68568">
        <ele>443</ele>
        <time>2010-02-18T09:38:38Z</time>
      </trkpt>
      <trkpt lat="45.50447" lon="4.68579">
        <ele>443</ele>
        <time>2010-02-18T09:38:46Z</time>
      </trkpt>
      <trkpt lat="45.5045" lon="4.6859">
        <ele>446</ele>
        <time>2010-02-18T09:38:55Z</time>
      </trkpt>
      <trkpt lat="45.50451" lon="4.68591">
        <ele>446</ele>
        <time>2010-02-18T09:38:56Z</time>
      </trkpt>
      <trkpt lat="45.50461" lon="4.6861">
        <ele>446</ele>
        <time>2010-02-18T09:39:17Z</time>
      </trkpt>
      <trkpt lat="45.50467" lon="4.68618">
        <ele>446</ele>
        <time>2010-02-18T09:39:26Z</time>
      </trkpt>
      <trkpt lat="45.50475" lon="4.68626">
        <ele>446</ele>
        <time>2010-02-18T09:39:34Z</time>
      </trkpt>
      <trkpt lat="45.50481" lon="4.68634">
        <ele>446</ele>
        <time>2010-02-18T09:39:43Z</time>
      </trkpt>
      <trkpt lat="45.50488" lon="4.68641">
        <ele>446</ele>
        <time>2010-02-18T09:39:51Z</time>
      </trkpt>
      <trkpt lat="45.50495" lon="4.68648">
        <ele>446</ele>
        <time>2010-02-18T09:39:59Z</time>
      </trkpt>
      <trkpt lat="45.50495" lon="4.68649">
        <ele>446</ele>
        <time>2010-02-18T09:40:00Z</time>
      </trkpt>
      <trkpt lat="45.50506" lon="4.68667">
        <ele>446</ele>
        <time>2010-02-18T09:40:29Z</time>
      </trkpt>
      <trkpt lat="45.50498" lon="4.68661">
        <ele>446</ele>
        <time>2010-02-18T09:51:06Z</time>
      </trkpt>
      <trkpt lat="45.50497" lon="4.68659">
        <ele>446</ele>
        <time>2010-02-18T09:51:07Z</time>
      </trkpt>
      <trkpt lat="45.50485" lon="4.68644">
        <ele>446</ele>
        <time>2010-02-18T09:51:48Z</time>
      </trkpt>
      <trkpt lat="45.50492" lon="4.68652">
        <ele>446</ele>
        <time>2010-02-18T09:53:31Z</time>
      </trkpt>
      <trkpt lat="45.50493" lon="4.68654">
        <ele>446</ele>
        <time>2010-02-18T09:53:32Z</time>
      </trkpt>
      <trkpt lat="45.50504" lon="4.68668">
        <ele>446</ele>
        <time>2010-02-18T09:53:50Z</time>
      </trkpt>
      <trkpt lat="45.50508" lon="4.68679">
        <ele>447</ele>
        <time>2010-02-18T09:54:00Z</time>
      </trkpt>
      <trkpt lat="45.50505" lon="4.68668">
        <ele>446</ele>
        <time>2010-02-18T09:54:53Z</time>
      </trkpt>
      <trkpt lat="45.50503" lon="4.68668">
        <ele>446</ele>
        <time>2010-02-18T09:54:54Z</time>
      </trkpt>
      <trkpt lat="45.50511" lon="4.68657">
        <ele>444</ele>
        <time>2010-02-18T09:58:01Z</time>
      </trkpt>
      <trkpt lat="45.5052" lon="4.68638">
        <ele>443</ele>
        <time>2010-02-18T09:58:20Z</time>
      </trkpt>
      <trkpt lat="45.50524" lon="4.68627">
        <ele>442</ele>
        <time>2010-02-18T09:58:30Z</time>
      </trkpt>
      <trkpt lat="45.5053" lon="4.68618">
        <ele>442</ele>
        <time>2010-02-18T09:58:37Z</time>
      </trkpt>
      <trkpt lat="45.50534" lon="4.68608">
        <ele>442</ele>
        <time>2010-02-18T09:58:44Z</time>
      </trkpt>
      <trkpt lat="45.50539" lon="4.68599">
        <ele>441</ele>
        <time>2010-02-18T09:58:51Z</time>
      </trkpt>
      <trkpt lat="45.50545" lon="4.6859">
        <ele>441</ele>
        <time>2010-02-18T09:58:59Z</time>
      </trkpt>
      <trkpt lat="45.5055" lon="4.6858">
        <ele>436</ele>
        <time>2010-02-18T09:59:06Z</time>
      </trkpt>
      <trkpt lat="45.50551" lon="4.68579">
        <ele>436</ele>
        <time>2010-02-18T09:59:07Z</time>
      </trkpt>
      <trkpt lat="45.50561" lon="4.68562">
        <ele>436</ele>
        <time>2010-02-18T09:59:23Z</time>
      </trkpt>
      <trkpt lat="45.50564" lon="4.68551">
        <ele>435</ele>
        <time>2010-02-18T09:59:30Z</time>
      </trkpt>
      <trkpt lat="45.50566" lon="4.68539">
        <ele>435</ele>
        <time>2010-02-18T09:59:38Z</time>
      </trkpt>
      <trkpt lat="45.50569" lon="4.68528">
        <ele>434</ele>
        <time>2010-02-18T09:59:45Z</time>
      </trkpt>
      <trkpt lat="45.5057" lon="4.68515">
        <ele>433</ele>
        <time>2010-02-18T09:59:56Z</time>
      </trkpt>
      <trkpt lat="45.50571" lon="4.68503">
        <ele>432</ele>
        <time>2010-02-18T10:00:04Z</time>
      </trkpt>
      <trkpt lat="45.50575" lon="4.68493">
        <ele>429</ele>
        <time>2010-02-18T10:00:13Z</time>
      </trkpt>
      <trkpt lat="45.50575" lon="4.68492">
        <ele>429</ele>
        <time>2010-02-18T10:00:14Z</time>
      </trkpt>
      <trkpt lat="45.50579" lon="4.68469">
        <ele>428</ele>
        <time>2010-02-18T10:00:30Z</time>
      </trkpt>
      <trkpt lat="45.50581" lon="4.68458">
        <ele>427</ele>
        <time>2010-02-18T10:00:40Z</time>
      </trkpt>
      <trkpt lat="45.50583" lon="4.68445">
        <ele>426</ele>
        <time>2010-02-18T10:00:50Z</time>
      </trkpt>
      <trkpt lat="45.50584" lon="4.68439">
        <ele>424</ele>
        <time>2010-02-18T10:00:56Z</time>
      </trkpt>
      <trkpt lat="45.50586" lon="4.68427">
        <ele>423</ele>
        <time>2010-02-18T10:01:05Z</time>
      </trkpt>
      <trkpt lat="45.50588" lon="4.68415">
        <ele>421</ele>
        <time>2010-02-18T10:01:14Z</time>
      </trkpt>
      <trkpt lat="45.50588" lon="4.68414">
        <ele>421</ele>
        <time>2010-02-18T10:01:15Z</time>
      </trkpt>
      <trkpt lat="45.50593" lon="4.68392">
        <ele>419</ele>
        <time>2010-02-18T10:01:32Z</time>
      </trkpt>
      <trkpt lat="45.50596" lon="4.6838">
        <ele>418</ele>
        <time>2010-02-18T10:01:41Z</time>
      </trkpt>
      <trkpt lat="45.50598" lon="4.68368">
        <ele>418</ele>
        <time>2010-02-18T10:01:50Z</time>
      </trkpt>
      <trkpt lat="45.50598" lon="4.68356">
        <ele>417</ele>
        <time>2010-02-18T10:01:58Z</time>
      </trkpt>
      <trkpt lat="45.506" lon="4.68344">
        <ele>416</ele>
        <time>2010-02-18T10:02:07Z</time>
      </trkpt>
      <trkpt lat="45.50602" lon="4.68332">
        <ele>414</ele>
        <time>2010-02-18T10:02:17Z</time>
      </trkpt>
      <trkpt lat="45.50602" lon="4.68331">
        <ele>414</ele>
        <time>2010-02-18T10:02:18Z</time>
      </trkpt>
      <trkpt lat="45.50606" lon="4.68309">
        <ele>413</ele>
        <time>2010-02-18T10:02:35Z</time>
      </trkpt>
      <trkpt lat="45.50608" lon="4.68297">
        <ele>413</ele>
        <time>2010-02-18T10:02:45Z</time>
      </trkpt>
      <trkpt lat="45.5061" lon="4.68284">
        <ele>412</ele>
        <time>2010-02-18T10:02:54Z</time>
      </trkpt>
      <trkpt lat="45.5061" lon="4.68272">
        <ele>412</ele>
        <time>2010-02-18T10:03:03Z</time>
      </trkpt>
      <trkpt lat="45.50611" lon="4.68259">
        <ele>411</ele>
        <time>2010-02-18T10:03:13Z</time>
      </trkpt>
      <trkpt lat="45.50612" lon="4.68247">
        <ele>409</ele>
        <time>2010-02-18T10:03:24Z</time>
      </trkpt>
      <trkpt lat="45.50612" lon="4.68246">
        <ele>409</ele>
        <time>2010-02-18T10:03:25Z</time>
      </trkpt>
      <trkpt lat="45.50615" lon="4.68223">
        <ele>408</ele>
        <time>2010-02-18T10:03:40Z</time>
      </trkpt>
      <trkpt lat="45.50617" lon="4.68211">
        <ele>408</ele>
        <time>2010-02-18T10:03:48Z</time>
      </trkpt>
      <trkpt lat="45.50619" lon="4.68199">
        <ele>408</ele>
        <time>2010-02-18T10:03:56Z</time>
      </trkpt>
      <trkpt lat="45.5062" lon="4.68188">
        <ele>408</ele>
        <time>2010-02-18T10:04:04Z</time>
      </trkpt>
      <trkpt lat="45.50622" lon="4.68176">
        <ele>407</ele>
        <time>2010-02-18T10:04:11Z</time>
      </trkpt>
      <trkpt lat="45.50621" lon="4.68164">
        <ele>404</ele>
        <time>2010-02-18T10:04:19Z</time>
      </trkpt>
      <trkpt lat="45.50626" lon="4.68155">
        <ele>404</ele>
        <time>2010-02-18T10:04:29Z</time>
      </trkpt>
      <trkpt lat="45.50626" lon="4.68153">
        <ele>404</ele>
        <time>2010-02-18T10:04:30Z</time>
      </trkpt>
      <trkpt lat="45.5063" lon="4.68132">
        <ele>404</ele>
        <time>2010-02-18T10:04:43Z</time>
      </trkpt>
      <trkpt lat="45.50632" lon="4.68119">
        <ele>403</ele>
        <time>2010-02-18T10:04:53Z</time>
      </trkpt>
      <trkpt lat="45.50635" lon="4.68108">
        <ele>403</ele>
        <time>2010-02-18T10:05:00Z</time>
      </trkpt>
      <trkpt lat="45.50638" lon="4.68096">
        <ele>402</ele>
        <time>2010-02-18T10:05:10Z</time>
      </trkpt>
      <trkpt lat="45.50642" lon="4.68085">
        <ele>401</ele>
        <time>2010-02-18T10:05:18Z</time>
      </trkpt>
      <trkpt lat="45.50647" lon="4.68076">
        <ele>399</ele>
        <time>2010-02-18T10:05:25Z</time>
      </trkpt>
      <trkpt lat="45.50652" lon="4.68066">
        <ele>399</ele>
        <time>2010-02-18T10:05:34Z</time>
      </trkpt>
      <trkpt lat="45.50652" lon="4.68065">
        <ele>399</ele>
        <time>2010-02-18T10:05:35Z</time>
      </trkpt>
      <trkpt lat="45.50664" lon="4.68049">
        <ele>398</ele>
        <time>2010-02-18T10:05:58Z</time>
      </trkpt>
      <trkpt lat="45.50669" lon="4.68039">
        <ele>397</ele>
        <time>2010-02-18T10:06:04Z</time>
      </trkpt>
      <trkpt lat="45.50674" lon="4.6803">
        <ele>396</ele>
        <time>2010-02-18T10:06:11Z</time>
      </trkpt>
      <trkpt lat="45.50678" lon="4.68019">
        <ele>396</ele>
        <time>2010-02-18T10:06:18Z</time>
      </trkpt>
      <trkpt lat="45.50683" lon="4.68009">
        <ele>395</ele>
        <time>2010-02-18T10:06:27Z</time>
      </trkpt>
      <trkpt lat="45.50689" lon="4.67999">
        <ele>391</ele>
        <time>2010-02-18T10:06:35Z</time>
      </trkpt>
      <trkpt lat="45.50689" lon="4.67998">
        <ele>391</ele>
        <time>2010-02-18T10:06:36Z</time>
      </trkpt>
      <trkpt lat="45.50699" lon="4.6798">
        <ele>391</ele>
        <time>2010-02-18T10:06:50Z</time>
      </trkpt>
      <trkpt lat="45.50703" lon="4.67971">
        <ele>391</ele>
        <time>2010-02-18T10:06:57Z</time>
      </trkpt>
      <trkpt lat="45.50708" lon="4.6796">
        <ele>391</ele>
        <time>2010-02-18T10:07:05Z</time>
      </trkpt>
      <trkpt lat="45.50711" lon="4.67949">
        <ele>391</ele>
        <time>2010-02-18T10:07:14Z</time>
      </trkpt>
      <trkpt lat="45.50713" lon="4.67938">
        <ele>390</ele>
        <time>2010-02-18T10:07:22Z</time>
      </trkpt>
      <trkpt lat="45.50717" lon="4.67928">
        <ele>390</ele>
        <time>2010-02-18T10:07:29Z</time>
      </trkpt>
      <trkpt lat="45.5072" lon="4.67916">
        <ele>385</ele>
        <time>2010-02-18T10:07:38Z</time>
      </trkpt>
      <trkpt lat="45.5072" lon="4.67914">
        <ele>385</ele>
        <time>2010-02-18T10:07:39Z</time>
      </trkpt>
      <trkpt lat="45.50726" lon="4.67894">
        <ele>384</ele>
        <time>2010-02-18T10:07:52Z</time>
      </trkpt>
      <trkpt lat="45.5073" lon="4.67883">
        <ele>384</ele>
        <time>2010-02-18T10:08:01Z</time>
      </trkpt>
      <trkpt lat="45.50734" lon="4.67872">
        <ele>383</ele>
        <time>2010-02-18T10:08:10Z</time>
      </trkpt>
      <trkpt lat="45.50736" lon="4.67861">
        <ele>382</ele>
        <time>2010-02-18T10:08:19Z</time>
      </trkpt>
      <trkpt lat="45.5074" lon="4.6785">
        <ele>380</ele>
        <time>2010-02-18T10:08:27Z</time>
      </trkpt>
      <trkpt lat="45.50745" lon="4.67839">
        <ele>378</ele>
        <time>2010-02-18T10:08:34Z</time>
      </trkpt>
      <trkpt lat="45.50747" lon="4.67828">
        <ele>376</ele>
        <time>2010-02-18T10:08:40Z</time>
      </trkpt>
      <trkpt lat="45.50748" lon="4.67826">
        <ele>376</ele>
        <time>2010-02-18T10:08:41Z</time>
      </trkpt>
      <trkpt lat="45.50751" lon="4.67805">
        <ele>375</ele>
        <time>2010-02-18T10:08:56Z</time>
      </trkpt>
      <trkpt lat="45.50754" lon="4.67793">
        <ele>374</ele>
        <time>2010-02-18T10:09:04Z</time>
      </trkpt>
      <trkpt lat="45.50751" lon="4.67781">
        <ele>373</ele>
        <time>2010-02-18T10:09:11Z</time>
      </trkpt>
      <trkpt lat="45.50751" lon="4.67769">
        <ele>372</ele>
        <time>2010-02-18T10:10:15Z</time>
      </trkpt>
      <trkpt lat="45.50751" lon="4.67768">
        <ele>372</ele>
        <time>2010-02-18T10:10:16Z</time>
      </trkpt>
      <trkpt lat="45.50757" lon="4.67747">
        <ele>372</ele>
        <time>2010-02-18T10:10:44Z</time>
      </trkpt>
      <trkpt lat="45.50765" lon="4.67747">
        <ele>373</ele>
        <time>2010-02-18T10:10:56Z</time>
      </trkpt>
      <trkpt lat="45.50773" lon="4.67745">
        <ele>373</ele>
        <time>2010-02-18T10:11:06Z</time>
      </trkpt>
      <trkpt lat="45.50782" lon="4.67745">
        <ele>374</ele>
        <time>2010-02-18T10:11:18Z</time>
      </trkpt>
      <trkpt lat="45.50782" lon="4.67745">
        <ele>374</ele>
        <time>2010-02-18T10:11:19Z</time>
      </trkpt>
      <trkpt lat="45.50799" lon="4.67743">
        <ele>374</ele>
        <time>2010-02-18T10:11:42Z</time>
      </trkpt>
      <trkpt lat="45.50807" lon="4.6774">
        <ele>373</ele>
        <time>2010-02-18T10:11:51Z</time>
      </trkpt>
      <trkpt lat="45.50816" lon="4.67738">
        <ele>373</ele>
        <time>2010-02-18T10:12:02Z</time>
      </trkpt>
      <trkpt lat="45.50825" lon="4.67737">
        <ele>372</ele>
        <time>2010-02-18T10:12:13Z</time>
      </trkpt>
      <trkpt lat="45.50833" lon="4.67737">
        <ele>372</ele>
        <time>2010-02-18T10:12:23Z</time>
      </trkpt>
      <trkpt lat="45.50834" lon="4.67736">
        <ele>371</ele>
        <time>2010-02-18T10:12:24Z</time>
      </trkpt>
      <trkpt lat="45.5085" lon="4.67735">
        <ele>371</ele>
        <time>2010-02-18T10:12:42Z</time>
      </trkpt>
      <trkpt lat="45.50859" lon="4.67735">
        <ele>371</ele>
        <time>2010-02-18T10:12:52Z</time>
      </trkpt>
      <trkpt lat="45.50867" lon="4.67735">
        <ele>371</ele>
        <time>2010-02-18T10:13:03Z</time>
      </trkpt>
      <trkpt lat="45.50876" lon="4.67736">
        <ele>371</ele>
        <time>2010-02-18T10:13:13Z</time>
      </trkpt>
      <trkpt lat="45.50884" lon="4.67734">
        <ele>371</ele>
        <time>2010-02-18T10:13:21Z</time>
      </trkpt>
      <trkpt lat="45.50893" lon="4.67733">
        <ele>371</ele>
        <time>2010-02-18T10:13:30Z</time>
      </trkpt>
      <trkpt lat="45.50894" lon="4.67733">
        <ele>371</ele>
        <time>2010-02-18T10:13:31Z</time>
      </trkpt>
      <trkpt lat="45.5091" lon="4.6773">
        <ele>370</ele>
        <time>2010-02-18T10:13:47Z</time>
      </trkpt>
      <trkpt lat="45.50918" lon="4.6773">
        <ele>369</ele>
        <time>2010-02-18T10:13:54Z</time>
      </trkpt>
      <trkpt lat="45.50926" lon="4.67726">
        <ele>369</ele>
        <time>2010-02-18T10:14:01Z</time>
      </trkpt>
      <trkpt lat="45.50934" lon="4.67724">
        <ele>369</ele>
        <time>2010-02-18T10:14:08Z</time>
      </trkpt>
      <trkpt lat="45.50942" lon="4.67723">
        <ele>369</ele>
        <time>2010-02-18T10:14:15Z</time>
      </trkpt>
      <trkpt lat="45.5095" lon="4.67719">
        <ele>369</ele>
        <time>2010-02-18T10:14:21Z</time>
      </trkpt>
      <trkpt lat="45.50957" lon="4.67716">
        <ele>369</ele>
        <time>2010-02-18T10:14:27Z</time>
      </trkpt>
      <trkpt lat="45.50966" lon="4.67714">
        <ele>369</ele>
        <time>2010-02-18T10:14:34Z</time>
      </trkpt>
      <trkpt lat="45.50967" lon="4.67713">
        <ele>369</ele>
        <time>2010-02-18T10:14:35Z</time>
      </trkpt>
      <trkpt lat="45.50981" lon="4.67701">
        <ele>369</ele>
        <time>2010-02-18T10:14:51Z</time>
      </trkpt>
      <trkpt lat="45.50989" lon="4.67696">
        <ele>370</ele>
        <time>2010-02-18T10:15:05Z</time>
      </trkpt>
      <trkpt lat="45.50997" lon="4.67695">
        <ele>370</ele>
        <time>2010-02-18T10:15:15Z</time>
      </trkpt>
      <trkpt lat="45.51006" lon="4.67692">
        <ele>367</ele>
        <time>2010-02-18T10:15:23Z</time>
      </trkpt>
      <trkpt lat="45.51014" lon="4.67689">
        <ele>367</ele>
        <time>2010-02-18T10:15:31Z</time>
      </trkpt>
      <trkpt lat="45.51023" lon="4.67687">
        <ele>367</ele>
        <time>2010-02-18T10:15:39Z</time>
      </trkpt>
      <trkpt lat="45.51024" lon="4.67687">
        <ele>367</ele>
        <time>2010-02-18T10:15:40Z</time>
      </trkpt>
      <trkpt lat="45.5104" lon="4.67682">
        <ele>366</ele>
        <time>2010-02-18T10:15:53Z</time>
      </trkpt>
      <trkpt lat="45.51048" lon="4.67678">
        <ele>365</ele>
        <time>2010-02-18T10:16:01Z</time>
      </trkpt>
      <trkpt lat="45.51055" lon="4.67675">
        <ele>365</ele>
        <time>2010-02-18T10:16:09Z</time>
      </trkpt>
      <trkpt lat="45.51063" lon="4.67671">
        <ele>364</ele>
        <time>2010-02-18T10:16:16Z</time>
      </trkpt>
      <trkpt lat="45.51071" lon="4.67668">
        <ele>364</ele>
        <time>2010-02-18T10:16:23Z</time>
      </trkpt>
      <trkpt lat="45.51079" lon="4.67665">
        <ele>365</ele>
        <time>2010-02-18T10:16:30Z</time>
      </trkpt>
      <trkpt lat="45.51088" lon="4.67661">
        <ele>364</ele>
        <time>2010-02-18T10:16:37Z</time>
      </trkpt>
      <trkpt lat="45.51096" lon="4.67658">
        <ele>365</ele>
        <time>2010-02-18T10:16:45Z</time>
      </trkpt>
      <trkpt lat="45.51097" lon="4.67658">
        <ele>365</ele>
        <time>2010-02-18T10:16:46Z</time>
      </trkpt>
      <trkpt lat="45.51112" lon="4.67651">
        <ele>366</ele>
        <time>2010-02-18T10:17:03Z</time>
      </trkpt>
      <trkpt lat="45.51121" lon="4.67648">
        <ele>366</ele>
        <time>2010-02-18T10:17:11Z</time>
      </trkpt>
      <trkpt lat="45.51129" lon="4.67644">
        <ele>366</ele>
        <time>2010-02-18T10:17:19Z</time>
      </trkpt>
      <trkpt lat="45.51136" lon="4.67639">
        <ele>366</ele>
        <time>2010-02-18T10:17:26Z</time>
      </trkpt>
      <trkpt lat="45.51144" lon="4.67635">
        <ele>366</ele>
        <time>2010-02-18T10:17:34Z</time>
      </trkpt>
      <trkpt lat="45.51152" lon="4.67632">
        <ele>366</ele>
        <time>2010-02-18T10:17:42Z</time>
      </trkpt>
      <trkpt lat="45.5116" lon="4.67629">
        <ele>366</ele>
        <time>2010-02-18T10:17:49Z</time>
      </trkpt>
      <trkpt lat="45.51161" lon="4.67628">
        <ele>366</ele>
        <time>2010-02-18T10:17:50Z</time>
      </trkpt>
      <trkpt lat="45.51176" lon="4.67622">
        <ele>363</ele>
        <time>2010-02-18T10:18:04Z</time>
      </trkpt>
      <trkpt lat="45.51183" lon="4.67616">
        <ele>363</ele>
        <time>2010-02-18T10:18:11Z</time>
      </trkpt>
      <trkpt lat="45.5119" lon="4.67613">
        <ele>363</ele>
        <time>2010-02-18T10:18:19Z</time>
      </trkpt>
      <trkpt lat="45.51198" lon="4.67609">
        <ele>364</ele>
        <time>2010-02-18T10:18:27Z</time>
      </trkpt>
      <trkpt lat="45.51206" lon="4.67604">
        <ele>364</ele>
        <time>2010-02-18T10:18:35Z</time>
      </trkpt>
      <trkpt lat="45.51214" lon="4.67601">
        <ele>363</ele>
        <time>2010-02-18T10:18:43Z</time>
      </trkpt>
      <trkpt lat="45.51222" lon="4.67596">
        <ele>364</ele>
        <time>2010-02-18T10:18:51Z</time>
      </trkpt>
      <trkpt lat="45.51223" lon="4.67596">
        <ele>364</ele>
        <time>2010-02-18T10:18:52Z</time>
      </trkpt>
      <trkpt lat="45.51237" lon="4.67588">
        <ele>365</ele>
        <time>2010-02-18T10:19:07Z</time>
      </trkpt>
      <trkpt lat="45.51245" lon="4.67581">
        <ele>369</ele>
        <time>2010-02-18T10:19:15Z</time>
      </trkpt>
      <trkpt lat="45.51254" lon="4.67581">
        <ele>368</ele>
        <time>2010-02-18T10:19:24Z</time>
      </trkpt>
      <trkpt lat="45.51262" lon="4.67581">
        <ele>369</ele>
        <time>2010-02-18T10:19:32Z</time>
      </trkpt>
      <trkpt lat="45.5127" lon="4.67581">
        <ele>369</ele>
        <time>2010-02-18T10:19:39Z</time>
      </trkpt>
      <trkpt lat="45.51278" lon="4.6758">
        <ele>369</ele>
        <time>2010-02-18T10:19:46Z</time>
      </trkpt>
      <trkpt lat="45.51287" lon="4.67577">
        <ele>369</ele>
        <time>2010-02-18T10:19:53Z</time>
      </trkpt>
      <trkpt lat="45.51288" lon="4.67577">
        <ele>369</ele>
        <time>2010-02-18T10:19:54Z</time>
      </trkpt>
      <trkpt lat="45.51304" lon="4.67574">
        <ele>368</ele>
        <time>2010-02-18T10:20:10Z</time>
      </trkpt>
      <trkpt lat="45.51312" lon="4.67572">
        <ele>367</ele>
        <time>2010-02-18T10:20:17Z</time>
      </trkpt>
      <trkpt lat="45.5132" lon="4.67571">
        <ele>366</ele>
        <time>2010-02-18T10:20:25Z</time>
      </trkpt>
      <trkpt lat="45.51328" lon="4.6757">
        <ele>365</ele>
        <time>2010-02-18T10:20:33Z</time>
      </trkpt>
      <trkpt lat="45.51337" lon="4.67569">
        <ele>362</ele>
        <time>2010-02-18T10:20:41Z</time>
      </trkpt>
      <trkpt lat="45.51345" lon="4.67567">
        <ele>362</ele>
        <time>2010-02-18T10:20:48Z</time>
      </trkpt>
      <trkpt lat="45.51354" lon="4.67566">
        <ele>363</ele>
        <time>2010-02-18T10:20:55Z</time>
      </trkpt>
      <trkpt lat="45.51355" lon="4.67566">
        <ele>363</ele>
        <time>2010-02-18T10:20:56Z</time>
      </trkpt>
      <trkpt lat="45.5137" lon="4.67566">
        <ele>363</ele>
        <time>2010-02-18T10:21:10Z</time>
      </trkpt>
      <trkpt lat="45.51378" lon="4.67567">
        <ele>363</ele>
        <time>2010-02-18T10:21:18Z</time>
      </trkpt>
      <trkpt lat="45.51387" lon="4.67567">
        <ele>362</ele>
        <time>2010-02-18T10:21:26Z</time>
      </trkpt>
      <trkpt lat="45.51395" lon="4.67569">
        <ele>361</ele>
        <time>2010-02-18T10:21:33Z</time>
      </trkpt>
      <trkpt lat="45.51403" lon="4.67567">
        <ele>360</ele>
        <time>2010-02-18T10:21:45Z</time>
      </trkpt>
      <trkpt lat="45.51412" lon="4.67563">
        <ele>361</ele>
        <time>2010-02-18T10:22:27Z</time>
      </trkpt>
      <trkpt lat="45.51412" lon="4.67563">
        <ele>361</ele>
        <time>2010-02-18T10:22:28Z</time>
      </trkpt>
      <trkpt lat="45.51419" lon="4.67555">
        <ele>357</ele>
        <time>2010-02-18T10:24:48Z</time>
      </trkpt>
      <trkpt lat="45.5143" lon="4.67541">
        <ele>358</ele>
        <time>2010-02-18T10:25:53Z</time>
      </trkpt>
      <trkpt lat="45.51431" lon="4.67539">
        <ele>359</ele>
        <time>2010-02-18T10:25:54Z</time>
      </trkpt>
      <trkpt lat="45.51439" lon="4.6752">
        <ele>360</ele>
        <time>2010-02-18T10:26:10Z</time>
      </trkpt>
      <trkpt lat="45.5144" lon="4.67508">
        <ele>361</ele>
        <time>2010-02-18T10:26:19Z</time>
      </trkpt>
      <trkpt lat="45.51442" lon="4.67497">
        <ele>364</ele>
        <time>2010-02-18T10:26:26Z</time>
      </trkpt>
      <trkpt lat="45.51445" lon="4.67484">
        <ele>363</ele>
        <time>2010-02-18T10:26:33Z</time>
      </trkpt>
      <trkpt lat="45.51446" lon="4.67472">
        <ele>363</ele>
        <time>2010-02-18T10:26:41Z</time>
      </trkpt>
      <trkpt lat="45.51446" lon="4.6746">
        <ele>363</ele>
        <time>2010-02-18T10:26:47Z</time>
      </trkpt>
      <trkpt lat="45.51447" lon="4.67448">
        <ele>363</ele>
        <time>2010-02-18T10:26:54Z</time>
      </trkpt>
      <trkpt lat="45.51446" lon="4.67447">
        <ele>363</ele>
        <time>2010-02-18T10:26:55Z</time>
      </trkpt>
      <trkpt lat="45.51438" lon="4.67428">
        <ele>364</ele>
        <time>2010-02-18T10:27:08Z</time>
      </trkpt>
      <trkpt lat="45.51434" lon="4.67418">
        <ele>364</ele>
        <time>2010-02-18T10:27:16Z</time>
      </trkpt>
      <trkpt lat="45.51428" lon="4.67411">
        <ele>366</ele>
        <time>2010-02-18T10:27:23Z</time>
      </trkpt>
      <trkpt lat="45.51423" lon="4.67402">
        <ele>366</ele>
        <time>2010-02-18T10:27:29Z</time>
      </trkpt>
      <trkpt lat="45.51418" lon="4.67392">
        <ele>365</ele>
        <time>2010-02-18T10:27:36Z</time>
      </trkpt>
      <trkpt lat="45.51412" lon="4.67382">
        <ele>369</ele>
        <time>2010-02-18T10:27:44Z</time>
      </trkpt>
      <trkpt lat="45.51406" lon="4.67375">
        <ele>369</ele>
        <time>2010-02-18T10:27:50Z</time>
      </trkpt>
      <trkpt lat="45.51407" lon="4.67362">
        <ele>368</ele>
        <time>2010-02-18T10:27:59Z</time>
      </trkpt>
      <trkpt lat="45.51406" lon="4.6736">
        <ele>368</ele>
        <time>2010-02-18T10:28:00Z</time>
      </trkpt>
      <trkpt lat="45.51395" lon="4.67343">
        <ele>368</ele>
        <time>2010-02-18T10:28:13Z</time>
      </trkpt>
      <trkpt lat="45.51389" lon="4.67335">
        <ele>368</ele>
        <time>2010-02-18T10:28:20Z</time>
      </trkpt>
      <trkpt lat="45.51385" lon="4.67326">
        <ele>367</ele>
        <time>2010-02-18T10:28:28Z</time>
      </trkpt>
      <trkpt lat="45.51379" lon="4.67317">
        <ele>367</ele>
        <time>2010-02-18T10:28:39Z</time>
      </trkpt>
      <trkpt lat="45.51372" lon="4.67309">
        <ele>368</ele>
        <time>2010-02-18T10:29:05Z</time>
      </trkpt>
      <trkpt lat="45.51372" lon="4.67307">
        <ele>368</ele>
        <time>2010-02-18T10:29:06Z</time>
      </trkpt>
      <trkpt lat="45.51368" lon="4.67285">
        <ele>367</ele>
        <time>2010-02-18T10:29:24Z</time>
      </trkpt>
      <trkpt lat="45.51368" lon="4.67273">
        <ele>367</ele>
        <time>2010-02-18T10:29:33Z</time>
      </trkpt>
      <trkpt lat="45.51362" lon="4.67265">
        <ele>367</ele>
        <time>2010-02-18T10:29:47Z</time>
      </trkpt>
      <trkpt lat="45.51371" lon="4.67264">
        <ele>367</ele>
        <time>2010-02-18T10:30:11Z</time>
      </trkpt>
      <trkpt lat="45.51371" lon="4.67264">
        <ele>367</ele>
        <time>2010-02-18T10:30:12Z</time>
      </trkpt>
      <trkpt lat="45.51383" lon="4.67279">
        <ele>367</ele>
        <time>2010-02-18T10:30:33Z</time>
      </trkpt>
      <trkpt lat="45.5139" lon="4.67288">
        <ele>367</ele>
        <time>2010-02-18T10:30:42Z</time>
      </trkpt>
      <trkpt lat="45.51396" lon="4.67297">
        <ele>367</ele>
        <time>2010-02-18T10:30:52Z</time>
      </trkpt>
      <trkpt lat="45.51402" lon="4.67304">
        <ele>366</ele>
        <time>2010-02-18T10:30:57Z</time>
      </trkpt>
      <trkpt lat="45.51409" lon="4.6731">
        <ele>366</ele>
        <time>2010-02-18T10:31:07Z</time>
      </trkpt>
      <trkpt lat="45.51414" lon="4.67319">
        <ele>365</ele>
        <time>2010-02-18T10:31:15Z</time>
      </trkpt>
      <trkpt lat="45.51415" lon="4.67321">
        <ele>364</ele>
        <time>2010-02-18T10:31:16Z</time>
      </trkpt>
      <trkpt lat="45.51426" lon="4.67338">
        <ele>363</ele>
        <time>2010-02-18T10:31:31Z</time>
      </trkpt>
      <trkpt lat="45.51431" lon="4.67347">
        <ele>364</ele>
        <time>2010-02-18T10:31:38Z</time>
      </trkpt>
      <trkpt lat="45.51438" lon="4.67355">
        <ele>364</ele>
        <time>2010-02-18T10:31:45Z</time>
      </trkpt>
      <trkpt lat="45.51445" lon="4.67362">
        <ele>365</ele>
        <time>2010-02-18T10:31:55Z</time>
      </trkpt>
      <trkpt lat="45.51451" lon="4.67368">
        <ele>365</ele>
        <time>2010-02-18T10:32:02Z</time>
      </trkpt>
      <trkpt lat="45.51458" lon="4.67375">
        <ele>365</ele>
        <time>2010-02-18T10:32:09Z</time>
      </trkpt>
      <trkpt lat="45.51465" lon="4.67382">
        <ele>364</ele>
        <time>2010-02-18T10:32:18Z</time>
      </trkpt>
      <trkpt lat="45.51466" lon="4.67383">
        <ele>364</ele>
        <time>2010-02-18T10:32:19Z</time>
      </trkpt>
      <trkpt lat="45.5148" lon="4.67395">
        <ele>363</ele>
        <time>2010-02-18T10:32:34Z</time>
      </trkpt>
      <trkpt lat="45.51488" lon="4.67398">
        <ele>362</ele>
        <time>2010-02-18T10:32:42Z</time>
      </trkpt>
      <trkpt lat="45.51496" lon="4.67397">
        <ele>362</ele>
        <time>2010-02-18T10:32:49Z</time>
      </trkpt>
      <trkpt lat="45.51504" lon="4.67394">
        <ele>365</ele>
        <time>2010-02-18T10:32:57Z</time>
      </trkpt>
      <trkpt lat="45.51513" lon="4.6739">
        <ele>367</ele>
        <time>2010-02-18T10:33:06Z</time>
      </trkpt>
      <trkpt lat="45.5152" lon="4.67384">
        <ele>368</ele>
        <time>2010-02-18T10:33:15Z</time>
      </trkpt>
      <trkpt lat="45.51528" lon="4.67378">
        <ele>369</ele>
        <time>2010-02-18T10:33:25Z</time>
      </trkpt>
      <trkpt lat="45.51529" lon="4.67377">
        <ele>369</ele>
        <time>2010-02-18T10:33:26Z</time>
      </trkpt>
      <trkpt lat="45.51541" lon="4.67362">
        <ele>371</ele>
        <time>2010-02-18T10:33:43Z</time>
      </trkpt>
      <trkpt lat="45.51547" lon="4.67355">
        <ele>371</ele>
        <time>2010-02-18T10:33:51Z</time>
      </trkpt>
      <trkpt lat="45.51554" lon="4.67347">
        <ele>372</ele>
        <time>2010-02-18T10:34:00Z</time>
      </trkpt>
      <trkpt lat="45.5156" lon="4.67339">
        <ele>373</ele>
        <time>2010-02-18T10:34:10Z</time>
      </trkpt>
      <trkpt lat="45.51566" lon="4.6733">
        <ele>378</ele>
        <time>2010-02-18T10:34:19Z</time>
      </trkpt>
      <trkpt lat="45.51573" lon="4.67323">
        <ele>378</ele>
        <time>2010-02-18T10:34:30Z</time>
      </trkpt>
      <trkpt lat="45.51574" lon="4.67322">
        <ele>378</ele>
        <time>2010-02-18T10:34:31Z</time>
      </trkpt>
      <trkpt lat="45.51586" lon="4.67307">
        <ele>383</ele>
        <time>2010-02-18T10:34:48Z</time>
      </trkpt>
      <trkpt lat="45.51594" lon="4.67301">
        <ele>384</ele>
        <time>2010-02-18T10:34:59Z</time>
      </trkpt>
      <trkpt lat="45.516" lon="4.67293">
        <ele>385</ele>
        <time>2010-02-18T10:35:09Z</time>
      </trkpt>
      <trkpt lat="45.51607" lon="4.67285">
        <ele>385</ele>
        <time>2010-02-18T10:35:18Z</time>
      </trkpt>
      <trkpt lat="45.51613" lon="4.67294">
        <ele>385</ele>
        <time>2010-02-18T10:35:48Z</time>
      </trkpt>
      <trkpt lat="45.51613" lon="4.67295">
        <ele>385</ele>
        <time>2010-02-18T10:35:49Z</time>
      </trkpt>
      <trkpt lat="45.51615" lon="4.67318">
        <ele>384</ele>
        <time>2010-02-18T10:36:10Z</time>
      </trkpt>
      <trkpt lat="45.51611" lon="4.67328">
        <ele>383</ele>
        <time>2010-02-18T10:36:22Z</time>
      </trkpt>
      <trkpt lat="45.5161" lon="4.67341">
        <ele>381</ele>
        <time>2010-02-18T10:36:33Z</time>
      </trkpt>
      <trkpt lat="45.5161" lon="4.67353">
        <ele>381</ele>
        <time>2010-02-18T10:36:42Z</time>
      </trkpt>
      <trkpt lat="45.51608" lon="4.67365">
        <ele>381</ele>
        <time>2010-02-18T10:36:49Z</time>
      </trkpt>
      <trkpt lat="45.51608" lon="4.67367">
        <ele>381</ele>
        <time>2010-02-18T10:36:50Z</time>
      </trkpt>
      <trkpt lat="45.51603" lon="4.67389">
        <ele>381</ele>
        <time>2010-02-18T10:37:07Z</time>
      </trkpt>
      <trkpt lat="45.51603" lon="4.67401">
        <ele>380</ele>
        <time>2010-02-18T10:37:16Z</time>
      </trkpt>
      <trkpt lat="45.516" lon="4.67413">
        <ele>379</ele>
        <time>2010-02-18T10:37:25Z</time>
      </trkpt>
      <trkpt lat="45.51599" lon="4.67425">
        <ele>378</ele>
        <time>2010-02-18T10:37:34Z</time>
      </trkpt>
      <trkpt lat="45.51596" lon="4.67437">
        <ele>379</ele>
        <time>2010-02-18T10:37:46Z</time>
      </trkpt>
      <trkpt lat="45.51593" lon="4.67448">
        <ele>379</ele>
        <time>2010-02-18T10:37:57Z</time>
      </trkpt>
      <trkpt lat="45.51595" lon="4.67451">
        <ele>379</ele>
        <time>2010-02-18T10:37:58Z</time>
      </trkpt>
      <trkpt lat="45.51595" lon="4.6747">
        <ele>379</ele>
        <time>2010-02-18T10:38:15Z</time>
      </trkpt>
      <trkpt lat="45.516" lon="4.6748">
        <ele>379</ele>
        <time>2010-02-18T10:38:22Z</time>
      </trkpt>
      <trkpt lat="45.51605" lon="4.67489">
        <ele>379</ele>
        <time>2010-02-18T10:38:33Z</time>
      </trkpt>
      <trkpt lat="45.51612" lon="4.67497">
        <ele>380</ele>
        <time>2010-02-18T10:38:38Z</time>
      </trkpt>
      <trkpt lat="45.5162" lon="4.67499">
        <ele>381</ele>
        <time>2010-02-18T10:38:46Z</time>
      </trkpt>
      <trkpt lat="45.51629" lon="4.67497">
        <ele>382</ele>
        <time>2010-02-18T10:38:56Z</time>
      </trkpt>
      <trkpt lat="45.51637" lon="4.6749">
        <ele>383</ele>
        <time>2010-02-18T10:39:09Z</time>
      </trkpt>
      <trkpt lat="45.51637" lon="4.67489">
        <ele>383</ele>
        <time>2010-02-18T10:39:10Z</time>
      </trkpt>
      <trkpt lat="45.51641" lon="4.67466">
        <ele>383</ele>
        <time>2010-02-18T10:39:29Z</time>
      </trkpt>
      <trkpt lat="45.51644" lon="4.67455">
        <ele>383</ele>
        <time>2010-02-18T10:39:39Z</time>
      </trkpt>
      <trkpt lat="45.51648" lon="4.67444">
        <ele>384</ele>
        <time>2010-02-18T10:39:49Z</time>
      </trkpt>
      <trkpt lat="45.51653" lon="4.67434">
        <ele>386</ele>
        <time>2010-02-18T10:39:57Z</time>
      </trkpt>
      <trkpt lat="45.51658" lon="4.67424">
        <ele>387</ele>
        <time>2010-02-18T10:40:06Z</time>
      </trkpt>
      <trkpt lat="45.51662" lon="4.67413">
        <ele>389</ele>
        <time>2010-02-18T10:40:16Z</time>
      </trkpt>
      <trkpt lat="45.51662" lon="4.67411">
        <ele>389</ele>
        <time>2010-02-18T10:40:17Z</time>
      </trkpt>
      <trkpt lat="45.51672" lon="4.67393">
        <ele>393</ele>
        <time>2010-02-18T10:40:50Z</time>
      </trkpt>
      <trkpt lat="45.51678" lon="4.67384">
        <ele>393</ele>
        <time>2010-02-18T10:41:51Z</time>
      </trkpt>
      <trkpt lat="45.51679" lon="4.67383">
        <ele>393</ele>
        <time>2010-02-18T10:41:52Z</time>
      </trkpt>
      <trkpt lat="45.51689" lon="4.67364">
        <ele>393</ele>
        <time>2010-02-18T10:42:17Z</time>
      </trkpt>
      <trkpt lat="45.51694" lon="4.67354">
        <ele>394</ele>
        <time>2010-02-18T10:42:26Z</time>
      </trkpt>
      <trkpt lat="45.517" lon="4.67345">
        <ele>394</ele>
        <time>2010-02-18T10:42:35Z</time>
      </trkpt>
      <trkpt lat="45.51706" lon="4.67336">
        <ele>394</ele>
        <time>2010-02-18T10:42:43Z</time>
      </trkpt>
      <trkpt lat="45.51711" lon="4.67327">
        <ele>396</ele>
        <time>2010-02-18T10:42:51Z</time>
      </trkpt>
      <trkpt lat="45.51716" lon="4.67317">
        <ele>396</ele>
        <time>2010-02-18T10:42:59Z</time>
      </trkpt>
      <trkpt lat="45.51716" lon="4.67316">
        <ele>396</ele>
        <time>2010-02-18T10:43:00Z</time>
      </trkpt>
      <trkpt lat="45.51726" lon="4.67299">
        <ele>396</ele>
        <time>2010-02-18T10:43:17Z</time>
      </trkpt>
      <trkpt lat="45.51734" lon="4.67294">
        <ele>397</ele>
        <time>2010-02-18T10:43:27Z</time>
      </trkpt>
      <trkpt lat="45.51739" lon="4.67283">
        <ele>397</ele>
        <time>2010-02-18T10:43:37Z</time>
      </trkpt>
      <trkpt lat="45.51743" lon="4.67272">
        <ele>398</ele>
        <time>2010-02-18T10:43:46Z</time>
      </trkpt>
      <trkpt lat="45.51747" lon="4.67261">
        <ele>400</ele>
        <time>2010-02-18T10:43:56Z</time>
      </trkpt>
      <trkpt lat="45.51753" lon="4.67253">
        <ele>402</ele>
        <time>2010-02-18T10:44:06Z</time>
      </trkpt>
      <trkpt lat="45.51754" lon="4.67252">
        <ele>402</ele>
        <time>2010-02-18T10:44:07Z</time>
      </trkpt>
      <trkpt lat="45.51766" lon="4.67236">
        <ele>405</ele>
        <time>2010-02-18T10:44:25Z</time>
      </trkpt>
      <trkpt lat="45.51773" lon="4.67229">
        <ele>406</ele>
        <time>2010-02-18T10:44:35Z</time>
      </trkpt>
      <trkpt lat="45.5178" lon="4.67221">
        <ele>407</ele>
        <time>2010-02-18T10:44:46Z</time>
      </trkpt>
      <trkpt lat="45.51786" lon="4.67213">
        <ele>407</ele>
        <time>2010-02-18T10:44:54Z</time>
      </trkpt>
      <trkpt lat="45.51792" lon="4.67206">
        <ele>408</ele>
        <time>2010-02-18T10:45:02Z</time>
      </trkpt>
      <trkpt lat="45.51796" lon="4.67195">
        <ele>408</ele>
        <time>2010-02-18T10:45:11Z</time>
      </trkpt>
      <trkpt lat="45.51797" lon="4.67194">
        <ele>408</ele>
        <time>2010-02-18T10:45:12Z</time>
      </trkpt>
      <trkpt lat="45.51804" lon="4.67175">
        <ele>410</ele>
        <time>2010-02-18T10:45:29Z</time>
      </trkpt>
      <trkpt lat="45.51808" lon="4.67164">
        <ele>413</ele>
        <time>2010-02-18T10:45:38Z</time>
      </trkpt>
      <trkpt lat="45.51812" lon="4.67153">
        <ele>414</ele>
        <time>2010-02-18T10:45:46Z</time>
      </trkpt>
      <trkpt lat="45.51815" lon="4.67141">
        <ele>414</ele>
        <time>2010-02-18T10:45:56Z</time>
      </trkpt>
      <trkpt lat="45.51818" lon="4.67131">
        <ele>414</ele>
        <time>2010-02-18T10:46:05Z</time>
      </trkpt>
      <trkpt lat="45.51822" lon="4.6712">
        <ele>415</ele>
        <time>2010-02-18T10:46:13Z</time>
      </trkpt>
      <trkpt lat="45.51823" lon="4.6712">
        <ele>415</ele>
        <time>2010-02-18T10:46:14Z</time>
      </trkpt>
      <trkpt lat="45.51831" lon="4.67099">
        <ele>417</ele>
        <time>2010-02-18T10:46:32Z</time>
      </trkpt>
      <trkpt lat="45.51835" lon="4.67088">
        <ele>419</ele>
        <time>2010-02-18T10:46:41Z</time>
      </trkpt>
      <trkpt lat="45.51836" lon="4.67075">
        <ele>420</ele>
        <time>2010-02-18T10:46:50Z</time>
      </trkpt>
      <trkpt lat="45.51838" lon="4.67064">
        <ele>421</ele>
        <time>2010-02-18T10:46:58Z</time>
      </trkpt>
      <trkpt lat="45.5184" lon="4.67052">
        <ele>421</ele>
        <time>2010-02-18T10:47:06Z</time>
      </trkpt>
      <trkpt lat="45.51841" lon="4.67039">
        <ele>421</ele>
        <time>2010-02-18T10:47:14Z</time>
      </trkpt>
      <trkpt lat="45.51842" lon="4.67038">
        <ele>422</ele>
        <time>2010-02-18T10:47:15Z</time>
      </trkpt>
      <trkpt lat="45.51845" lon="4.67017">
        <ele>423</ele>
        <time>2010-02-18T10:47:31Z</time>
      </trkpt>
      <trkpt lat="45.51848" lon="4.67005">
        <ele>423</ele>
        <time>2010-02-18T10:47:45Z</time>
      </trkpt>
      <trkpt lat="45.51849" lon="4.66992">
        <ele>425</ele>
        <time>2010-02-18T10:47:55Z</time>
      </trkpt>
      <trkpt lat="45.5185" lon="4.6698">
        <ele>425</ele>
        <time>2010-02-18T10:48:04Z</time>
      </trkpt>
      <trkpt lat="45.51852" lon="4.66968">
        <ele>425</ele>
        <time>2010-02-18T10:48:13Z</time>
      </trkpt>
      <trkpt lat="45.51854" lon="4.66956">
        <ele>425</ele>
        <time>2010-02-18T10:48:21Z</time>
      </trkpt>
      <trkpt lat="45.51854" lon="4.66954">
        <ele>425</ele>
        <time>2010-02-18T10:48:22Z</time>
      </trkpt>
      <trkpt lat="45.51858" lon="4.66931">
        <ele>426</ele>
        <time>2010-02-18T10:48:38Z</time>
      </trkpt>
      <trkpt lat="45.5186" lon="4.66919">
        <ele>426</ele>
        <time>2010-02-18T10:48:47Z</time>
      </trkpt>
      <trkpt lat="45.5186" lon="4.66906">
        <ele>428</ele>
        <time>2010-02-18T10:48:56Z</time>
      </trkpt>
      <trkpt lat="45.51862" lon="4.66894">
        <ele>428</ele>
        <time>2010-02-18T10:49:05Z</time>
      </trkpt>
      <trkpt lat="45.51863" lon="4.66882">
        <ele>429</ele>
        <time>2010-02-18T10:49:13Z</time>
      </trkpt>
      <trkpt lat="45.51864" lon="4.66871">
        <ele>429</ele>
        <time>2010-02-18T10:49:21Z</time>
      </trkpt>
      <trkpt lat="45.51866" lon="4.66858">
        <ele>430</ele>
        <time>2010-02-18T10:49:29Z</time>
      </trkpt>
      <trkpt lat="45.51866" lon="4.66857">
        <ele>430</ele>
        <time>2010-02-18T10:49:30Z</time>
      </trkpt>
      <trkpt lat="45.51869" lon="4.66835">
        <ele>430</ele>
        <time>2010-02-18T10:49:45Z</time>
      </trkpt>
      <trkpt lat="45.51871" lon="4.66823">
        <ele>434</ele>
        <time>2010-02-18T10:49:53Z</time>
      </trkpt>
      <trkpt lat="45.51873" lon="4.66812">
        <ele>434</ele>
        <time>2010-02-18T10:50:01Z</time>
      </trkpt>
      <trkpt lat="45.51875" lon="4.668">
        <ele>434</ele>
        <time>2010-02-18T10:50:08Z</time>
      </trkpt>
      <trkpt lat="45.51876" lon="4.66788">
        <ele>434</ele>
        <time>2010-02-18T10:50:16Z</time>
      </trkpt>
      <trkpt lat="45.51878" lon="4.66776">
        <ele>435</ele>
        <time>2010-02-18T10:50:24Z</time>
      </trkpt>
      <trkpt lat="45.51879" lon="4.66763">
        <ele>435</ele>
        <time>2010-02-18T10:50:32Z</time>
      </trkpt>
      <trkpt lat="45.51879" lon="4.66762">
        <ele>435</ele>
        <time>2010-02-18T10:50:33Z</time>
      </trkpt>
      <trkpt lat="45.5188" lon="4.6674">
        <ele>438</ele>
        <time>2010-02-18T10:50:47Z</time>
      </trkpt>
      <trkpt lat="45.51876" lon="4.66729">
        <ele>438</ele>
        <time>2010-02-18T10:51:06Z</time>
      </trkpt>
      <trkpt lat="45.51868" lon="4.66726">
        <ele>439</ele>
        <time>2010-02-18T10:51:20Z</time>
      </trkpt>
      <trkpt lat="45.51861" lon="4.66718">
        <ele>439</ele>
        <time>2010-02-18T10:51:31Z</time>
      </trkpt>
      <trkpt lat="45.51853" lon="4.66712">
        <ele>440</ele>
        <time>2010-02-18T10:51:41Z</time>
      </trkpt>
      <trkpt lat="45.51852" lon="4.66712">
        <ele>440</ele>
        <time>2010-02-18T10:51:42Z</time>
      </trkpt>
      <trkpt lat="45.51837" lon="4.66705">
        <ele>440</ele>
        <time>2010-02-18T10:52:02Z</time>
      </trkpt>
      <trkpt lat="45.5183" lon="4.66696">
        <ele>442</ele>
        <time>2010-02-18T10:52:12Z</time>
      </trkpt>
      <trkpt lat="45.51823" lon="4.66689">
        <ele>443</ele>
        <time>2010-02-18T10:52:21Z</time>
      </trkpt>
      <trkpt lat="45.51816" lon="4.66683">
        <ele>443</ele>
        <time>2010-02-18T10:52:30Z</time>
      </trkpt>
      <trkpt lat="45.51809" lon="4.66675">
        <ele>443</ele>
        <time>2010-02-18T10:52:39Z</time>
      </trkpt>
      <trkpt lat="45.51802" lon="4.66667">
        <ele>442</ele>
        <time>2010-02-18T10:52:48Z</time>
      </trkpt>
      <trkpt lat="45.51802" lon="4.66666">
        <ele>446</ele>
        <time>2010-02-18T10:52:49Z</time>
      </trkpt>
      <trkpt lat="45.5179" lon="4.6665">
        <ele>446</ele>
        <time>2010-02-18T10:53:06Z</time>
      </trkpt>
      <trkpt lat="45.51783" lon="4.66641">
        <ele>446</ele>
        <time>2010-02-18T10:53:16Z</time>
      </trkpt>
      <trkpt lat="45.51779" lon="4.6663">
        <ele>447</ele>
        <time>2010-02-18T10:53:26Z</time>
      </trkpt>
      <trkpt lat="45.51779" lon="4.66617">
        <ele>447</ele>
        <time>2010-02-18T10:53:44Z</time>
      </trkpt>
      <trkpt lat="45.51775" lon="4.66606">
        <ele>448</ele>
        <time>2010-02-18T10:55:30Z</time>
      </trkpt>
      <trkpt lat="45.51775" lon="4.66606">
        <ele>448</ele>
        <time>2010-02-18T10:55:31Z</time>
      </trkpt>
      <trkpt lat="45.51766" lon="4.66605">
        <ele>448</ele>
        <time>2010-02-18T10:57:48Z</time>
      </trkpt>
      <trkpt lat="45.51755" lon="4.66588">
        <ele>450</ele>
        <time>2010-02-18T10:58:05Z</time>
      </trkpt>
      <trkpt lat="45.51749" lon="4.6658">
        <ele>451</ele>
        <time>2010-02-18T10:58:12Z</time>
      </trkpt>
      <trkpt lat="45.51744" lon="4.66572">
        <ele>451</ele>
        <time>2010-02-18T10:58:19Z</time>
      </trkpt>
      <trkpt lat="45.51738" lon="4.66562">
        <ele>451</ele>
        <time>2010-02-18T10:58:27Z</time>
      </trkpt>
      <trkpt lat="45.51731" lon="4.66556">
        <ele>451</ele>
        <time>2010-02-18T10:58:36Z</time>
      </trkpt>
      <trkpt lat="45.51725" lon="4.66548">
        <ele>451</ele>
        <time>2010-02-18T10:58:44Z</time>
      </trkpt>
      <trkpt lat="45.51719" lon="4.6654">
        <ele>451</ele>
        <time>2010-02-18T10:58:51Z</time>
      </trkpt>
      <trkpt lat="45.51718" lon="4.66539">
        <ele>451</ele>
        <time>2010-02-18T10:58:52Z</time>
      </trkpt>
      <trkpt lat="45.51705" lon="4.66528">
        <ele>451</ele>
        <time>2010-02-18T10:59:06Z</time>
      </trkpt>
      <trkpt lat="45.51696" lon="4.66527">
        <ele>451</ele>
        <time>2010-02-18T10:59:14Z</time>
      </trkpt>
      <trkpt lat="45.51688" lon="4.66528">
        <ele>451</ele>
        <time>2010-02-18T10:59:22Z</time>
      </trkpt>
      <trkpt lat="45.51679" lon="4.66529">
        <ele>451</ele>
        <time>2010-02-18T10:59:29Z</time>
      </trkpt>
      <trkpt lat="45.51672" lon="4.66532">
        <ele>450</ele>
        <time>2010-02-18T10:59:36Z</time>
      </trkpt>
      <trkpt lat="45.51663" lon="4.66533">
        <ele>449</ele>
        <time>2010-02-18T10:59:42Z</time>
      </trkpt>
      <trkpt lat="45.51655" lon="4.66535">
        <ele>449</ele>
        <time>2010-02-18T10:59:50Z</time>
      </trkpt>
      <trkpt lat="45.51646" lon="4.66537">
        <ele>449</ele>
        <time>2010-02-18T10:59:58Z</time>
      </trkpt>
      <trkpt lat="45.51645" lon="4.66537">
        <ele>449</ele>
        <time>2010-02-18T10:59:59Z</time>
      </trkpt>
      <trkpt lat="45.51629" lon="4.66543">
        <ele>449</ele>
        <time>2010-02-18T11:00:14Z</time>
      </trkpt>
      <trkpt lat="45.5162" lon="4.66544">
        <ele>449</ele>
        <time>2010-02-18T11:00:22Z</time>
      </trkpt>
      <trkpt lat="45.51612" lon="4.66545">
        <ele>449</ele>
        <time>2010-02-18T11:00:29Z</time>
      </trkpt>
      <trkpt lat="45.51604" lon="4.66546">
        <ele>449</ele>
        <time>2010-02-18T11:00:36Z</time>
      </trkpt>
      <trkpt lat="45.51596" lon="4.66545">
        <ele>449</ele>
        <time>2010-02-18T11:00:42Z</time>
      </trkpt>
      <trkpt lat="45.51588" lon="4.66545">
        <ele>449</ele>
        <time>2010-02-18T11:00:49Z</time>
      </trkpt>
      <trkpt lat="45.5158" lon="4.66547">
        <ele>452</ele>
        <time>2010-02-18T11:00:57Z</time>
      </trkpt>
      <trkpt lat="45.51572" lon="4.66546">
        <ele>452</ele>
        <time>2010-02-18T11:01:04Z</time>
      </trkpt>
      <trkpt lat="45.5157" lon="4.66547">
        <ele>452</ele>
        <time>2010-02-18T11:01:05Z</time>
      </trkpt>
      <trkpt lat="45.51555" lon="4.66545">
        <ele>453</ele>
        <time>2010-02-18T11:01:17Z</time>
      </trkpt>
      <trkpt lat="45.51547" lon="4.66543">
        <ele>453</ele>
        <time>2010-02-18T11:01:24Z</time>
      </trkpt>
      <trkpt lat="45.51539" lon="4.66541">
        <ele>454</ele>
        <time>2010-02-18T11:01:30Z</time>
      </trkpt>
      <trkpt lat="45.51531" lon="4.66539">
        <ele>454</ele>
        <time>2010-02-18T11:01:36Z</time>
      </trkpt>
      <trkpt lat="45.51523" lon="4.66541">
        <ele>454</ele>
        <time>2010-02-18T11:01:43Z</time>
      </trkpt>
      <trkpt lat="45.51515" lon="4.66544">
        <ele>455</ele>
        <time>2010-02-18T11:01:50Z</time>
      </trkpt>
      <trkpt lat="45.51506" lon="4.66545">
        <ele>455</ele>
        <time>2010-02-18T11:01:58Z</time>
      </trkpt>
      <trkpt lat="45.51498" lon="4.66546">
        <ele>458</ele>
        <time>2010-02-18T11:02:05Z</time>
      </trkpt>
      <trkpt lat="45.51496" lon="4.66546">
        <ele>458</ele>
        <time>2010-02-18T11:02:06Z</time>
      </trkpt>
      <trkpt lat="45.51482" lon="4.66552">
        <ele>457</ele>
        <time>2010-02-18T11:02:19Z</time>
      </trkpt>
      <trkpt lat="45.51474" lon="4.66557">
        <ele>457</ele>
        <time>2010-02-18T11:02:27Z</time>
      </trkpt>
      <trkpt lat="45.51466" lon="4.6656">
        <ele>457</ele>
        <time>2010-02-18T11:02:34Z</time>
      </trkpt>
      <trkpt lat="45.51458" lon="4.6656">
        <ele>458</ele>
        <time>2010-02-18T11:02:41Z</time>
      </trkpt>
      <trkpt lat="45.51449" lon="4.66561">
        <ele>458</ele>
        <time>2010-02-18T11:02:48Z</time>
      </trkpt>
      <trkpt lat="45.51441" lon="4.66562">
        <ele>458</ele>
        <time>2010-02-18T11:02:55Z</time>
      </trkpt>
      <trkpt lat="45.51432" lon="4.6656">
        <ele>458</ele>
        <time>2010-02-18T11:03:02Z</time>
      </trkpt>
      <trkpt lat="45.51424" lon="4.66558">
        <ele>458</ele>
        <time>2010-02-18T11:03:09Z</time>
      </trkpt>
      <trkpt lat="45.51422" lon="4.66556">
        <ele>458</ele>
        <time>2010-02-18T11:03:10Z</time>
      </trkpt>
      <trkpt lat="45.51408" lon="4.66549">
        <ele>458</ele>
        <time>2010-02-18T11:03:21Z</time>
      </trkpt>
      <trkpt lat="45.514" lon="4.66544">
        <ele>459</ele>
        <time>2010-02-18T11:03:28Z</time>
      </trkpt>
      <trkpt lat="45.51393" lon="4.66538">
        <ele>459</ele>
        <time>2010-02-18T11:03:34Z</time>
      </trkpt>
      <trkpt lat="45.51385" lon="4.66533">
        <ele>459</ele>
        <time>2010-02-18T11:03:41Z</time>
      </trkpt>
      <trkpt lat="45.51378" lon="4.66526">
        <ele>459</ele>
        <time>2010-02-18T11:03:47Z</time>
      </trkpt>
      <trkpt lat="45.51371" lon="4.66518">
        <ele>460</ele>
        <time>2010-02-18T11:03:54Z</time>
      </trkpt>
      <trkpt lat="45.51378" lon="4.66524">
        <ele>460</ele>
        <time>2010-02-18T11:04:04Z</time>
      </trkpt>
      <trkpt lat="45.51385" lon="4.66529">
        <ele>459</ele>
        <time>2010-02-18T11:04:10Z</time>
      </trkpt>
      <trkpt lat="45.51386" lon="4.66529">
        <ele>459</ele>
        <time>2010-02-18T11:04:11Z</time>
      </trkpt>
      <trkpt lat="45.51389" lon="4.66548">
        <ele>458</ele>
        <time>2010-02-18T11:04:26Z</time>
      </trkpt>
      <trkpt lat="45.51387" lon="4.6656">
        <ele>458</ele>
        <time>2010-02-18T11:04:34Z</time>
      </trkpt>
      <trkpt lat="45.51388" lon="4.66572">
        <ele>457</ele>
        <time>2010-02-18T11:04:39Z</time>
      </trkpt>
      <trkpt lat="45.51386" lon="4.66584">
        <ele>451</ele>
        <time>2010-02-18T11:04:42Z</time>
      </trkpt>
      <trkpt lat="45.51383" lon="4.66596">
        <ele>450</ele>
        <time>2010-02-18T11:04:46Z</time>
      </trkpt>
      <trkpt lat="45.51381" lon="4.66608">
        <ele>449</ele>
        <time>2010-02-18T11:05:08Z</time>
      </trkpt>
      <trkpt lat="45.51379" lon="4.6662">
        <ele>449</ele>
        <time>2010-02-18T11:05:18Z</time>
      </trkpt>
      <trkpt lat="45.51378" lon="4.66621">
        <ele>449</ele>
        <time>2010-02-18T11:05:19Z</time>
      </trkpt>
      <trkpt lat="45.51373" lon="4.66642">
        <ele>447</ele>
        <time>2010-02-18T11:05:37Z</time>
      </trkpt>
      <trkpt lat="45.51369" lon="4.66652">
        <ele>447</ele>
        <time>2010-02-18T11:05:46Z</time>
      </trkpt>
      <trkpt lat="45.51364" lon="4.66661">
        <ele>446</ele>
        <time>2010-02-18T11:05:55Z</time>
      </trkpt>
      <trkpt lat="45.51356" lon="4.66666">
        <ele>445</ele>
        <time>2010-02-18T11:06:04Z</time>
      </trkpt>
      <trkpt lat="45.51348" lon="4.66668">
        <ele>440</ele>
        <time>2010-02-18T11:06:12Z</time>
      </trkpt>
      <trkpt lat="45.51339" lon="4.66667">
        <ele>441</ele>
        <time>2010-02-18T11:06:20Z</time>
      </trkpt>
      <trkpt lat="45.51338" lon="4.66667">
        <ele>441</ele>
        <time>2010-02-18T11:06:21Z</time>
      </trkpt>
      <trkpt lat="45.51323" lon="4.66672">
        <ele>439</ele>
        <time>2010-02-18T11:06:37Z</time>
      </trkpt>
      <trkpt lat="45.51314" lon="4.66674">
        <ele>437</ele>
        <time>2010-02-18T11:06:45Z</time>
      </trkpt>
      <trkpt lat="45.51306" lon="4.66675">
        <ele>436</ele>
        <time>2010-02-18T11:06:53Z</time>
      </trkpt>
      <trkpt lat="45.51299" lon="4.66682">
        <ele>435</ele>
        <time>2010-02-18T11:07:03Z</time>
      </trkpt>
      <trkpt lat="45.51298" lon="4.66695">
        <ele>434</ele>
        <time>2010-02-18T11:07:12Z</time>
      </trkpt>
      <trkpt lat="45.51298" lon="4.66707">
        <ele>434</ele>
        <time>2010-02-18T11:07:18Z</time>
      </trkpt>
      <trkpt lat="45.51291" lon="4.667">
        <ele>434</ele>
        <time>2010-02-18T11:07:38Z</time>
      </trkpt>
      <trkpt lat="45.5129" lon="4.66699">
        <ele>434</ele>
        <time>2010-02-18T11:07:39Z</time>
      </trkpt>
      <trkpt lat="45.51279" lon="4.66682">
        <ele>434</ele>
        <time>2010-02-18T11:07:57Z</time>
      </trkpt>
      <trkpt lat="45.51271" lon="4.66678">
        <ele>434</ele>
        <time>2010-02-18T11:08:05Z</time>
      </trkpt>
      <trkpt lat="45.51264" lon="4.66672">
        <ele>433</ele>
        <time>2010-02-18T11:08:13Z</time>
      </trkpt>
      <trkpt lat="45.51256" lon="4.66668">
        <ele>433</ele>
        <time>2010-02-18T11:08:22Z</time>
      </trkpt>
      <trkpt lat="45.51248" lon="4.66666">
        <ele>433</ele>
        <time>2010-02-18T11:08:29Z</time>
      </trkpt>
      <trkpt lat="45.51239" lon="4.66667">
        <ele>430</ele>
        <time>2010-02-18T11:08:40Z</time>
      </trkpt>
      <trkpt lat="45.51238" lon="4.66668">
        <ele>429</ele>
        <time>2010-02-18T11:08:41Z</time>
      </trkpt>
      <trkpt lat="45.51222" lon="4.6667">
        <ele>426</ele>
        <time>2010-02-18T11:08:57Z</time>
      </trkpt>
      <trkpt lat="45.51214" lon="4.66675">
        <ele>425</ele>
        <time>2010-02-18T11:09:04Z</time>
      </trkpt>
      <trkpt lat="45.51206" lon="4.66675">
        <ele>424</ele>
        <time>2010-02-18T11:09:12Z</time>
      </trkpt>
      <trkpt lat="45.51197" lon="4.66673">
        <ele>423</ele>
        <time>2010-02-18T11:09:21Z</time>
      </trkpt>
      <trkpt lat="45.51189" lon="4.66667">
        <ele>423</ele>
        <time>2010-02-18T11:09:29Z</time>
      </trkpt>
      <trkpt lat="45.51183" lon="4.66658">
        <ele>426</ele>
        <time>2010-02-18T11:09:37Z</time>
      </trkpt>
      <trkpt lat="45.51178" lon="4.66649">
        <ele>427</ele>
        <time>2010-02-18T11:09:44Z</time>
      </trkpt>
      <trkpt lat="45.51177" lon="4.66648">
        <ele>427</ele>
        <time>2010-02-18T11:09:45Z</time>
      </trkpt>
      <trkpt lat="45.51166" lon="4.66634">
        <ele>422</ele>
        <time>2010-02-18T11:09:59Z</time>
      </trkpt>
      <trkpt lat="45.51162" lon="4.66624">
        <ele>423</ele>
        <time>2010-02-18T11:10:07Z</time>
      </trkpt>
      <trkpt lat="45.51157" lon="4.66615">
        <ele>424</ele>
        <time>2010-02-18T11:10:14Z</time>
      </trkpt>
      <trkpt lat="45.51152" lon="4.66605">
        <ele>424</ele>
        <time>2010-02-18T11:10:23Z</time>
      </trkpt>
      <trkpt lat="45.51151" lon="4.66594">
        <ele>425</ele>
        <time>2010-02-18T11:10:31Z</time>
      </trkpt>
      <trkpt lat="45.51146" lon="4.66584">
        <ele>425</ele>
        <time>2010-02-18T11:10:40Z</time>
      </trkpt>
      <trkpt lat="45.51138" lon="4.6658">
        <ele>430</ele>
        <time>2010-02-18T11:10:47Z</time>
      </trkpt>
      <trkpt lat="45.51137" lon="4.6658">
        <ele>430</ele>
        <time>2010-02-18T11:10:48Z</time>
      </trkpt>
      <trkpt lat="45.51121" lon="4.66586">
        <ele>423</ele>
        <time>2010-02-18T11:10:59Z</time>
      </trkpt>
      <trkpt lat="45.51114" lon="4.66592">
        <ele>423</ele>
        <time>2010-02-18T11:11:04Z</time>
      </trkpt>
      <trkpt lat="45.51108" lon="4.666">
        <ele>422</ele>
        <time>2010-02-18T11:11:10Z</time>
      </trkpt>
      <trkpt lat="45.51101" lon="4.66608">
        <ele>422</ele>
        <time>2010-02-18T11:11:17Z</time>
      </trkpt>
      <trkpt lat="45.51095" lon="4.66618">
        <ele>421</ele>
        <time>2010-02-18T11:11:24Z</time>
      </trkpt>
      <trkpt lat="45.51089" lon="4.66627">
        <ele>420</ele>
        <time>2010-02-18T11:11:30Z</time>
      </trkpt>
      <trkpt lat="45.51084" lon="4.66635">
        <ele>419</ele>
        <time>2010-02-18T11:11:35Z</time>
      </trkpt>
      <trkpt lat="45.51079" lon="4.66645">
        <ele>413</ele>
        <time>2010-02-18T11:11:41Z</time>
      </trkpt>
      <trkpt lat="45.51073" lon="4.66654">
        <ele>412</ele>
        <time>2010-02-18T11:11:48Z</time>
      </trkpt>
      <trkpt lat="45.51072" lon="4.66655">
        <ele>412</ele>
        <time>2010-02-18T11:11:49Z</time>
      </trkpt>
      <trkpt lat="45.51058" lon="4.66667">
        <ele>406</ele>
        <time>2010-02-18T11:12:04Z</time>
      </trkpt>
      <trkpt lat="45.51051" lon="4.66672">
        <ele>405</ele>
        <time>2010-02-18T11:12:11Z</time>
      </trkpt>
      <trkpt lat="45.51043" lon="4.66677">
        <ele>404</ele>
        <time>2010-02-18T11:12:22Z</time>
      </trkpt>
      <trkpt lat="45.51035" lon="4.66673">
        <ele>403</ele>
        <time>2010-02-18T11:12:31Z</time>
      </trkpt>
      <trkpt lat="45.51026" lon="4.66673">
        <ele>403</ele>
        <time>2010-02-18T11:12:39Z</time>
      </trkpt>
      <trkpt lat="45.51017" lon="4.6667">
        <ele>402</ele>
        <time>2010-02-18T11:12:50Z</time>
      </trkpt>
      <trkpt lat="45.51016" lon="4.6667">
        <ele>402</ele>
        <time>2010-02-18T11:12:51Z</time>
      </trkpt>
      <trkpt lat="45.51005" lon="4.66653">
        <ele>407</ele>
        <time>2010-02-18T11:13:04Z</time>
      </trkpt>
      <trkpt lat="45.50999" lon="4.66643">
        <ele>405</ele>
        <time>2010-02-18T11:13:14Z</time>
      </trkpt>
      <trkpt lat="45.50994" lon="4.66635">
        <ele>406</ele>
        <time>2010-02-18T11:13:33Z</time>
      </trkpt>
      <trkpt lat="45.50987" lon="4.66631">
        <ele>406</ele>
        <time>2010-02-18T11:13:41Z</time>
      </trkpt>
      <trkpt lat="45.5098" lon="4.66625">
        <ele>406</ele>
        <time>2010-02-18T11:13:48Z</time>
      </trkpt>
      <trkpt lat="45.50976" lon="4.66614">
        <ele>407</ele>
        <time>2010-02-18T11:13:53Z</time>
      </trkpt>
      <trkpt lat="45.50976" lon="4.66611">
        <ele>407</ele>
        <time>2010-02-18T11:13:54Z</time>
      </trkpt>
      <trkpt lat="45.50964" lon="4.66619">
        <ele>407</ele>
        <time>2010-02-18T11:14:11Z</time>
      </trkpt>
      <trkpt lat="45.50956" lon="4.66619">
        <ele>406</ele>
        <time>2010-02-18T11:14:19Z</time>
      </trkpt>
      <trkpt lat="45.50952" lon="4.6661">
        <ele>406</ele>
        <time>2010-02-18T11:14:24Z</time>
      </trkpt>
      <trkpt lat="45.50949" lon="4.66605">
        <ele>406</ele>
        <time>2010-02-18T11:14:27Z</time>
      </trkpt>
      <trkpt lat="45.5095" lon="4.66597">
        <ele>407</ele>
        <time>2010-02-18T11:14:28Z</time>
      </trkpt>
      <trkpt lat="45.50951" lon="4.66589">
        <ele>407</ele>
        <time>2010-02-18T11:14:29Z</time>
      </trkpt>
      <trkpt lat="45.50952" lon="4.66581">
        <ele>411</ele>
        <time>2010-02-18T11:14:30Z</time>
      </trkpt>
      <trkpt lat="45.50951" lon="4.66571">
        <ele>411</ele>
        <time>2010-02-18T11:14:33Z</time>
      </trkpt>
      <trkpt lat="45.50951" lon="4.66561">
        <ele>412</ele>
        <time>2010-02-18T11:14:36Z</time>
      </trkpt>
      <trkpt lat="45.5095" lon="4.66549">
        <ele>412</ele>
        <time>2010-02-18T11:14:40Z</time>
      </trkpt>
      <trkpt lat="45.50949" lon="4.66537">
        <ele>413</ele>
        <time>2010-02-18T11:14:44Z</time>
      </trkpt>
      <trkpt lat="45.50944" lon="4.66528">
        <ele>413</ele>
        <time>2010-02-18T11:14:48Z</time>
      </trkpt>
      <trkpt lat="45.50938" lon="4.6652">
        <ele>413</ele>
        <time>2010-02-18T11:14:57Z</time>
      </trkpt>
      <trkpt lat="45.50937" lon="4.66519">
        <ele>413</ele>
        <time>2010-02-18T11:14:58Z</time>
      </trkpt>
      <trkpt lat="45.5093" lon="4.66498">
        <ele>417</ele>
        <time>2010-02-18T11:15:19Z</time>
      </trkpt>
      <trkpt lat="45.50931" lon="4.66486">
        <ele>418</ele>
        <time>2010-02-18T11:15:39Z</time>
      </trkpt>
      <trkpt lat="45.5093" lon="4.66475">
        <ele>419</ele>
        <time>2010-02-18T11:15:49Z</time>
      </trkpt>
      <trkpt lat="45.50932" lon="4.66464">
        <ele>420</ele>
        <time>2010-02-18T11:15:55Z</time>
      </trkpt>
      <trkpt lat="45.5093" lon="4.66451">
        <ele>420</ele>
        <time>2010-02-18T11:16:04Z</time>
      </trkpt>
      <trkpt lat="45.5093" lon="4.66449">
        <ele>420</ele>
        <time>2010-02-18T11:16:05Z</time>
      </trkpt>
      <trkpt lat="45.50927" lon="4.66427">
        <ele>420</ele>
        <time>2010-02-18T11:16:24Z</time>
      </trkpt>
      <trkpt lat="45.50929" lon="4.66415">
        <ele>422</ele>
        <time>2010-02-18T11:16:37Z</time>
      </trkpt>
      <trkpt lat="45.50931" lon="4.66404">
        <ele>423</ele>
        <time>2010-02-18T11:16:45Z</time>
      </trkpt>
      <trkpt lat="45.50935" lon="4.66394">
        <ele>425</ele>
        <time>2010-02-18T11:16:53Z</time>
      </trkpt>
      <trkpt lat="45.50937" lon="4.66382">
        <ele>425</ele>
        <time>2010-02-18T11:17:10Z</time>
      </trkpt>
      <trkpt lat="45.50938" lon="4.66381">
        <ele>425</ele>
        <time>2010-02-18T11:17:11Z</time>
      </trkpt>
      <trkpt lat="45.50945" lon="4.66359">
        <ele>426</ele>
        <time>2010-02-18T11:17:35Z</time>
      </trkpt>
      <trkpt lat="45.50953" lon="4.66354">
        <ele>427</ele>
        <time>2010-02-18T11:17:47Z</time>
      </trkpt>
      <trkpt lat="45.50955" lon="4.66343">
        <ele>427</ele>
        <time>2010-02-18T11:17:59Z</time>
      </trkpt>
      <trkpt lat="45.50962" lon="4.66338">
        <ele>428</ele>
        <time>2010-02-18T11:18:09Z</time>
      </trkpt>
      <trkpt lat="45.50967" lon="4.66329">
        <ele>432</ele>
        <time>2010-02-18T11:18:17Z</time>
      </trkpt>
      <trkpt lat="45.50968" lon="4.66328">
        <ele>432</ele>
        <time>2010-02-18T11:18:18Z</time>
      </trkpt>
      <trkpt lat="45.5096" lon="4.66312">
        <ele>432</ele>
        <time>2010-02-18T11:18:38Z</time>
      </trkpt>
      <trkpt lat="45.50953" lon="4.66317">
        <ele>431</ele>
        <time>2010-02-18T11:18:46Z</time>
      </trkpt>
      <trkpt lat="45.50945" lon="4.66323">
        <ele>431</ele>
        <time>2010-02-18T11:18:51Z</time>
      </trkpt>
      <trkpt lat="45.50938" lon="4.66325">
        <ele>430</ele>
        <time>2010-02-18T11:18:55Z</time>
      </trkpt>
      <trkpt lat="45.5093" lon="4.6633">
        <ele>428</ele>
        <time>2010-02-18T11:19:03Z</time>
      </trkpt>
      <trkpt lat="45.50922" lon="4.66332">
        <ele>427</ele>
        <time>2010-02-18T11:19:21Z</time>
      </trkpt>
      <trkpt lat="45.5092" lon="4.66333">
        <ele>426</ele>
        <time>2010-02-18T11:19:22Z</time>
      </trkpt>
      <trkpt lat="45.50907" lon="4.66327">
        <ele>427</ele>
        <time>2010-02-18T11:19:36Z</time>
      </trkpt>
      <trkpt lat="45.50898" lon="4.66325">
        <ele>428</ele>
        <time>2010-02-18T11:19:43Z</time>
      </trkpt>
      <trkpt lat="45.5089" lon="4.66323">
        <ele>429</ele>
        <time>2010-02-18T11:19:50Z</time>
      </trkpt>
      <trkpt lat="45.50882" lon="4.66318">
        <ele>429</ele>
        <time>2010-02-18T11:19:56Z</time>
      </trkpt>
      <trkpt lat="45.50874" lon="4.66317">
        <ele>430</ele>
        <time>2010-02-18T11:20:04Z</time>
      </trkpt>
      <trkpt lat="45.50866" lon="4.66314">
        <ele>430</ele>
        <time>2010-02-18T11:20:12Z</time>
      </trkpt>
      <trkpt lat="45.50858" lon="4.66313">
        <ele>429</ele>
        <time>2010-02-18T11:20:22Z</time>
      </trkpt>
      <trkpt lat="45.50857" lon="4.66312">
        <ele>429</ele>
        <time>2010-02-18T11:20:23Z</time>
      </trkpt>
      <trkpt lat="45.50845" lon="4.66298">
        <ele>430</ele>
        <time>2010-02-18T11:20:44Z</time>
      </trkpt>
      <trkpt lat="45.50839" lon="4.66289">
        <ele>431</ele>
        <time>2010-02-18T11:20:52Z</time>
      </trkpt>
      <trkpt lat="45.50834" lon="4.6628">
        <ele>432</ele>
        <time>2010-02-18T11:20:59Z</time>
      </trkpt>
      <trkpt lat="45.50829" lon="4.66271">
        <ele>431</ele>
        <time>2010-02-18T11:21:06Z</time>
      </trkpt>
      <trkpt lat="45.50822" lon="4.66264">
        <ele>431</ele>
        <time>2010-02-18T11:21:17Z</time>
      </trkpt>
      <trkpt lat="45.50816" lon="4.66255">
        <ele>431</ele>
        <time>2010-02-18T11:21:27Z</time>
      </trkpt>
      <trkpt lat="45.50815" lon="4.66254">
        <ele>431</ele>
        <time>2010-02-18T11:21:28Z</time>
      </trkpt>
      <trkpt lat="45.50805" lon="4.66238">
        <ele>437</ele>
        <time>2010-02-18T11:21:43Z</time>
      </trkpt>
      <trkpt lat="45.508" lon="4.6623">
        <ele>438</ele>
        <time>2010-02-18T11:21:49Z</time>
      </trkpt>
      <trkpt lat="45.50796" lon="4.6622">
        <ele>439</ele>
        <time>2010-02-18T11:21:57Z</time>
      </trkpt>
      <trkpt lat="45.5079" lon="4.66211">
        <ele>439</ele>
        <time>2010-02-18T11:22:05Z</time>
      </trkpt>
      <trkpt lat="45.50785" lon="4.66201">
        <ele>440</ele>
        <time>2010-02-18T11:22:14Z</time>
      </trkpt>
      <trkpt lat="45.50778" lon="4.66196">
        <ele>440</ele>
        <time>2010-02-18T11:22:21Z</time>
      </trkpt>
      <trkpt lat="45.50769" lon="4.66194">
        <ele>441</ele>
        <time>2010-02-18T11:22:29Z</time>
      </trkpt>
      <trkpt lat="45.50768" lon="4.66194">
        <ele>441</ele>
        <time>2010-02-18T11:22:30Z</time>
      </trkpt>
      <trkpt lat="45.50753" lon="4.662">
        <ele>440</ele>
        <time>2010-02-18T11:22:45Z</time>
      </trkpt>
      <trkpt lat="45.50745" lon="4.66202">
        <ele>440</ele>
        <time>2010-02-18T11:22:55Z</time>
      </trkpt>
      <trkpt lat="45.50738" lon="4.66205">
        <ele>440</ele>
        <time>2010-02-18T11:23:02Z</time>
      </trkpt>
      <trkpt lat="45.50729" lon="4.66209">
        <ele>440</ele>
        <time>2010-02-18T11:23:10Z</time>
      </trkpt>
      <trkpt lat="45.50721" lon="4.66208">
        <ele>440</ele>
        <time>2010-02-18T11:23:22Z</time>
      </trkpt>
      <trkpt lat="45.50713" lon="4.66207">
        <ele>441</ele>
        <time>2010-02-18T11:23:30Z</time>
      </trkpt>
      <trkpt lat="45.50711" lon="4.66207">
        <ele>441</ele>
        <time>2010-02-18T11:23:31Z</time>
      </trkpt>
      <trkpt lat="45.50696" lon="4.66205">
        <ele>442</ele>
        <time>2010-02-18T11:23:43Z</time>
      </trkpt>
      <trkpt lat="45.50688" lon="4.66207">
        <ele>442</ele>
        <time>2010-02-18T11:23:52Z</time>
      </trkpt>
      <trkpt lat="45.5068" lon="4.66204">
        <ele>442</ele>
        <time>2010-02-18T11:23:59Z</time>
      </trkpt>
      <trkpt lat="45.50672" lon="4.66201">
        <ele>443</ele>
        <time>2010-02-18T11:24:05Z</time>
      </trkpt>
      <trkpt lat="45.50664" lon="4.66199">
        <ele>448</ele>
        <time>2010-02-18T11:24:12Z</time>
      </trkpt>
      <trkpt lat="45.50656" lon="4.662">
        <ele>448</ele>
        <time>2010-02-18T11:24:19Z</time>
      </trkpt>
      <trkpt lat="45.50649" lon="4.66205">
        <ele>447</ele>
        <time>2010-02-18T11:24:24Z</time>
      </trkpt>
      <trkpt lat="45.50641" lon="4.66208">
        <ele>448</ele>
        <time>2010-02-18T11:24:33Z</time>
      </trkpt>
      <trkpt lat="45.5064" lon="4.6621">
        <ele>447</ele>
        <time>2010-02-18T11:24:34Z</time>
      </trkpt>
      <trkpt lat="45.50627" lon="4.66217">
        <ele>448</ele>
        <time>2010-02-18T11:24:47Z</time>
      </trkpt>
      <trkpt lat="45.50622" lon="4.66207">
        <ele>448</ele>
        <time>2010-02-18T11:24:59Z</time>
      </trkpt>
      <trkpt lat="45.50614" lon="4.66205">
        <ele>449</ele>
        <time>2010-02-18T11:25:05Z</time>
      </trkpt>
      <trkpt lat="45.50607" lon="4.66208">
        <ele>449</ele>
        <time>2010-02-18T11:25:14Z</time>
      </trkpt>
      <trkpt lat="45.50598" lon="4.66211">
        <ele>449</ele>
        <time>2010-02-18T11:25:22Z</time>
      </trkpt>
      <trkpt lat="45.5059" lon="4.66207">
        <ele>450</ele>
        <time>2010-02-18T11:25:31Z</time>
      </trkpt>
      <trkpt lat="45.50583" lon="4.66201">
        <ele>455</ele>
        <time>2010-02-18T11:25:42Z</time>
      </trkpt>
      <trkpt lat="45.50582" lon="4.66201">
        <ele>455</ele>
        <time>2010-02-18T11:25:43Z</time>
      </trkpt>
      <trkpt lat="45.50567" lon="4.66195">
        <ele>456</ele>
        <time>2010-02-18T11:25:55Z</time>
      </trkpt>
      <trkpt lat="45.50559" lon="4.66191">
        <ele>456</ele>
        <time>2010-02-18T11:26:07Z</time>
      </trkpt>
      <trkpt lat="45.50551" lon="4.66186">
        <ele>456</ele>
        <time>2010-02-18T11:26:22Z</time>
      </trkpt>
      <trkpt lat="45.50543" lon="4.6618">
        <ele>457</ele>
        <time>2010-02-18T11:26:36Z</time>
      </trkpt>
      <trkpt lat="45.50537" lon="4.66173">
        <ele>457</ele>
        <time>2010-02-18T11:26:41Z</time>
      </trkpt>
      <trkpt lat="45.50529" lon="4.66171">
        <ele>457</ele>
        <time>2010-02-18T11:26:50Z</time>
      </trkpt>
      <trkpt lat="45.50528" lon="4.66171">
        <ele>457</ele>
        <time>2010-02-18T11:26:51Z</time>
      </trkpt>
      <trkpt lat="45.50527" lon="4.66181">
        <ele>457</ele>
        <time>2010-02-18T11:27:48Z</time>
      </trkpt>
      <trkpt lat="45.50519" lon="4.66175">
        <ele>458</ele>
        <time>2010-02-18T11:29:04Z</time>
      </trkpt>
      <trkpt lat="45.50519" lon="4.66174">
        <ele>458</ele>
        <time>2010-02-18T11:29:05Z</time>
      </trkpt>
      <trkpt lat="45.50527" lon="4.66196">
        <ele>457</ele>
        <time>2010-02-18T11:30:09Z</time>
      </trkpt>
      <trkpt lat="45.50528" lon="4.66198">
        <ele>457</ele>
        <time>2010-02-18T11:30:10Z</time>
      </trkpt>
      <trkpt lat="45.50537" lon="4.66216">
        <ele>456</ele>
        <time>2010-02-18T11:30:23Z</time>
      </trkpt>
      <trkpt lat="45.50542" lon="4.66225">
        <ele>456</ele>
        <time>2010-02-18T11:30:29Z</time>
      </trkpt>
      <trkpt lat="45.50549" lon="4.66233">
        <ele>455</ele>
        <time>2010-02-18T11:30:39Z</time>
      </trkpt>
      <trkpt lat="45.50555" lon="4.6624">
        <ele>455</ele>
        <time>2010-02-18T11:30:45Z</time>
      </trkpt>
      <trkpt lat="45.50561" lon="4.66248">
        <ele>454</ele>
        <time>2010-02-18T11:30:51Z</time>
      </trkpt>
      <trkpt lat="45.50566" lon="4.66257">
        <ele>452</ele>
        <time>2010-02-18T11:30:57Z</time>
      </trkpt>
      <trkpt lat="45.50572" lon="4.66267">
        <ele>452</ele>
        <time>2010-02-18T11:31:04Z</time>
      </trkpt>
      <trkpt lat="45.50577" lon="4.66277">
        <ele>452</ele>
        <time>2010-02-18T11:31:13Z</time>
      </trkpt>
      <trkpt lat="45.50577" lon="4.66279">
        <ele>452</ele>
        <time>2010-02-18T11:31:14Z</time>
      </trkpt>
      <trkpt lat="45.50588" lon="4.66294">
        <ele>446</ele>
        <time>2010-02-18T11:31:25Z</time>
      </trkpt>
      <trkpt lat="45.50594" lon="4.66304">
        <ele>446</ele>
        <time>2010-02-18T11:31:34Z</time>
      </trkpt>
      <trkpt lat="45.50599" lon="4.66315">
        <ele>446</ele>
        <time>2010-02-18T11:31:41Z</time>
      </trkpt>
      <trkpt lat="45.50604" lon="4.66323">
        <ele>446</ele>
        <time>2010-02-18T11:31:47Z</time>
      </trkpt>
      <trkpt lat="45.50609" lon="4.66333">
        <ele>446</ele>
        <time>2010-02-18T11:31:54Z</time>
      </trkpt>
      <trkpt lat="45.50614" lon="4.66343">
        <ele>444</ele>
        <time>2010-02-18T11:32:01Z</time>
      </trkpt>
      <trkpt lat="45.50615" lon="4.66354">
        <ele>443</ele>
        <time>2010-02-18T11:32:08Z</time>
      </trkpt>
      <trkpt lat="45.50615" lon="4.66366">
        <ele>443</ele>
        <time>2010-02-18T11:32:15Z</time>
      </trkpt>
      <trkpt lat="45.50615" lon="4.66367">
        <ele>443</ele>
        <time>2010-02-18T11:32:16Z</time>
      </trkpt>
      <trkpt lat="45.50609" lon="4.66389">
        <ele>442</ele>
        <time>2010-02-18T11:32:39Z</time>
      </trkpt>
      <trkpt lat="45.50601" lon="4.66392">
        <ele>443</ele>
        <time>2010-02-18T11:32:49Z</time>
      </trkpt>
      <trkpt lat="45.50592" lon="4.66393">
        <ele>443</ele>
        <time>2010-02-18T11:32:58Z</time>
      </trkpt>
      <trkpt lat="45.50584" lon="4.6639">
        <ele>443</ele>
        <time>2010-02-18T11:33:08Z</time>
      </trkpt>
      <trkpt lat="45.50575" lon="4.66387">
        <ele>448</ele>
        <time>2010-02-18T11:33:18Z</time>
      </trkpt>
      <trkpt lat="45.50574" lon="4.66386">
        <ele>448</ele>
        <time>2010-02-18T11:33:19Z</time>
      </trkpt>
      <trkpt lat="45.5056" lon="4.66379">
        <ele>449</ele>
        <time>2010-02-18T11:33:39Z</time>
      </trkpt>
      <trkpt lat="45.50553" lon="4.66371">
        <ele>449</ele>
        <time>2010-02-18T11:33:48Z</time>
      </trkpt>
      <trkpt lat="45.50545" lon="4.66367">
        <ele>450</ele>
        <time>2010-02-18T11:33:59Z</time>
      </trkpt>
      <trkpt lat="45.50537" lon="4.66361">
        <ele>450</ele>
        <time>2010-02-18T11:34:09Z</time>
      </trkpt>
      <trkpt lat="45.5053" lon="4.66356">
        <ele>451</ele>
        <time>2010-02-18T11:34:18Z</time>
      </trkpt>
      <trkpt lat="45.50522" lon="4.66351">
        <ele>452</ele>
        <time>2010-02-18T11:34:27Z</time>
      </trkpt>
      <trkpt lat="45.50521" lon="4.6635">
        <ele>452</ele>
        <time>2010-02-18T11:34:28Z</time>
      </trkpt>
      <trkpt lat="45.50507" lon="4.6634">
        <ele>454</ele>
        <time>2010-02-18T11:34:45Z</time>
      </trkpt>
      <trkpt lat="45.50499" lon="4.66335">
        <ele>456</ele>
        <time>2010-02-18T11:34:55Z</time>
      </trkpt>
      <trkpt lat="45.50492" lon="4.66329">
        <ele>458</ele>
        <time>2010-02-18T11:35:04Z</time>
      </trkpt>
      <trkpt lat="45.50484" lon="4.66323">
        <ele>460</ele>
        <time>2010-02-18T11:35:12Z</time>
      </trkpt>
      <trkpt lat="45.50476" lon="4.66318">
        <ele>461</ele>
        <time>2010-02-18T11:35:22Z</time>
      </trkpt>
      <trkpt lat="45.50469" lon="4.66313">
        <ele>462</ele>
        <time>2010-02-18T11:35:33Z</time>
      </trkpt>
      <trkpt lat="45.50468" lon="4.66312">
        <ele>462</ele>
        <time>2010-02-18T11:35:34Z</time>
      </trkpt>
      <trkpt lat="45.50452" lon="4.66312">
        <ele>464</ele>
        <time>2010-02-18T11:35:57Z</time>
      </trkpt>
      <trkpt lat="45.50445" lon="4.6632">
        <ele>464</ele>
        <time>2010-02-18T11:36:07Z</time>
      </trkpt>
      <trkpt lat="45.50437" lon="4.66318">
        <ele>465</ele>
        <time>2010-02-18T11:36:12Z</time>
      </trkpt>
      <trkpt lat="45.50429" lon="4.66323">
        <ele>466</ele>
        <time>2010-02-18T11:36:20Z</time>
      </trkpt>
      <trkpt lat="45.50421" lon="4.66328">
        <ele>467</ele>
        <time>2010-02-18T11:36:29Z</time>
      </trkpt>
      <trkpt lat="45.50415" lon="4.66334">
        <ele>468</ele>
        <time>2010-02-18T11:36:36Z</time>
      </trkpt>
      <trkpt lat="45.50414" lon="4.66335">
        <ele>468</ele>
        <time>2010-02-18T11:36:37Z</time>
      </trkpt>
      <trkpt lat="45.50401" lon="4.66347">
        <ele>470</ele>
        <time>2010-02-18T11:36:52Z</time>
      </trkpt>
      <trkpt lat="45.50394" lon="4.66355">
        <ele>470</ele>
        <time>2010-02-18T11:37:48Z</time>
      </trkpt>
      <trkpt lat="45.50394" lon="4.66355">
        <ele>470</ele>
        <time>2010-02-18T11:37:49Z</time>
      </trkpt>
      <trkpt lat="45.50386" lon="4.66363">
        <ele>471</ele>
        <time>2010-02-18T11:39:56Z</time>
      </trkpt>
      <trkpt lat="45.50372" lon="4.66373">
        <ele>471</ele>
        <time>2010-02-18T11:40:13Z</time>
      </trkpt>
      <trkpt lat="45.50365" lon="4.66379">
        <ele>472</ele>
        <time>2010-02-18T11:40:22Z</time>
      </trkpt>
      <trkpt lat="45.50358" lon="4.66385">
        <ele>472</ele>
        <time>2010-02-18T11:40:32Z</time>
      </trkpt>
      <trkpt lat="45.50351" lon="4.66393">
        <ele>472</ele>
        <time>2010-02-18T11:40:42Z</time>
      </trkpt>
      <trkpt lat="45.50344" lon="4.66401">
        <ele>473</ele>
        <time>2010-02-18T11:40:52Z</time>
      </trkpt>
      <trkpt lat="45.50337" lon="4.66408">
        <ele>473</ele>
        <time>2010-02-18T11:41:01Z</time>
      </trkpt>
      <trkpt lat="45.50336" lon="4.66409">
        <ele>473</ele>
        <time>2010-02-18T11:41:02Z</time>
      </trkpt>
      <trkpt lat="45.50324" lon="4.66422">
        <ele>476</ele>
        <time>2010-02-18T11:41:28Z</time>
      </trkpt>
      <trkpt lat="45.50318" lon="4.66432">
        <ele>477</ele>
        <time>2010-02-18T11:41:38Z</time>
      </trkpt>
      <trkpt lat="45.50314" lon="4.66442">
        <ele>477</ele>
        <time>2010-02-18T11:41:47Z</time>
      </trkpt>
      <trkpt lat="45.5031" lon="4.66453">
        <ele>477</ele>
        <time>2010-02-18T11:41:55Z</time>
      </trkpt>
      <trkpt lat="45.50304" lon="4.66461">
        <ele>478</ele>
        <time>2010-02-18T11:42:04Z</time>
      </trkpt>
      <trkpt lat="45.50303" lon="4.66462">
        <ele>478</ele>
        <time>2010-02-18T11:42:05Z</time>
      </trkpt>
      <trkpt lat="45.50289" lon="4.66475">
        <ele>478</ele>
        <time>2010-02-18T11:42:23Z</time>
      </trkpt>
      <trkpt lat="45.50282" lon="4.66482">
        <ele>478</ele>
        <time>2010-02-18T11:42:33Z</time>
      </trkpt>
      <trkpt lat="45.50274" lon="4.66485">
        <ele>479</ele>
        <time>2010-02-18T11:42:42Z</time>
      </trkpt>
      <trkpt lat="45.50267" lon="4.66492">
        <ele>479</ele>
        <time>2010-02-18T11:42:50Z</time>
      </trkpt>
      <trkpt lat="45.5026" lon="4.66497">
        <ele>479</ele>
        <time>2010-02-18T11:42:58Z</time>
      </trkpt>
      <trkpt lat="45.50252" lon="4.66504">
        <ele>479</ele>
        <time>2010-02-18T11:43:08Z</time>
      </trkpt>
      <trkpt lat="45.50251" lon="4.66504">
        <ele>479</ele>
        <time>2010-02-18T11:43:09Z</time>
      </trkpt>
      <trkpt lat="45.50235" lon="4.66506">
        <ele>478</ele>
        <time>2010-02-18T11:43:25Z</time>
      </trkpt>
      <trkpt lat="45.50227" lon="4.66507">
        <ele>478</ele>
        <time>2010-02-18T11:43:33Z</time>
      </trkpt>
      <trkpt lat="45.50219" lon="4.66507">
        <ele>477</ele>
        <time>2010-02-18T11:43:40Z</time>
      </trkpt>
      <trkpt lat="45.5021" lon="4.66507">
        <ele>477</ele>
        <time>2010-02-18T11:43:48Z</time>
      </trkpt>
      <trkpt lat="45.50201" lon="4.66508">
        <ele>477</ele>
        <time>2010-02-18T11:43:57Z</time>
      </trkpt>
      <trkpt lat="45.50193" lon="4.6651">
        <ele>477</ele>
        <time>2010-02-18T11:44:05Z</time>
      </trkpt>
      <trkpt lat="45.50185" lon="4.66513">
        <ele>477</ele>
        <time>2010-02-18T11:44:12Z</time>
      </trkpt>
      <trkpt lat="45.50183" lon="4.66513">
        <ele>477</ele>
        <time>2010-02-18T11:44:13Z</time>
      </trkpt>
      <trkpt lat="45.50168" lon="4.66513">
        <ele>477</ele>
        <time>2010-02-18T11:44:27Z</time>
      </trkpt>
      <trkpt lat="45.5016" lon="4.66515">
        <ele>478</ele>
        <time>2010-02-18T11:44:35Z</time>
      </trkpt>
      <trkpt lat="45.50152" lon="4.66518">
        <ele>478</ele>
        <time>2010-02-18T11:44:43Z</time>
      </trkpt>
      <trkpt lat="45.50144" lon="4.66521">
        <ele>478</ele>
        <time>2010-02-18T11:44:52Z</time>
      </trkpt>
      <trkpt lat="45.50136" lon="4.6652">
        <ele>478</ele>
        <time>2010-02-18T11:44:59Z</time>
      </trkpt>
      <trkpt lat="45.50127" lon="4.66523">
        <ele>478</ele>
        <time>2010-02-18T11:45:11Z</time>
      </trkpt>
      <trkpt lat="45.50118" lon="4.66527">
        <ele>479</ele>
        <time>2010-02-18T11:45:21Z</time>
      </trkpt>
      <trkpt lat="45.50117" lon="4.66527">
        <ele>479</ele>
        <time>2010-02-18T11:45:22Z</time>
      </trkpt>
      <trkpt lat="45.50101" lon="4.66533">
        <ele>479</ele>
        <time>2010-02-18T11:45:39Z</time>
      </trkpt>
      <trkpt lat="45.50094" lon="4.66539">
        <ele>479</ele>
        <time>2010-02-18T11:45:48Z</time>
      </trkpt>
      <trkpt lat="45.50087" lon="4.66547">
        <ele>479</ele>
        <time>2010-02-18T11:45:57Z</time>
      </trkpt>
      <trkpt lat="45.5008" lon="4.66555">
        <ele>485</ele>
        <time>2010-02-18T11:46:05Z</time>
      </trkpt>
      <trkpt lat="45.50074" lon="4.66563">
        <ele>484</ele>
        <time>2010-02-18T11:46:14Z</time>
      </trkpt>
      <trkpt lat="45.50068" lon="4.66571">
        <ele>484</ele>
        <time>2010-02-18T11:46:22Z</time>
      </trkpt>
      <trkpt lat="45.50067" lon="4.66572">
        <ele>484</ele>
        <time>2010-02-18T11:46:23Z</time>
      </trkpt>
      <trkpt lat="45.50056" lon="4.66588">
        <ele>482</ele>
        <time>2010-02-18T11:46:39Z</time>
      </trkpt>
      <trkpt lat="45.5005" lon="4.66595">
        <ele>483</ele>
        <time>2010-02-18T11:46:48Z</time>
      </trkpt>
      <trkpt lat="45.50043" lon="4.66603">
        <ele>483</ele>
        <time>2010-02-18T11:46:58Z</time>
      </trkpt>
      <trkpt lat="45.50036" lon="4.66611">
        <ele>484</ele>
        <time>2010-02-18T11:47:08Z</time>
      </trkpt>
      <trkpt lat="45.5003" lon="4.66619">
        <ele>484</ele>
        <time>2010-02-18T11:47:18Z</time>
      </trkpt>
      <trkpt lat="45.50024" lon="4.66628">
        <ele>484</ele>
        <time>2010-02-18T11:47:28Z</time>
      </trkpt>
      <trkpt lat="45.50024" lon="4.66629">
        <ele>484</ele>
        <time>2010-02-18T11:47:29Z</time>
      </trkpt>
      <trkpt lat="45.50012" lon="4.66645">
        <ele>485</ele>
        <time>2010-02-18T11:47:49Z</time>
      </trkpt>
      <trkpt lat="45.50006" lon="4.66655">
        <ele>486</ele>
        <time>2010-02-18T11:48:00Z</time>
      </trkpt>
      <trkpt lat="45.49999" lon="4.66663">
        <ele>489</ele>
        <time>2010-02-18T11:48:12Z</time>
      </trkpt>
      <trkpt lat="45.49994" lon="4.66672">
        <ele>489</ele>
        <time>2010-02-18T11:48:20Z</time>
      </trkpt>
      <trkpt lat="45.49987" lon="4.66679">
        <ele>490</ele>
        <time>2010-02-18T11:48:29Z</time>
      </trkpt>
      <trkpt lat="45.49987" lon="4.6668">
        <ele>490</ele>
        <time>2010-02-18T11:48:30Z</time>
      </trkpt>
      <trkpt lat="45.49976" lon="4.66696">
        <ele>490</ele>
        <time>2010-02-18T11:48:47Z</time>
      </trkpt>
      <trkpt lat="45.49969" lon="4.66703">
        <ele>491</ele>
        <time>2010-02-18T11:48:56Z</time>
      </trkpt>
      <trkpt lat="45.49961" lon="4.66709">
        <ele>491</ele>
        <time>2010-02-18T11:49:05Z</time>
      </trkpt>
      <trkpt lat="45.49954" lon="4.66714">
        <ele>491</ele>
        <time>2010-02-18T11:49:14Z</time>
      </trkpt>
      <trkpt lat="45.49946" lon="4.6672">
        <ele>491</ele>
        <time>2010-02-18T11:49:24Z</time>
      </trkpt>
      <trkpt lat="45.49938" lon="4.66723">
        <ele>492</ele>
        <time>2010-02-18T11:49:34Z</time>
      </trkpt>
      <trkpt lat="45.49937" lon="4.66724">
        <ele>492</ele>
        <time>2010-02-18T11:49:35Z</time>
      </trkpt>
      <trkpt lat="45.49921" lon="4.6673">
        <ele>492</ele>
        <time>2010-02-18T11:49:53Z</time>
      </trkpt>
      <trkpt lat="45.49913" lon="4.66735">
        <ele>495</ele>
        <time>2010-02-18T11:50:01Z</time>
      </trkpt>
      <trkpt lat="45.49907" lon="4.66742">
        <ele>495</ele>
        <time>2010-02-18T11:50:08Z</time>
      </trkpt>
      <trkpt lat="45.49899" lon="4.66746">
        <ele>495</ele>
        <time>2010-02-18T11:50:16Z</time>
      </trkpt>
      <trkpt lat="45.4989" lon="4.66748">
        <ele>496</ele>
        <time>2010-02-18T11:50:24Z</time>
      </trkpt>
      <trkpt lat="45.49882" lon="4.66747">
        <ele>496</ele>
        <time>2010-02-18T11:50:31Z</time>
      </trkpt>
      <trkpt lat="45.49873" lon="4.66747">
        <ele>497</ele>
        <time>2010-02-18T11:50:38Z</time>
      </trkpt>
      <trkpt lat="45.49872" lon="4.66747">
        <ele>497</ele>
        <time>2010-02-18T11:50:39Z</time>
      </trkpt>
      <trkpt lat="45.49856" lon="4.66746">
        <ele>497</ele>
        <time>2010-02-18T11:50:52Z</time>
      </trkpt>
      <trkpt lat="45.49848" lon="4.66747">
        <ele>496</ele>
        <time>2010-02-18T11:50:59Z</time>
      </trkpt>
      <trkpt lat="45.49839" lon="4.66745">
        <ele>496</ele>
        <time>2010-02-18T11:51:07Z</time>
      </trkpt>
      <trkpt lat="45.49831" lon="4.66742">
        <ele>495</ele>
        <time>2010-02-18T11:51:15Z</time>
      </trkpt>
      <trkpt lat="45.49823" lon="4.66739">
        <ele>495</ele>
        <time>2010-02-18T11:51:23Z</time>
      </trkpt>
      <trkpt lat="45.49815" lon="4.66736">
        <ele>495</ele>
        <time>2010-02-18T11:51:32Z</time>
      </trkpt>
      <trkpt lat="45.49808" lon="4.66731">
        <ele>495</ele>
        <time>2010-02-18T11:51:39Z</time>
      </trkpt>
      <trkpt lat="45.49807" lon="4.66731">
        <ele>495</ele>
        <time>2010-02-18T11:51:40Z</time>
      </trkpt>
      <trkpt lat="45.49793" lon="4.66718">
        <ele>495</ele>
        <time>2010-02-18T11:51:56Z</time>
      </trkpt>
      <trkpt lat="45.49784" lon="4.66714">
        <ele>495</ele>
        <time>2010-02-18T11:52:05Z</time>
      </trkpt>
      <trkpt lat="45.49777" lon="4.66709">
        <ele>495</ele>
        <time>2010-02-18T11:52:14Z</time>
      </trkpt>
      <trkpt lat="45.4977" lon="4.66703">
        <ele>496</ele>
        <time>2010-02-18T11:52:26Z</time>
      </trkpt>
      <trkpt lat="45.49763" lon="4.66697">
        <ele>496</ele>
        <time>2010-02-18T11:52:34Z</time>
      </trkpt>
      <trkpt lat="45.49755" lon="4.66692">
        <ele>496</ele>
        <time>2010-02-18T11:52:41Z</time>
      </trkpt>
      <trkpt lat="45.49754" lon="4.66692">
        <ele>496</ele>
        <time>2010-02-18T11:52:42Z</time>
      </trkpt>
      <trkpt lat="45.4974" lon="4.66682">
        <ele>493</ele>
        <time>2010-02-18T11:52:57Z</time>
      </trkpt>
      <trkpt lat="45.49733" lon="4.66676">
        <ele>493</ele>
        <time>2010-02-18T11:53:05Z</time>
      </trkpt>
      <trkpt lat="45.49725" lon="4.6667">
        <ele>492</ele>
        <time>2010-02-18T11:53:14Z</time>
      </trkpt>
      <trkpt lat="45.49718" lon="4.66666">
        <ele>499</ele>
        <time>2010-02-18T11:53:23Z</time>
      </trkpt>
      <trkpt lat="45.49711" lon="4.6666">
        <ele>499</ele>
        <time>2010-02-18T11:53:33Z</time>
      </trkpt>
      <trkpt lat="45.49703" lon="4.66655">
        <ele>498</ele>
        <time>2010-02-18T11:53:42Z</time>
      </trkpt>
      <trkpt lat="45.49702" lon="4.66654">
        <ele>498</ele>
        <time>2010-02-18T11:53:43Z</time>
      </trkpt>
      <trkpt lat="45.49688" lon="4.66643">
        <ele>498</ele>
        <time>2010-02-18T11:54:01Z</time>
      </trkpt>
      <trkpt lat="45.49681" lon="4.66637">
        <ele>498</ele>
        <time>2010-02-18T11:54:12Z</time>
      </trkpt>
      <trkpt lat="45.49674" lon="4.66629">
        <ele>498</ele>
        <time>2010-02-18T11:54:19Z</time>
      </trkpt>
      <trkpt lat="45.49669" lon="4.66621">
        <ele>499</ele>
        <time>2010-02-18T11:54:25Z</time>
      </trkpt>
      <trkpt lat="45.49663" lon="4.66611">
        <ele>493</ele>
        <time>2010-02-18T11:54:32Z</time>
      </trkpt>
      <trkpt lat="45.49659" lon="4.66601">
        <ele>495</ele>
        <time>2010-02-18T11:54:38Z</time>
      </trkpt>
      <trkpt lat="45.49653" lon="4.66593">
        <ele>496</ele>
        <time>2010-02-18T11:54:45Z</time>
      </trkpt>
      <trkpt lat="45.49652" lon="4.66591">
        <ele>496</ele>
        <time>2010-02-18T11:54:46Z</time>
      </trkpt>
      <trkpt lat="45.49645" lon="4.6657">
        <ele>499</ele>
        <time>2010-02-18T11:54:59Z</time>
      </trkpt>
      <trkpt lat="45.49642" lon="4.66559">
        <ele>499</ele>
        <time>2010-02-18T11:55:06Z</time>
      </trkpt>
      <trkpt lat="45.49641" lon="4.66547">
        <ele>499</ele>
        <time>2010-02-18T11:55:14Z</time>
      </trkpt>
      <trkpt lat="45.49637" lon="4.66536">
        <ele>499</ele>
        <time>2010-02-18T11:55:21Z</time>
      </trkpt>
      <trkpt lat="45.49635" lon="4.66523">
        <ele>500</ele>
        <time>2010-02-18T11:55:31Z</time>
      </trkpt>
      <trkpt lat="45.49632" lon="4.66512">
        <ele>500</ele>
        <time>2010-02-18T11:55:51Z</time>
      </trkpt>
      <trkpt lat="45.49632" lon="4.66511">
        <ele>500</ele>
        <time>2010-02-18T11:55:52Z</time>
      </trkpt>
      <trkpt lat="45.49616" lon="4.66507">
        <ele>499</ele>
        <time>2010-02-18T11:56:15Z</time>
      </trkpt>
      <trkpt lat="45.49608" lon="4.66506">
        <ele>498</ele>
        <time>2010-02-18T11:56:26Z</time>
      </trkpt>
      <trkpt lat="45.496" lon="4.66508">
        <ele>498</ele>
        <time>2010-02-18T11:56:37Z</time>
      </trkpt>
      <trkpt lat="45.49592" lon="4.66507">
        <ele>498</ele>
        <time>2010-02-18T11:56:42Z</time>
      </trkpt>
      <trkpt lat="45.49584" lon="4.66507">
        <ele>498</ele>
        <time>2010-02-18T11:56:52Z</time>
      </trkpt>
      <trkpt lat="45.49576" lon="4.66505">
        <ele>497</ele>
        <time>2010-02-18T11:56:58Z</time>
      </trkpt>
      <trkpt lat="45.49574" lon="4.66505">
        <ele>497</ele>
        <time>2010-02-18T11:56:59Z</time>
      </trkpt>
      <trkpt lat="45.49559" lon="4.66503">
        <ele>497</ele>
        <time>2010-02-18T11:57:11Z</time>
      </trkpt>
      <trkpt lat="45.49552" lon="4.66498">
        <ele>505</ele>
        <time>2010-02-18T11:57:22Z</time>
      </trkpt>
      <trkpt lat="45.49544" lon="4.66494">
        <ele>506</ele>
        <time>2010-02-18T11:57:31Z</time>
      </trkpt>
      <trkpt lat="45.49535" lon="4.66493">
        <ele>507</ele>
        <time>2010-02-18T11:57:42Z</time>
      </trkpt>
      <trkpt lat="45.49526" lon="4.66492">
        <ele>507</ele>
        <time>2010-02-18T11:57:50Z</time>
      </trkpt>
      <trkpt lat="45.49517" lon="4.6649">
        <ele>507</ele>
        <time>2010-02-18T11:57:57Z</time>
      </trkpt>
      <trkpt lat="45.49509" lon="4.66491">
        <ele>506</ele>
        <time>2010-02-18T11:58:10Z</time>
      </trkpt>
      <trkpt lat="45.49507" lon="4.66492">
        <ele>506</ele>
        <time>2010-02-18T11:58:11Z</time>
      </trkpt>
      <trkpt lat="45.49492" lon="4.66488">
        <ele>509</ele>
        <time>2010-02-18T11:58:34Z</time>
      </trkpt>
      <trkpt lat="45.49483" lon="4.66486">
        <ele>510</ele>
        <time>2010-02-18T11:58:40Z</time>
      </trkpt>
      <trkpt lat="45.49475" lon="4.66486">
        <ele>511</ele>
        <time>2010-02-18T11:58:46Z</time>
      </trkpt>
      <trkpt lat="45.49466" lon="4.66485">
        <ele>512</ele>
        <time>2010-02-18T11:58:57Z</time>
      </trkpt>
      <trkpt lat="45.49457" lon="4.66487">
        <ele>512</ele>
        <time>2010-02-18T11:59:07Z</time>
      </trkpt>
      <trkpt lat="45.49449" lon="4.66487">
        <ele>512</ele>
        <time>2010-02-18T11:59:14Z</time>
      </trkpt>
      <trkpt lat="45.49447" lon="4.66486">
        <ele>512</ele>
        <time>2010-02-18T11:59:15Z</time>
      </trkpt>
      <trkpt lat="45.49432" lon="4.66485">
        <ele>513</ele>
        <time>2010-02-18T11:59:31Z</time>
      </trkpt>
      <trkpt lat="45.49424" lon="4.66484">
        <ele>513</ele>
        <time>2010-02-18T11:59:41Z</time>
      </trkpt>
      <trkpt lat="45.49416" lon="4.6648">
        <ele>515</ele>
        <time>2010-02-18T11:59:49Z</time>
      </trkpt>
      <trkpt lat="45.49407" lon="4.66478">
        <ele>516</ele>
        <time>2010-02-18T11:59:58Z</time>
      </trkpt>
      <trkpt lat="45.49399" lon="4.66475">
        <ele>517</ele>
        <time>2010-02-18T12:00:08Z</time>
      </trkpt>
      <trkpt lat="45.49391" lon="4.66473">
        <ele>517</ele>
        <time>2010-02-18T12:00:20Z</time>
      </trkpt>
      <trkpt lat="45.4939" lon="4.66472">
        <ele>517</ele>
        <time>2010-02-18T12:00:21Z</time>
      </trkpt>
      <trkpt lat="45.49375" lon="4.66463">
        <ele>519</ele>
        <time>2010-02-18T12:00:45Z</time>
      </trkpt>
      <trkpt lat="45.49367" lon="4.6646">
        <ele>519</ele>
        <time>2010-02-18T12:00:58Z</time>
      </trkpt>
      <trkpt lat="45.49359" lon="4.66457">
        <ele>519</ele>
        <time>2010-02-18T12:01:06Z</time>
      </trkpt>
      <trkpt lat="45.49351" lon="4.66452">
        <ele>520</ele>
        <time>2010-02-18T12:01:15Z</time>
      </trkpt>
      <trkpt lat="45.49343" lon="4.66448">
        <ele>520</ele>
        <time>2010-02-18T12:01:24Z</time>
      </trkpt>
      <trkpt lat="45.49342" lon="4.66447">
        <ele>520</ele>
        <time>2010-02-18T12:01:25Z</time>
      </trkpt>
      <trkpt lat="45.49328" lon="4.66435">
        <ele>524</ele>
        <time>2010-02-18T12:01:45Z</time>
      </trkpt>
      <trkpt lat="45.49321" lon="4.66428">
        <ele>524</ele>
        <time>2010-02-18T12:01:58Z</time>
      </trkpt>
      <trkpt lat="45.49315" lon="4.6642">
        <ele>524</ele>
        <time>2010-02-18T12:02:11Z</time>
      </trkpt>
      <trkpt lat="45.49308" lon="4.66411">
        <ele>525</ele>
        <time>2010-02-18T12:02:27Z</time>
      </trkpt>
      <trkpt lat="45.49308" lon="4.6641">
        <ele>525</ele>
        <time>2010-02-18T12:02:28Z</time>
      </trkpt>
      <trkpt lat="45.49293" lon="4.66399">
        <ele>526</ele>
        <time>2010-02-18T12:04:25Z</time>
      </trkpt>
      <trkpt lat="45.49292" lon="4.66398">
        <ele>526</ele>
        <time>2010-02-18T12:04:26Z</time>
      </trkpt>
      <trkpt lat="45.49277" lon="4.66404">
        <ele>526</ele>
        <time>2010-02-18T12:05:29Z</time>
      </trkpt>
      <trkpt lat="45.49276" lon="4.66405">
        <ele>526</ele>
        <time>2010-02-18T12:05:30Z</time>
      </trkpt>
      <trkpt lat="45.4926" lon="4.66406">
        <ele>526</ele>
        <time>2010-02-18T12:05:47Z</time>
      </trkpt>
      <trkpt lat="45.49252" lon="4.66409">
        <ele>526</ele>
        <time>2010-02-18T12:05:58Z</time>
      </trkpt>
      <trkpt lat="45.49244" lon="4.66407">
        <ele>526</ele>
        <time>2010-02-18T12:06:08Z</time>
      </trkpt>
      <trkpt lat="45.49236" lon="4.66405">
        <ele>526</ele>
        <time>2010-02-18T12:06:16Z</time>
      </trkpt>
      <trkpt lat="45.49228" lon="4.66409">
        <ele>526</ele>
        <time>2010-02-18T12:06:26Z</time>
      </trkpt>
      <trkpt lat="45.49219" lon="4.66405">
        <ele>526</ele>
        <time>2010-02-18T12:06:34Z</time>
      </trkpt>
      <trkpt lat="45.49218" lon="4.66405">
        <ele>526</ele>
        <time>2010-02-18T12:06:35Z</time>
      </trkpt>
      <trkpt lat="45.49205" lon="4.66398">
        <ele>526</ele>
        <time>2010-02-18T12:06:45Z</time>
      </trkpt>
      <trkpt lat="45.49196" lon="4.66396">
        <ele>526</ele>
        <time>2010-02-18T12:06:53Z</time>
      </trkpt>
      <trkpt lat="45.49188" lon="4.66393">
        <ele>526</ele>
        <time>2010-02-18T12:07:00Z</time>
      </trkpt>
      <trkpt lat="45.4918" lon="4.66391">
        <ele>526</ele>
        <time>2010-02-18T12:07:08Z</time>
      </trkpt>
      <trkpt lat="45.49171" lon="4.66389">
        <ele>526</ele>
        <time>2010-02-18T12:07:15Z</time>
      </trkpt>
      <trkpt lat="45.49162" lon="4.66387">
        <ele>526</ele>
        <time>2010-02-18T12:07:23Z</time>
      </trkpt>
      <trkpt lat="45.49154" lon="4.66384">
        <ele>525</ele>
        <time>2010-02-18T12:07:30Z</time>
      </trkpt>
      <trkpt lat="45.49146" lon="4.66383">
        <ele>525</ele>
        <time>2010-02-18T12:07:39Z</time>
      </trkpt>
      <trkpt lat="45.49145" lon="4.66383">
        <ele>525</ele>
        <time>2010-02-18T12:07:40Z</time>
      </trkpt>
      <trkpt lat="45.49131" lon="4.66375">
        <ele>525</ele>
        <time>2010-02-18T12:07:53Z</time>
      </trkpt>
      <trkpt lat="45.49122" lon="4.66375">
        <ele>525</ele>
        <time>2010-02-18T12:08:01Z</time>
      </trkpt>
      <trkpt lat="45.49114" lon="4.66372">
        <ele>525</ele>
        <time>2010-02-18T12:08:10Z</time>
      </trkpt>
      <trkpt lat="45.49106" lon="4.66367">
        <ele>524</ele>
        <time>2010-02-18T12:08:18Z</time>
      </trkpt>
      <trkpt lat="45.49098" lon="4.66364">
        <ele>524</ele>
        <time>2010-02-18T12:08:24Z</time>
      </trkpt>
      <trkpt lat="45.49089" lon="4.66364">
        <ele>524</ele>
        <time>2010-02-18T12:08:34Z</time>
      </trkpt>
      <trkpt lat="45.4908" lon="4.66361">
        <ele>523</ele>
        <time>2010-02-18T12:08:42Z</time>
      </trkpt>
      <trkpt lat="45.49079" lon="4.6636">
        <ele>522</ele>
        <time>2010-02-18T12:08:43Z</time>
      </trkpt>
      <trkpt lat="45.49063" lon="4.66357">
        <ele>522</ele>
        <time>2010-02-18T12:08:59Z</time>
      </trkpt>
      <trkpt lat="45.49056" lon="4.66364">
        <ele>523</ele>
        <time>2010-02-18T12:09:13Z</time>
      </trkpt>
      <trkpt lat="45.49048" lon="4.66365">
        <ele>523</ele>
        <time>2010-02-18T12:09:19Z</time>
      </trkpt>
      <trkpt lat="45.4904" lon="4.66367">
        <ele>523</ele>
        <time>2010-02-18T12:09:26Z</time>
      </trkpt>
      <trkpt lat="45.49032" lon="4.66369">
        <ele>523</ele>
        <time>2010-02-18T12:09:37Z</time>
      </trkpt>
      <trkpt lat="45.49024" lon="4.6637">
        <ele>523</ele>
        <time>2010-02-18T12:09:46Z</time>
      </trkpt>
      <trkpt lat="45.49023" lon="4.6637">
        <ele>523</ele>
        <time>2010-02-18T12:09:47Z</time>
      </trkpt>
      <trkpt lat="45.49008" lon="4.66373">
        <ele>523</ele>
        <time>2010-02-18T12:10:01Z</time>
      </trkpt>
      <trkpt lat="45.49" lon="4.66376">
        <ele>523</ele>
        <time>2010-02-18T12:10:10Z</time>
      </trkpt>
      <trkpt lat="45.48992" lon="4.6638">
        <ele>521</ele>
        <time>2010-02-18T12:10:19Z</time>
      </trkpt>
      <trkpt lat="45.48983" lon="4.66381">
        <ele>521</ele>
        <time>2010-02-18T12:10:27Z</time>
      </trkpt>
      <trkpt lat="45.48974" lon="4.66384">
        <ele>521</ele>
        <time>2010-02-18T12:10:35Z</time>
      </trkpt>
      <trkpt lat="45.48966" lon="4.66386">
        <ele>521</ele>
        <time>2010-02-18T12:10:41Z</time>
      </trkpt>
      <trkpt lat="45.48959" lon="4.66392">
        <ele>521</ele>
        <time>2010-02-18T12:10:51Z</time>
      </trkpt>
      <trkpt lat="45.48957" lon="4.66394">
        <ele>521</ele>
        <time>2010-02-18T12:10:52Z</time>
      </trkpt>
      <trkpt lat="45.48943" lon="4.66403">
        <ele>521</ele>
        <time>2010-02-18T12:11:09Z</time>
      </trkpt>
      <trkpt lat="45.48936" lon="4.66408">
        <ele>521</ele>
        <time>2010-02-18T12:11:17Z</time>
      </trkpt>
      <trkpt lat="45.48929" lon="4.66414">
        <ele>522</ele>
        <time>2010-02-18T12:11:25Z</time>
      </trkpt>
      <trkpt lat="45.48922" lon="4.6642">
        <ele>525</ele>
        <time>2010-02-18T12:11:33Z</time>
      </trkpt>
      <trkpt lat="45.48915" lon="4.66426">
        <ele>525</ele>
        <time>2010-02-18T12:11:39Z</time>
      </trkpt>
      <trkpt lat="45.48907" lon="4.66432">
        <ele>526</ele>
        <time>2010-02-18T12:11:50Z</time>
      </trkpt>
      <trkpt lat="45.48901" lon="4.66438">
        <ele>527</ele>
        <time>2010-02-18T12:11:58Z</time>
      </trkpt>
      <trkpt lat="45.48899" lon="4.66439">
        <ele>527</ele>
        <time>2010-02-18T12:11:59Z</time>
      </trkpt>
      <trkpt lat="45.48885" lon="4.66447">
        <ele>528</ele>
        <time>2010-02-18T12:12:12Z</time>
      </trkpt>
      <trkpt lat="45.48878" lon="4.66444">
        <ele>528</ele>
        <time>2010-02-18T12:12:21Z</time>
      </trkpt>
      <trkpt lat="45.48869" lon="4.66443">
        <ele>528</ele>
        <time>2010-02-18T12:12:31Z</time>
      </trkpt>
      <trkpt lat="45.48861" lon="4.66441">
        <ele>527</ele>
        <time>2010-02-18T12:12:42Z</time>
      </trkpt>
      <trkpt lat="45.48852" lon="4.66443">
        <ele>527</ele>
        <time>2010-02-18T12:12:51Z</time>
      </trkpt>
      <trkpt lat="45.48843" lon="4.66442">
        <ele>527</ele>
        <time>2010-02-18T12:13:03Z</time>
      </trkpt>
      <trkpt lat="45.48842" lon="4.66442">
        <ele>527</ele>
        <time>2010-02-18T12:13:04Z</time>
      </trkpt>
      <trkpt lat="45.48826" lon="4.6644">
        <ele>525</ele>
        <time>2010-02-18T12:13:19Z</time>
      </trkpt>
      <trkpt lat="45.48818" lon="4.66445">
        <ele>525</ele>
        <time>2010-02-18T12:13:26Z</time>
      </trkpt>
      <trkpt lat="45.48809" lon="4.66447">
        <ele>525</ele>
        <time>2010-02-18T12:13:34Z</time>
      </trkpt>
      <trkpt lat="45.48801" lon="4.6645">
        <ele>525</ele>
        <time>2010-02-18T12:13:43Z</time>
      </trkpt>
      <trkpt lat="45.48793" lon="4.66453">
        <ele>525</ele>
        <time>2010-02-18T12:13:50Z</time>
      </trkpt>
      <trkpt lat="45.48784" lon="4.66455">
        <ele>525</ele>
        <time>2010-02-18T12:14:00Z</time>
      </trkpt>
      <trkpt lat="45.48775" lon="4.66455">
        <ele>525</ele>
        <time>2010-02-18T12:14:10Z</time>
      </trkpt>
      <trkpt lat="45.48774" lon="4.66455">
        <ele>525</ele>
        <time>2010-02-18T12:14:11Z</time>
      </trkpt>
      <trkpt lat="45.4876" lon="4.66459">
        <ele>525</ele>
        <time>2010-02-18T12:14:27Z</time>
      </trkpt>
      <trkpt lat="45.48752" lon="4.66463">
        <ele>525</ele>
        <time>2010-02-18T12:14:34Z</time>
      </trkpt>
      <trkpt lat="45.48745" lon="4.66463">
        <ele>521</ele>
        <time>2010-02-18T12:14:40Z</time>
      </trkpt>
      <trkpt lat="45.48737" lon="4.66463">
        <ele>520</ele>
        <time>2010-02-18T12:14:46Z</time>
      </trkpt>
      <trkpt lat="45.48729" lon="4.66464">
        <ele>520</ele>
        <time>2010-02-18T12:14:53Z</time>
      </trkpt>
      <trkpt lat="45.48725" lon="4.66476">
        <ele>521</ele>
        <time>2010-02-18T12:15:00Z</time>
      </trkpt>
      <trkpt lat="45.48716" lon="4.66476">
        <ele>520</ele>
        <time>2010-02-18T12:15:07Z</time>
      </trkpt>
      <trkpt lat="45.48707" lon="4.66477">
        <ele>520</ele>
        <time>2010-02-18T12:15:14Z</time>
      </trkpt>
      <trkpt lat="45.48706" lon="4.66477">
        <ele>519</ele>
        <time>2010-02-18T12:15:15Z</time>
      </trkpt>
      <trkpt lat="45.48695" lon="4.66492">
        <ele>520</ele>
        <time>2010-02-18T12:15:30Z</time>
      </trkpt>
      <trkpt lat="45.48688" lon="4.66496">
        <ele>519</ele>
        <time>2010-02-18T12:15:38Z</time>
      </trkpt>
      <trkpt lat="45.4868" lon="4.66503">
        <ele>524</ele>
        <time>2010-02-18T12:15:46Z</time>
      </trkpt>
      <trkpt lat="45.48674" lon="4.6651">
        <ele>523</ele>
        <time>2010-02-18T12:15:54Z</time>
      </trkpt>
      <trkpt lat="45.48665" lon="4.66514">
        <ele>517</ele>
        <time>2010-02-18T12:16:03Z</time>
      </trkpt>
      <trkpt lat="45.48658" lon="4.66516">
        <ele>516</ele>
        <time>2010-02-18T12:16:10Z</time>
      </trkpt>
      <trkpt lat="45.4865" lon="4.66523">
        <ele>514</ele>
        <time>2010-02-18T12:16:19Z</time>
      </trkpt>
      <trkpt lat="45.48649" lon="4.66524">
        <ele>514</ele>
        <time>2010-02-18T12:16:20Z</time>
      </trkpt>
      <trkpt lat="45.48636" lon="4.66535">
        <ele>512</ele>
        <time>2010-02-18T12:16:37Z</time>
      </trkpt>
      <trkpt lat="45.48629" lon="4.66542">
        <ele>512</ele>
        <time>2010-02-18T12:16:44Z</time>
      </trkpt>
      <trkpt lat="45.48622" lon="4.66548">
        <ele>511</ele>
        <time>2010-02-18T12:16:52Z</time>
      </trkpt>
      <trkpt lat="45.48616" lon="4.66556">
        <ele>510</ele>
        <time>2010-02-18T12:17:01Z</time>
      </trkpt>
      <trkpt lat="45.48612" lon="4.66566">
        <ele>509</ele>
        <time>2010-02-18T12:17:13Z</time>
      </trkpt>
      <trkpt lat="45.48609" lon="4.66577">
        <ele>508</ele>
        <time>2010-02-18T12:17:19Z</time>
      </trkpt>
      <trkpt lat="45.48605" lon="4.66588">
        <ele>509</ele>
        <time>2010-02-18T12:17:28Z</time>
      </trkpt>
      <trkpt lat="45.48605" lon="4.6659">
        <ele>509</ele>
        <time>2010-02-18T12:17:29Z</time>
      </trkpt>
      <trkpt lat="45.48599" lon="4.6661">
        <ele>510</ele>
        <time>2010-02-18T12:17:45Z</time>
      </trkpt>
      <trkpt lat="45.48597" lon="4.66622">
        <ele>510</ele>
        <time>2010-02-18T12:17:52Z</time>
      </trkpt>
      <trkpt lat="45.48595" lon="4.66633">
        <ele>510</ele>
        <time>2010-02-18T12:18:00Z</time>
      </trkpt>
      <trkpt lat="45.48592" lon="4.66645">
        <ele>509</ele>
        <time>2010-02-18T12:18:10Z</time>
      </trkpt>
      <trkpt lat="45.4859" lon="4.66657">
        <ele>506</ele>
        <time>2010-02-18T12:18:17Z</time>
      </trkpt>
      <trkpt lat="45.48592" lon="4.66669">
        <ele>506</ele>
        <time>2010-02-18T12:18:26Z</time>
      </trkpt>
      <trkpt lat="45.48589" lon="4.6668">
        <ele>509</ele>
        <time>2010-02-18T12:18:41Z</time>
      </trkpt>
      <trkpt lat="45.48589" lon="4.66682">
        <ele>509</ele>
        <time>2010-02-18T12:18:42Z</time>
      </trkpt>
      <trkpt lat="45.4858" lon="4.66701">
        <ele>501</ele>
        <time>2010-02-18T12:19:07Z</time>
      </trkpt>
      <trkpt lat="45.4858" lon="4.66714">
        <ele>502</ele>
        <time>2010-02-18T12:19:15Z</time>
      </trkpt>
      <trkpt lat="45.4858" lon="4.66726">
        <ele>503</ele>
        <time>2010-02-18T12:19:26Z</time>
      </trkpt>
      <trkpt lat="45.48577" lon="4.66737">
        <ele>504</ele>
        <time>2010-02-18T12:19:37Z</time>
      </trkpt>
      <trkpt lat="45.48572" lon="4.66748">
        <ele>504</ele>
        <time>2010-02-18T12:19:48Z</time>
      </trkpt>
      <trkpt lat="45.48571" lon="4.66747">
        <ele>504</ele>
        <time>2010-02-18T12:19:49Z</time>
      </trkpt>
      <trkpt lat="45.48563" lon="4.66767">
        <ele>505</ele>
        <time>2010-02-18T12:20:09Z</time>
      </trkpt>
      <trkpt lat="45.48557" lon="4.66774">
        <ele>504</ele>
        <time>2010-02-18T12:20:18Z</time>
      </trkpt>
      <trkpt lat="45.4855" lon="4.66781">
        <ele>504</ele>
        <time>2010-02-18T12:20:27Z</time>
      </trkpt>
      <trkpt lat="45.48545" lon="4.6679">
        <ele>504</ele>
        <time>2010-02-18T12:20:36Z</time>
      </trkpt>
      <trkpt lat="45.48539" lon="4.668">
        <ele>503</ele>
        <time>2010-02-18T12:20:46Z</time>
      </trkpt>
      <trkpt lat="45.48551" lon="4.66817">
        <ele>505</ele>
        <time>2010-02-18T12:20:47Z</time>
      </trkpt>
      <trkpt lat="45.48546" lon="4.66826">
        <ele>505</ele>
        <time>2010-02-18T12:20:55Z</time>
      </trkpt>
      <trkpt lat="45.48545" lon="4.66828">
        <ele>504</ele>
        <time>2010-02-18T12:20:56Z</time>
      </trkpt>
      <trkpt lat="45.48517" lon="4.66803">
        <ele>502</ele>
        <time>2010-02-18T12:21:00Z</time>
      </trkpt>
      <trkpt lat="45.48509" lon="4.66803">
        <ele>501</ele>
        <time>2010-02-18T12:21:05Z</time>
      </trkpt>
      <trkpt lat="45.48519" lon="4.66815">
        <ele>501</ele>
        <time>2010-02-18T12:21:06Z</time>
      </trkpt>
      <trkpt lat="45.48522" lon="4.66825">
        <ele>501</ele>
        <time>2010-02-18T12:21:10Z</time>
      </trkpt>
      <trkpt lat="45.48536" lon="4.66841">
        <ele>506</ele>
        <time>2010-02-18T12:21:11Z</time>
      </trkpt>
      <trkpt lat="45.48537" lon="4.66853">
        <ele>506</ele>
        <time>2010-02-18T12:21:17Z</time>
      </trkpt>
      <trkpt lat="45.48541" lon="4.66861">
        <ele>507</ele>
        <time>2010-02-18T12:21:20Z</time>
      </trkpt>
      <trkpt lat="45.48544" lon="4.6687">
        <ele>507</ele>
        <time>2010-02-18T12:21:23Z</time>
      </trkpt>
      <trkpt lat="45.48545" lon="4.66872">
        <ele>507</ele>
        <time>2010-02-18T12:21:24Z</time>
      </trkpt>
      <trkpt lat="45.48521" lon="4.66845">
        <ele>503</ele>
        <time>2010-02-18T12:21:25Z</time>
      </trkpt>
      <trkpt lat="45.48518" lon="4.66857">
        <ele>504</ele>
        <time>2010-02-18T12:21:33Z</time>
      </trkpt>
      <trkpt lat="45.48512" lon="4.66848">
        <ele>502</ele>
        <time>2010-02-18T12:22:05Z</time>
      </trkpt>
      <trkpt lat="45.4851" lon="4.66847">
        <ele>502</ele>
        <time>2010-02-18T12:22:06Z</time>
      </trkpt>
      <trkpt lat="45.48499" lon="4.66837">
        <ele>498</ele>
        <time>2010-02-18T12:22:15Z</time>
      </trkpt>
      <trkpt lat="45.4849" lon="4.66836">
        <ele>499</ele>
        <time>2010-02-18T12:22:20Z</time>
      </trkpt>
      <trkpt lat="45.48483" lon="4.66834">
        <ele>500</ele>
        <time>2010-02-18T12:22:27Z</time>
      </trkpt>
      <trkpt lat="45.48475" lon="4.66839">
        <ele>501</ele>
        <time>2010-02-18T12:22:32Z</time>
      </trkpt>
      <trkpt lat="45.48469" lon="4.66847">
        <ele>502</ele>
        <time>2010-02-18T12:22:38Z</time>
      </trkpt>
      <trkpt lat="45.48463" lon="4.66854">
        <ele>502</ele>
        <time>2010-02-18T12:22:43Z</time>
      </trkpt>
      <trkpt lat="45.48457" lon="4.66862">
        <ele>503</ele>
        <time>2010-02-18T12:22:48Z</time>
      </trkpt>
      <trkpt lat="45.48452" lon="4.6687">
        <ele>503</ele>
        <time>2010-02-18T12:22:52Z</time>
      </trkpt>
      <trkpt lat="45.48445" lon="4.66878">
        <ele>503</ele>
        <time>2010-02-18T12:23:00Z</time>
      </trkpt>
      <trkpt lat="45.48438" lon="4.66885">
        <ele>503</ele>
        <time>2010-02-18T12:23:07Z</time>
      </trkpt>
      <trkpt lat="45.48437" lon="4.66886">
        <ele>503</ele>
        <time>2010-02-18T12:23:08Z</time>
      </trkpt>
      <trkpt lat="45.48424" lon="4.66895">
        <ele>504</ele>
        <time>2010-02-18T12:23:24Z</time>
      </trkpt>
      <trkpt lat="45.48415" lon="4.66899">
        <ele>509</ele>
        <time>2010-02-18T12:23:35Z</time>
      </trkpt>
      <trkpt lat="45.48407" lon="4.66906">
        <ele>509</ele>
        <time>2010-02-18T12:23:44Z</time>
      </trkpt>
      <trkpt lat="45.484" lon="4.66912">
        <ele>510</ele>
        <time>2010-02-18T12:23:53Z</time>
      </trkpt>
      <trkpt lat="45.48393" lon="4.6692">
        <ele>508</ele>
        <time>2010-02-18T12:24:00Z</time>
      </trkpt>
      <trkpt lat="45.48388" lon="4.66929">
        <ele>509</ele>
        <time>2010-02-18T12:24:04Z</time>
      </trkpt>
      <trkpt lat="45.48382" lon="4.66935">
        <ele>509</ele>
        <time>2010-02-18T12:24:12Z</time>
      </trkpt>
      <trkpt lat="45.48381" lon="4.66937">
        <ele>509</ele>
        <time>2010-02-18T12:24:13Z</time>
      </trkpt>
      <trkpt lat="45.48372" lon="4.66953">
        <ele>510</ele>
        <time>2010-02-18T12:24:29Z</time>
      </trkpt>
      <trkpt lat="45.48366" lon="4.66962">
        <ele>510</ele>
        <time>2010-02-18T12:24:38Z</time>
      </trkpt>
      <trkpt lat="45.48361" lon="4.66972">
        <ele>509</ele>
        <time>2010-02-18T12:24:43Z</time>
      </trkpt>
      <trkpt lat="45.48356" lon="4.66981">
        <ele>509</ele>
        <time>2010-02-18T12:24:50Z</time>
      </trkpt>
      <trkpt lat="45.4835" lon="4.6699">
        <ele>509</ele>
        <time>2010-02-18T12:25:18Z</time>
      </trkpt>
      <trkpt lat="45.48349" lon="4.66991">
        <ele>509</ele>
        <time>2010-02-18T12:25:19Z</time>
      </trkpt>
      <trkpt lat="45.4834" lon="4.67007">
        <ele>508</ele>
        <time>2010-02-18T12:25:53Z</time>
      </trkpt>
      <trkpt lat="45.48333" lon="4.67015">
        <ele>511</ele>
        <time>2010-02-18T12:26:01Z</time>
      </trkpt>
      <trkpt lat="45.48329" lon="4.67024">
        <ele>512</ele>
        <time>2010-02-18T12:26:15Z</time>
      </trkpt>
      <trkpt lat="45.48323" lon="4.67032">
        <ele>513</ele>
        <time>2010-02-18T12:26:19Z</time>
      </trkpt>
      <trkpt lat="45.48322" lon="4.67033">
        <ele>513</ele>
        <time>2010-02-18T12:26:20Z</time>
      </trkpt>
      <trkpt lat="45.48307" lon="4.67031">
        <ele>514</ele>
        <time>2010-02-18T12:26:37Z</time>
      </trkpt>
      <trkpt lat="45.483" lon="4.67024">
        <ele>515</ele>
        <time>2010-02-18T12:26:46Z</time>
      </trkpt>
      <trkpt lat="45.48292" lon="4.67019">
        <ele>516</ele>
        <time>2010-02-18T12:26:55Z</time>
      </trkpt>
      <trkpt lat="45.48285" lon="4.67015">
        <ele>517</ele>
        <time>2010-02-18T12:27:03Z</time>
      </trkpt>
      <trkpt lat="45.48277" lon="4.67011">
        <ele>518</ele>
        <time>2010-02-18T12:27:10Z</time>
      </trkpt>
      <trkpt lat="45.48269" lon="4.67008">
        <ele>519</ele>
        <time>2010-02-18T12:27:19Z</time>
      </trkpt>
      <trkpt lat="45.48261" lon="4.67004">
        <ele>521</ele>
        <time>2010-02-18T12:27:32Z</time>
      </trkpt>
      <trkpt lat="45.4826" lon="4.67004">
        <ele>521</ele>
        <time>2010-02-18T12:27:33Z</time>
      </trkpt>
      <trkpt lat="45.48245" lon="4.66995">
        <ele>527</ele>
        <time>2010-02-18T12:27:51Z</time>
      </trkpt>
      <trkpt lat="45.48238" lon="4.66986">
        <ele>529</ele>
        <time>2010-02-18T12:28:02Z</time>
      </trkpt>
      <trkpt lat="45.4823" lon="4.66981">
        <ele>531</ele>
        <time>2010-02-18T12:28:11Z</time>
      </trkpt>
      <trkpt lat="45.48223" lon="4.66989">
        <ele>531</ele>
        <time>2010-02-18T12:28:27Z</time>
      </trkpt>
      <trkpt lat="45.48229" lon="4.66997">
        <ele>530</ele>
        <time>2010-02-18T12:28:41Z</time>
      </trkpt>
      <trkpt lat="45.48227" lon="4.67001">
        <ele>529</ele>
        <time>2010-02-18T12:28:42Z</time>
      </trkpt>
      <trkpt lat="45.48226" lon="4.67019">
        <ele>529</ele>
        <time>2010-02-18T12:28:50Z</time>
      </trkpt>
      <trkpt lat="45.48228" lon="4.6703">
        <ele>529</ele>
        <time>2010-02-18T12:28:58Z</time>
      </trkpt>
      <trkpt lat="45.48221" lon="4.67037">
        <ele>530</ele>
        <time>2010-02-18T12:29:11Z</time>
      </trkpt>
      <trkpt lat="45.48212" lon="4.67036">
        <ele>531</ele>
        <time>2010-02-18T12:29:17Z</time>
      </trkpt>
      <trkpt lat="45.48203" lon="4.67035">
        <ele>532</ele>
        <time>2010-02-18T12:29:23Z</time>
      </trkpt>
      <trkpt lat="45.482" lon="4.67035">
        <ele>532</ele>
        <time>2010-02-18T12:29:25Z</time>
      </trkpt>
      <trkpt lat="45.48217" lon="4.67028">
        <ele>530</ele>
        <time>2010-02-18T12:29:29Z</time>
      </trkpt>
      <trkpt lat="45.48209" lon="4.67024">
        <ele>531</ele>
        <time>2010-02-18T12:30:34Z</time>
      </trkpt>
      <trkpt lat="45.48209" lon="4.67024">
        <ele>531</ele>
        <time>2010-02-18T12:30:35Z</time>
      </trkpt>
      <trkpt lat="45.48209" lon="4.67008">
        <ele>531</ele>
        <time>2010-02-18T12:31:16Z</time>
      </trkpt>
      <trkpt lat="45.48201" lon="4.67002">
        <ele>532</ele>
        <time>2010-02-18T12:31:45Z</time>
      </trkpt>
      <trkpt lat="45.482" lon="4.67001">
        <ele>532</ele>
        <time>2010-02-18T12:31:46Z</time>
      </trkpt>
      <trkpt lat="45.48191" lon="4.66984">
        <ele>535</ele>
        <time>2010-02-18T12:31:58Z</time>
      </trkpt>
      <trkpt lat="45.48187" lon="4.66974">
        <ele>535</ele>
        <time>2010-02-18T12:32:04Z</time>
      </trkpt>
      <trkpt lat="45.48182" lon="4.66963">
        <ele>535</ele>
        <time>2010-02-18T12:32:11Z</time>
      </trkpt>
      <trkpt lat="45.48181" lon="4.66951">
        <ele>536</ele>
        <time>2010-02-18T12:32:18Z</time>
      </trkpt>
      <trkpt lat="45.48184" lon="4.66939">
        <ele>536</ele>
        <time>2010-02-18T12:32:26Z</time>
      </trkpt>
      <trkpt lat="45.4819" lon="4.66932">
        <ele>536</ele>
        <time>2010-02-18T12:32:31Z</time>
      </trkpt>
      <trkpt lat="45.48199" lon="4.66931">
        <ele>535</ele>
        <time>2010-02-18T12:32:36Z</time>
      </trkpt>
      <trkpt lat="45.48204" lon="4.66941">
        <ele>535</ele>
        <time>2010-02-18T12:32:44Z</time>
      </trkpt>
      <trkpt lat="45.48211" lon="4.66946">
        <ele>534</ele>
        <time>2010-02-18T12:32:51Z</time>
      </trkpt>
      <trkpt lat="45.48212" lon="4.66948">
        <ele>534</ele>
        <time>2010-02-18T12:32:52Z</time>
      </trkpt>
      <trkpt lat="45.48225" lon="4.66955">
        <ele>533</ele>
        <time>2010-02-18T12:33:03Z</time>
      </trkpt>
      <trkpt lat="45.48232" lon="4.66962">
        <ele>533</ele>
        <time>2010-02-18T12:33:10Z</time>
      </trkpt>
      <trkpt lat="45.4824" lon="4.66963">
        <ele>532</ele>
        <time>2010-02-18T12:33:16Z</time>
      </trkpt>
      <trkpt lat="45.48249" lon="4.66968">
        <ele>531</ele>
        <time>2010-02-18T12:33:24Z</time>
      </trkpt>
      <trkpt lat="45.48256" lon="4.66969">
        <ele>524</ele>
        <time>2010-02-18T12:33:30Z</time>
      </trkpt>
      <trkpt lat="45.48264" lon="4.66967">
        <ele>523</ele>
        <time>2010-02-18T12:33:34Z</time>
      </trkpt>
      <trkpt lat="45.48272" lon="4.66965">
        <ele>523</ele>
        <time>2010-02-18T12:33:38Z</time>
      </trkpt>
      <trkpt lat="45.48279" lon="4.66962">
        <ele>523</ele>
        <time>2010-02-18T12:33:42Z</time>
      </trkpt>
      <trkpt lat="45.48283" lon="4.66962">
        <ele>522</ele>
        <time>2010-02-18T12:33:44Z</time>
      </trkpt>
      <trkpt lat="45.48286" lon="4.66953">
        <ele>523</ele>
        <time>2010-02-18T12:33:45Z</time>
      </trkpt>
      <trkpt lat="45.48286" lon="4.6694">
        <ele>523</ele>
        <time>2010-02-18T12:33:52Z</time>
      </trkpt>
      <trkpt lat="45.48286" lon="4.66939">
        <ele>524</ele>
        <time>2010-02-18T12:33:53Z</time>
      </trkpt>
      <trkpt lat="45.48293" lon="4.66919">
        <ele>523</ele>
        <time>2010-02-18T12:34:08Z</time>
      </trkpt>
      <trkpt lat="45.48299" lon="4.6691">
        <ele>529</ele>
        <time>2010-02-18T12:34:16Z</time>
      </trkpt>
      <trkpt lat="45.48302" lon="4.669">
        <ele>529</ele>
        <time>2010-02-18T12:34:23Z</time>
      </trkpt>
      <trkpt lat="45.48308" lon="4.66889">
        <ele>529</ele>
        <time>2010-02-18T12:34:32Z</time>
      </trkpt>
      <trkpt lat="45.48313" lon="4.6688">
        <ele>529</ele>
        <time>2010-02-18T12:34:44Z</time>
      </trkpt>
      <trkpt lat="45.48318" lon="4.6687">
        <ele>530</ele>
        <time>2010-02-18T12:34:52Z</time>
      </trkpt>
      <trkpt lat="45.48323" lon="4.6686">
        <ele>530</ele>
        <time>2010-02-18T12:35:00Z</time>
      </trkpt>
      <trkpt lat="45.48323" lon="4.66858">
        <ele>530</ele>
        <time>2010-02-18T12:35:01Z</time>
      </trkpt>
      <trkpt lat="45.48332" lon="4.66841">
        <ele>530</ele>
        <time>2010-02-18T12:35:14Z</time>
      </trkpt>
      <trkpt lat="45.48336" lon="4.66831">
        <ele>528</ele>
        <time>2010-02-18T12:35:21Z</time>
      </trkpt>
      <trkpt lat="45.48339" lon="4.6682">
        <ele>526</ele>
        <time>2010-02-18T12:35:29Z</time>
      </trkpt>
      <trkpt lat="45.48342" lon="4.66809">
        <ele>524</ele>
        <time>2010-02-18T12:35:37Z</time>
      </trkpt>
      <trkpt lat="45.48344" lon="4.66796">
        <ele>524</ele>
        <time>2010-02-18T12:35:45Z</time>
      </trkpt>
      <trkpt lat="45.48346" lon="4.66785">
        <ele>524</ele>
        <time>2010-02-18T12:35:51Z</time>
      </trkpt>
      <trkpt lat="45.48347" lon="4.66773">
        <ele>525</ele>
        <time>2010-02-18T12:35:57Z</time>
      </trkpt>
      <trkpt lat="45.48347" lon="4.66762">
        <ele>527</ele>
        <time>2010-02-18T12:36:03Z</time>
      </trkpt>
      <trkpt lat="45.48347" lon="4.6676">
        <ele>527</ele>
        <time>2010-02-18T12:36:04Z</time>
      </trkpt>
      <trkpt lat="45.48349" lon="4.66739">
        <ele>527</ele>
        <time>2010-02-18T12:36:16Z</time>
      </trkpt>
      <trkpt lat="45.48348" lon="4.66727">
        <ele>526</ele>
        <time>2010-02-18T12:36:23Z</time>
      </trkpt>
      <trkpt lat="45.48348" lon="4.66715">
        <ele>526</ele>
        <time>2010-02-18T12:36:29Z</time>
      </trkpt>
      <trkpt lat="45.48346" lon="4.66705">
        <ele>526</ele>
        <time>2010-02-18T12:36:34Z</time>
      </trkpt>
      <trkpt lat="45.48345" lon="4.66693">
        <ele>527</ele>
        <time>2010-02-18T12:36:39Z</time>
      </trkpt>
      <trkpt lat="45.48346" lon="4.66682">
        <ele>528</ele>
        <time>2010-02-18T12:36:45Z</time>
      </trkpt>
      <trkpt lat="45.48347" lon="4.6667">
        <ele>529</ele>
        <time>2010-02-18T12:36:52Z</time>
      </trkpt>
      <trkpt lat="45.48348" lon="4.66657">
        <ele>528</ele>
        <time>2010-02-18T12:36:59Z</time>
      </trkpt>
      <trkpt lat="45.48348" lon="4.66646">
        <ele>527</ele>
        <time>2010-02-18T12:37:05Z</time>
      </trkpt>
      <trkpt lat="45.48348" lon="4.66644">
        <ele>527</ele>
        <time>2010-02-18T12:37:06Z</time>
      </trkpt>
      <trkpt lat="45.48348" lon="4.66623">
        <ele>526</ele>
        <time>2010-02-18T12:37:17Z</time>
      </trkpt>
      <trkpt lat="45.48349" lon="4.66612">
        <ele>526</ele>
        <time>2010-02-18T12:37:23Z</time>
      </trkpt>
      <trkpt lat="45.4835" lon="4.666">
        <ele>527</ele>
        <time>2010-02-18T12:37:29Z</time>
      </trkpt>
      <trkpt lat="45.48351" lon="4.66589">
        <ele>528</ele>
        <time>2010-02-18T12:37:35Z</time>
      </trkpt>
      <trkpt lat="45.48354" lon="4.66579">
        <ele>528</ele>
        <time>2010-02-18T12:37:41Z</time>
      </trkpt>
      <trkpt lat="45.48357" lon="4.66568">
        <ele>527</ele>
        <time>2010-02-18T12:37:47Z</time>
      </trkpt>
      <trkpt lat="45.48359" lon="4.66557">
        <ele>526</ele>
        <time>2010-02-18T12:37:53Z</time>
      </trkpt>
      <trkpt lat="45.48362" lon="4.66545">
        <ele>525</ele>
        <time>2010-02-18T12:37:59Z</time>
      </trkpt>
      <trkpt lat="45.48365" lon="4.66533">
        <ele>525</ele>
        <time>2010-02-18T12:38:06Z</time>
      </trkpt>
      <trkpt lat="45.48365" lon="4.66532">
        <ele>525</ele>
        <time>2010-02-18T12:38:07Z</time>
      </trkpt>
      <trkpt lat="45.48372" lon="4.66512">
        <ele>524</ele>
        <time>2010-02-18T12:38:17Z</time>
      </trkpt>
      <trkpt lat="45.48373" lon="4.66501">
        <ele>524</ele>
        <time>2010-02-18T12:38:22Z</time>
      </trkpt>
      <trkpt lat="45.48375" lon="4.66489">
        <ele>526</ele>
        <time>2010-02-18T12:38:29Z</time>
      </trkpt>
      <trkpt lat="45.48377" lon="4.66478">
        <ele>526</ele>
        <time>2010-02-18T12:38:35Z</time>
      </trkpt>
      <trkpt lat="45.4838" lon="4.66468">
        <ele>526</ele>
        <time>2010-02-18T12:38:41Z</time>
      </trkpt>
      <trkpt lat="45.48383" lon="4.66457">
        <ele>526</ele>
        <time>2010-02-18T12:38:47Z</time>
      </trkpt>
      <trkpt lat="45.48385" lon="4.66447">
        <ele>526</ele>
        <time>2010-02-18T12:38:52Z</time>
      </trkpt>
      <trkpt lat="45.48388" lon="4.66437">
        <ele>525</ele>
        <time>2010-02-18T12:38:57Z</time>
      </trkpt>
      <trkpt lat="45.48391" lon="4.66427">
        <ele>525</ele>
        <time>2010-02-18T12:39:03Z</time>
      </trkpt>
      <trkpt lat="45.48395" lon="4.66415">
        <ele>526</ele>
        <time>2010-02-18T12:39:10Z</time>
      </trkpt>
      <trkpt lat="45.48395" lon="4.66414">
        <ele>526</ele>
        <time>2010-02-18T12:39:11Z</time>
      </trkpt>
      <trkpt lat="45.48398" lon="4.66393">
        <ele>528</ele>
        <time>2010-02-18T12:39:23Z</time>
      </trkpt>
      <trkpt lat="45.48398" lon="4.66381">
        <ele>529</ele>
        <time>2010-02-18T12:39:29Z</time>
      </trkpt>
      <trkpt lat="45.48399" lon="4.6637">
        <ele>529</ele>
        <time>2010-02-18T12:39:35Z</time>
      </trkpt>
      <trkpt lat="45.48398" lon="4.66357">
        <ele>529</ele>
        <time>2010-02-18T12:39:42Z</time>
      </trkpt>
      <trkpt lat="45.48398" lon="4.66346">
        <ele>528</ele>
        <time>2010-02-18T12:39:48Z</time>
      </trkpt>
      <trkpt lat="45.48398" lon="4.66334">
        <ele>528</ele>
        <time>2010-02-18T12:39:54Z</time>
      </trkpt>
      <trkpt lat="45.48398" lon="4.66322">
        <ele>531</ele>
        <time>2010-02-18T12:40:00Z</time>
      </trkpt>
      <trkpt lat="45.48403" lon="4.66311">
        <ele>532</ele>
        <time>2010-02-18T12:40:07Z</time>
      </trkpt>
      <trkpt lat="45.48409" lon="4.66302">
        <ele>532</ele>
        <time>2010-02-18T12:40:15Z</time>
      </trkpt>
      <trkpt lat="45.4841" lon="4.66301">
        <ele>532</ele>
        <time>2010-02-18T12:40:16Z</time>
      </trkpt>
      <trkpt lat="45.48426" lon="4.66298">
        <ele>514</ele>
        <time>2010-02-18T12:40:28Z</time>
      </trkpt>
      <trkpt lat="45.48434" lon="4.66299">
        <ele>514</ele>
        <time>2010-02-18T12:40:36Z</time>
      </trkpt>
      <trkpt lat="45.48442" lon="4.66299">
        <ele>512</ele>
        <time>2010-02-18T12:40:42Z</time>
      </trkpt>
      <trkpt lat="45.48451" lon="4.66297">
        <ele>511</ele>
        <time>2010-02-18T12:40:48Z</time>
      </trkpt>
      <trkpt lat="45.48459" lon="4.66293">
        <ele>510</ele>
        <time>2010-02-18T12:40:53Z</time>
      </trkpt>
      <trkpt lat="45.48466" lon="4.6629">
        <ele>509</ele>
        <time>2010-02-18T12:40:58Z</time>
      </trkpt>
      <trkpt lat="45.48473" lon="4.66284">
        <ele>508</ele>
        <time>2010-02-18T12:41:04Z</time>
      </trkpt>
      <trkpt lat="45.48481" lon="4.66277">
        <ele>507</ele>
        <time>2010-02-18T12:41:10Z</time>
      </trkpt>
      <trkpt lat="45.48487" lon="4.6627">
        <ele>507</ele>
        <time>2010-02-18T12:41:16Z</time>
      </trkpt>
      <trkpt lat="45.48488" lon="4.66269">
        <ele>506</ele>
        <time>2010-02-18T12:41:17Z</time>
      </trkpt>
      <trkpt lat="45.485" lon="4.66255">
        <ele>500</ele>
        <time>2010-02-18T12:41:28Z</time>
      </trkpt>
      <trkpt lat="45.48506" lon="4.66247">
        <ele>500</ele>
        <time>2010-02-18T12:41:34Z</time>
      </trkpt>
      <trkpt lat="45.48512" lon="4.66237">
        <ele>498</ele>
        <time>2010-02-18T12:41:40Z</time>
      </trkpt>
      <trkpt lat="45.48517" lon="4.66227">
        <ele>497</ele>
        <time>2010-02-18T12:41:46Z</time>
      </trkpt>
      <trkpt lat="45.48521" lon="4.66216">
        <ele>496</ele>
        <time>2010-02-18T12:41:52Z</time>
      </trkpt>
      <trkpt lat="45.48524" lon="4.66205">
        <ele>496</ele>
        <time>2010-02-18T12:41:58Z</time>
      </trkpt>
      <trkpt lat="45.48527" lon="4.66193">
        <ele>497</ele>
        <time>2010-02-18T12:42:04Z</time>
      </trkpt>
      <trkpt lat="45.48529" lon="4.66182">
        <ele>497</ele>
        <time>2010-02-18T12:42:10Z</time>
      </trkpt>
      <trkpt lat="45.48531" lon="4.6617">
        <ele>497</ele>
        <time>2010-02-18T12:42:16Z</time>
      </trkpt>
      <trkpt lat="45.4853" lon="4.66158">
        <ele>496</ele>
        <time>2010-02-18T12:42:22Z</time>
      </trkpt>
      <trkpt lat="45.4853" lon="4.66156">
        <ele>496</ele>
        <time>2010-02-18T12:42:23Z</time>
      </trkpt>
      <trkpt lat="45.48528" lon="4.66135">
        <ele>495</ele>
        <time>2010-02-18T12:42:34Z</time>
      </trkpt>
      <trkpt lat="45.48526" lon="4.66123">
        <ele>495</ele>
        <time>2010-02-18T12:42:40Z</time>
      </trkpt>
      <trkpt lat="45.48523" lon="4.66112">
        <ele>495</ele>
        <time>2010-02-18T12:42:46Z</time>
      </trkpt>
      <trkpt lat="45.48521" lon="4.661">
        <ele>495</ele>
        <time>2010-02-18T12:42:52Z</time>
      </trkpt>
      <trkpt lat="45.48518" lon="4.66088">
        <ele>495</ele>
        <time>2010-02-18T12:42:59Z</time>
      </trkpt>
      <trkpt lat="45.48515" lon="4.66077">
        <ele>492</ele>
        <time>2010-02-18T12:43:05Z</time>
      </trkpt>
      <trkpt lat="45.48511" lon="4.66066">
        <ele>491</ele>
        <time>2010-02-18T12:43:11Z</time>
      </trkpt>
      <trkpt lat="45.48506" lon="4.66056">
        <ele>490</ele>
        <time>2010-02-18T12:43:17Z</time>
      </trkpt>
      <trkpt lat="45.485" lon="4.66048">
        <ele>489</ele>
        <time>2010-02-18T12:43:23Z</time>
      </trkpt>
      <trkpt lat="45.48499" lon="4.66047">
        <ele>499</ele>
        <time>2010-02-18T12:43:24Z</time>
      </trkpt>
      <trkpt lat="45.48487" lon="4.66036">
        <ele>499</ele>
        <time>2010-02-18T12:43:35Z</time>
      </trkpt>
      <trkpt lat="45.4848" lon="4.66031">
        <ele>499</ele>
        <time>2010-02-18T12:43:41Z</time>
      </trkpt>
      <trkpt lat="45.48473" lon="4.66026">
        <ele>499</ele>
        <time>2010-02-18T12:43:48Z</time>
      </trkpt>
      <trkpt lat="45.48465" lon="4.66021">
        <ele>500</ele>
        <time>2010-02-18T12:43:54Z</time>
      </trkpt>
      <trkpt lat="45.48458" lon="4.66015">
        <ele>500</ele>
        <time>2010-02-18T12:44:00Z</time>
      </trkpt>
      <trkpt lat="45.48452" lon="4.66009">
        <ele>501</ele>
        <time>2010-02-18T12:44:06Z</time>
      </trkpt>
      <trkpt lat="45.48447" lon="4.65999">
        <ele>496</ele>
        <time>2010-02-18T12:44:12Z</time>
      </trkpt>
      <trkpt lat="45.48443" lon="4.65989">
        <ele>496</ele>
        <time>2010-02-18T12:44:18Z</time>
      </trkpt>
      <trkpt lat="45.48443" lon="4.65976">
        <ele>496</ele>
        <time>2010-02-18T12:44:24Z</time>
      </trkpt>
      <trkpt lat="45.48443" lon="4.65974">
        <ele>495</ele>
        <time>2010-02-18T12:44:25Z</time>
      </trkpt>
      <trkpt lat="45.48444" lon="4.65954">
        <ele>494</ele>
        <time>2010-02-18T12:44:34Z</time>
      </trkpt>
      <trkpt lat="45.48444" lon="4.65941">
        <ele>494</ele>
        <time>2010-02-18T12:44:40Z</time>
      </trkpt>
      <trkpt lat="45.48443" lon="4.65929">
        <ele>494</ele>
        <time>2010-02-18T12:44:49Z</time>
      </trkpt>
      <trkpt lat="45.48439" lon="4.65918">
        <ele>495</ele>
        <time>2010-02-18T12:44:58Z</time>
      </trkpt>
      <trkpt lat="45.48436" lon="4.65907">
        <ele>492</ele>
        <time>2010-02-18T12:45:38Z</time>
      </trkpt>
      <trkpt lat="45.48436" lon="4.65906">
        <ele>492</ele>
        <time>2010-02-18T12:45:39Z</time>
      </trkpt>
      <trkpt lat="45.48427" lon="4.65885">
        <ele>491</ele>
        <time>2010-02-18T12:45:53Z</time>
      </trkpt>
      <trkpt lat="45.48422" lon="4.65877">
        <ele>490</ele>
        <time>2010-02-18T12:46:00Z</time>
      </trkpt>
      <trkpt lat="45.48419" lon="4.65867">
        <ele>490</ele>
        <time>2010-02-18T12:46:05Z</time>
      </trkpt>
      <trkpt lat="45.48414" lon="4.65857">
        <ele>503</ele>
        <time>2010-02-18T12:46:12Z</time>
      </trkpt>
      <trkpt lat="45.48409" lon="4.65846">
        <ele>501</ele>
        <time>2010-02-18T12:46:19Z</time>
      </trkpt>
      <trkpt lat="45.48407" lon="4.65834">
        <ele>499</ele>
        <time>2010-02-18T12:46:26Z</time>
      </trkpt>
      <trkpt lat="45.48408" lon="4.65822">
        <ele>499</ele>
        <time>2010-02-18T12:46:33Z</time>
      </trkpt>
      <trkpt lat="45.48408" lon="4.6581">
        <ele>500</ele>
        <time>2010-02-18T12:46:40Z</time>
      </trkpt>
      <trkpt lat="45.48409" lon="4.65808">
        <ele>500</ele>
        <time>2010-02-18T12:46:41Z</time>
      </trkpt>
      <trkpt lat="45.48414" lon="4.65787">
        <ele>500</ele>
        <time>2010-02-18T12:46:54Z</time>
      </trkpt>
      <trkpt lat="45.48415" lon="4.65776">
        <ele>499</ele>
        <time>2010-02-18T12:47:02Z</time>
      </trkpt>
      <trkpt lat="45.48415" lon="4.65765">
        <ele>498</ele>
        <time>2010-02-18T12:47:09Z</time>
      </trkpt>
      <trkpt lat="45.48414" lon="4.65753">
        <ele>496</ele>
        <time>2010-02-18T12:47:15Z</time>
      </trkpt>
      <trkpt lat="45.48413" lon="4.65741">
        <ele>495</ele>
        <time>2010-02-18T12:47:21Z</time>
      </trkpt>
      <trkpt lat="45.48412" lon="4.6573">
        <ele>495</ele>
        <time>2010-02-18T12:47:27Z</time>
      </trkpt>
      <trkpt lat="45.48409" lon="4.6572">
        <ele>494</ele>
        <time>2010-02-18T12:47:33Z</time>
      </trkpt>
      <trkpt lat="45.48405" lon="4.6571">
        <ele>494</ele>
        <time>2010-02-18T12:47:39Z</time>
      </trkpt>
      <trkpt lat="45.48399" lon="4.65702">
        <ele>493</ele>
        <time>2010-02-18T12:47:45Z</time>
      </trkpt>
      <trkpt lat="45.48398" lon="4.65701">
        <ele>493</ele>
        <time>2010-02-18T12:47:46Z</time>
      </trkpt>
      <trkpt lat="45.48387" lon="4.65687">
        <ele>493</ele>
        <time>2010-02-18T12:47:58Z</time>
      </trkpt>
      <trkpt lat="45.4838" lon="4.65682">
        <ele>493</ele>
        <time>2010-02-18T12:48:04Z</time>
      </trkpt>
      <trkpt lat="45.48373" lon="4.65676">
        <ele>494</ele>
        <time>2010-02-18T12:48:10Z</time>
      </trkpt>
      <trkpt lat="45.48365" lon="4.65671">
        <ele>494</ele>
        <time>2010-02-18T12:48:17Z</time>
      </trkpt>
      <trkpt lat="45.48358" lon="4.65667">
        <ele>494</ele>
        <time>2010-02-18T12:48:23Z</time>
      </trkpt>
      <trkpt lat="45.4835" lon="4.65662">
        <ele>488</ele>
        <time>2010-02-18T12:48:30Z</time>
      </trkpt>
      <trkpt lat="45.48342" lon="4.65657">
        <ele>489</ele>
        <time>2010-02-18T12:48:37Z</time>
      </trkpt>
      <trkpt lat="45.48334" lon="4.65652">
        <ele>489</ele>
        <time>2010-02-18T12:48:44Z</time>
      </trkpt>
      <trkpt lat="45.48326" lon="4.65648">
        <ele>491</ele>
        <time>2010-02-18T12:48:51Z</time>
      </trkpt>
      <trkpt lat="45.48325" lon="4.65647">
        <ele>491</ele>
        <time>2010-02-18T12:48:52Z</time>
      </trkpt>
      <trkpt lat="45.48311" lon="4.65638">
        <ele>490</ele>
        <time>2010-02-18T12:49:04Z</time>
      </trkpt>
      <trkpt lat="45.48303" lon="4.65633">
        <ele>489</ele>
        <time>2010-02-18T12:49:10Z</time>
      </trkpt>
      <trkpt lat="45.48296" lon="4.65628">
        <ele>489</ele>
        <time>2010-02-18T12:49:16Z</time>
      </trkpt>
      <trkpt lat="45.48289" lon="4.65623">
        <ele>489</ele>
        <time>2010-02-18T12:49:22Z</time>
      </trkpt>
      <trkpt lat="45.48282" lon="4.65618">
        <ele>489</ele>
        <time>2010-02-18T12:49:28Z</time>
      </trkpt>
      <trkpt lat="45.48274" lon="4.65613">
        <ele>488</ele>
        <time>2010-02-18T12:49:35Z</time>
      </trkpt>
      <trkpt lat="45.48267" lon="4.65608">
        <ele>488</ele>
        <time>2010-02-18T12:49:41Z</time>
      </trkpt>
      <trkpt lat="45.48259" lon="4.65604">
        <ele>487</ele>
        <time>2010-02-18T12:49:47Z</time>
      </trkpt>
      <trkpt lat="45.48252" lon="4.65599">
        <ele>487</ele>
        <time>2010-02-18T12:49:53Z</time>
      </trkpt>
      <trkpt lat="45.4825" lon="4.65599">
        <ele>487</ele>
        <time>2010-02-18T12:49:54Z</time>
      </trkpt>
      <trkpt lat="45.48236" lon="4.65592">
        <ele>490</ele>
        <time>2010-02-18T12:50:05Z</time>
      </trkpt>
      <trkpt lat="45.48229" lon="4.65589">
        <ele>491</ele>
        <time>2010-02-18T12:50:11Z</time>
      </trkpt>
      <trkpt lat="45.48221" lon="4.65586">
        <ele>493</ele>
        <time>2010-02-18T12:50:17Z</time>
      </trkpt>
      <trkpt lat="45.48213" lon="4.65582">
        <ele>483</ele>
        <time>2010-02-18T12:50:23Z</time>
      </trkpt>
      <trkpt lat="45.48206" lon="4.6558">
        <ele>483</ele>
        <time>2010-02-18T12:50:29Z</time>
      </trkpt>
      <trkpt lat="45.48198" lon="4.65576">
        <ele>484</ele>
        <time>2010-02-18T12:50:35Z</time>
      </trkpt>
      <trkpt lat="45.4819" lon="4.65571">
        <ele>485</ele>
        <time>2010-02-18T12:50:41Z</time>
      </trkpt>
      <trkpt lat="45.48183" lon="4.65564">
        <ele>485</ele>
        <time>2010-02-18T12:50:47Z</time>
      </trkpt>
      <trkpt lat="45.48177" lon="4.65556">
        <ele>484</ele>
        <time>2010-02-18T12:50:54Z</time>
      </trkpt>
      <trkpt lat="45.48176" lon="4.65554">
        <ele>484</ele>
        <time>2010-02-18T12:50:55Z</time>
      </trkpt>
      <trkpt lat="45.48164" lon="4.6554">
        <ele>489</ele>
        <time>2010-02-18T12:51:05Z</time>
      </trkpt>
      <trkpt lat="45.48157" lon="4.65532">
        <ele>488</ele>
        <time>2010-02-18T12:51:11Z</time>
      </trkpt>
      <trkpt lat="45.4815" lon="4.65525">
        <ele>487</ele>
        <time>2010-02-18T12:51:18Z</time>
      </trkpt>
      <trkpt lat="45.48144" lon="4.65518">
        <ele>487</ele>
        <time>2010-02-18T12:51:23Z</time>
      </trkpt>
      <trkpt lat="45.48138" lon="4.65512">
        <ele>487</ele>
        <time>2010-02-18T12:51:28Z</time>
      </trkpt>
      <trkpt lat="45.48133" lon="4.65505">
        <ele>488</ele>
        <time>2010-02-18T12:51:33Z</time>
      </trkpt>
      <trkpt lat="45.48127" lon="4.65497">
        <ele>479</ele>
        <time>2010-02-18T12:51:38Z</time>
      </trkpt>
      <trkpt lat="45.48123" lon="4.65488">
        <ele>479</ele>
        <time>2010-02-18T12:51:43Z</time>
      </trkpt>
      <trkpt lat="45.4812" lon="4.65476">
        <ele>479</ele>
        <time>2010-02-18T12:51:49Z</time>
      </trkpt>
      <trkpt lat="45.48121" lon="4.65463">
        <ele>478</ele>
        <time>2010-02-18T12:51:56Z</time>
      </trkpt>
      <trkpt lat="45.48121" lon="4.65461">
        <ele>478</ele>
        <time>2010-02-18T12:51:57Z</time>
      </trkpt>
      <trkpt lat="45.48122" lon="4.65438">
        <ele>476</ele>
        <time>2010-02-18T12:52:09Z</time>
      </trkpt>
      <trkpt lat="45.48121" lon="4.65426">
        <ele>475</ele>
        <time>2010-02-18T12:52:17Z</time>
      </trkpt>
      <trkpt lat="45.48118" lon="4.65416">
        <ele>468</ele>
        <time>2010-02-18T12:52:23Z</time>
      </trkpt>
      <trkpt lat="45.48113" lon="4.65406">
        <ele>468</ele>
        <time>2010-02-18T12:52:29Z</time>
      </trkpt>
      <trkpt lat="45.48109" lon="4.65397">
        <ele>468</ele>
        <time>2010-02-18T12:52:35Z</time>
      </trkpt>
      <trkpt lat="45.48103" lon="4.65388">
        <ele>468</ele>
        <time>2010-02-18T12:52:42Z</time>
      </trkpt>
      <trkpt lat="45.48097" lon="4.65379">
        <ele>467</ele>
        <time>2010-02-18T12:52:48Z</time>
      </trkpt>
      <trkpt lat="45.48091" lon="4.65372">
        <ele>467</ele>
        <time>2010-02-18T12:52:54Z</time>
      </trkpt>
      <trkpt lat="45.48084" lon="4.65364">
        <ele>466</ele>
        <time>2010-02-18T12:53:01Z</time>
      </trkpt>
      <trkpt lat="45.48083" lon="4.65363">
        <ele>476</ele>
        <time>2010-02-18T12:53:02Z</time>
      </trkpt>
      <trkpt lat="45.4807" lon="4.6535">
        <ele>474</ele>
        <time>2010-02-18T12:53:15Z</time>
      </trkpt>
      <trkpt lat="45.48062" lon="4.65343">
        <ele>475</ele>
        <time>2010-02-18T12:53:22Z</time>
      </trkpt>
      <trkpt lat="45.48056" lon="4.65337">
        <ele>475</ele>
        <time>2010-02-18T12:53:28Z</time>
      </trkpt>
      <trkpt lat="45.4805" lon="4.65329">
        <ele>470</ele>
        <time>2010-02-18T12:53:34Z</time>
      </trkpt>
      <trkpt lat="45.48043" lon="4.65322">
        <ele>470</ele>
        <time>2010-02-18T12:53:41Z</time>
      </trkpt>
      <trkpt lat="45.48038" lon="4.65313">
        <ele>471</ele>
        <time>2010-02-18T12:53:47Z</time>
      </trkpt>
      <trkpt lat="45.48033" lon="4.65304">
        <ele>471</ele>
        <time>2010-02-18T12:53:52Z</time>
      </trkpt>
      <trkpt lat="45.48029" lon="4.65295">
        <ele>471</ele>
        <time>2010-02-18T12:53:57Z</time>
      </trkpt>
      <trkpt lat="45.48025" lon="4.65285">
        <ele>470</ele>
        <time>2010-02-18T12:54:03Z</time>
      </trkpt>
      <trkpt lat="45.48025" lon="4.65283">
        <ele>470</ele>
        <time>2010-02-18T12:54:04Z</time>
      </trkpt>
      <trkpt lat="45.48019" lon="4.65264">
        <ele>470</ele>
        <time>2010-02-18T12:54:16Z</time>
      </trkpt>
      <trkpt lat="45.48015" lon="4.65253">
        <ele>471</ele>
        <time>2010-02-18T12:54:24Z</time>
      </trkpt>
      <trkpt lat="45.4801" lon="4.65244">
        <ele>468</ele>
        <time>2010-02-18T12:54:30Z</time>
      </trkpt>
      <trkpt lat="45.48005" lon="4.65234">
        <ele>466</ele>
        <time>2010-02-18T12:54:37Z</time>
      </trkpt>
      <trkpt lat="45.48001" lon="4.65224">
        <ele>464</ele>
        <time>2010-02-18T12:54:43Z</time>
      </trkpt>
      <trkpt lat="45.47996" lon="4.65214">
        <ele>474</ele>
        <time>2010-02-18T12:54:48Z</time>
      </trkpt>
      <trkpt lat="45.47994" lon="4.65202">
        <ele>473</ele>
        <time>2010-02-18T12:54:54Z</time>
      </trkpt>
      <trkpt lat="45.47994" lon="4.6519">
        <ele>471</ele>
        <time>2010-02-18T12:55:00Z</time>
      </trkpt>
      <trkpt lat="45.47994" lon="4.65179">
        <ele>469</ele>
        <time>2010-02-18T12:55:06Z</time>
      </trkpt>
      <trkpt lat="45.47994" lon="4.65178">
        <ele>469</ele>
        <time>2010-02-18T12:55:07Z</time>
      </trkpt>
      <trkpt lat="45.47994" lon="4.65156">
        <ele>465</ele>
        <time>2010-02-18T12:55:18Z</time>
      </trkpt>
      <trkpt lat="45.47994" lon="4.65146">
        <ele>465</ele>
        <time>2010-02-18T12:55:24Z</time>
      </trkpt>
      <trkpt lat="45.47994" lon="4.65133">
        <ele>465</ele>
        <time>2010-02-18T12:55:31Z</time>
      </trkpt>
      <trkpt lat="45.47992" lon="4.65122">
        <ele>464</ele>
        <time>2010-02-18T12:55:37Z</time>
      </trkpt>
      <trkpt lat="45.47989" lon="4.65111">
        <ele>462</ele>
        <time>2010-02-18T12:55:44Z</time>
      </trkpt>
      <trkpt lat="45.47985" lon="4.651">
        <ele>461</ele>
        <time>2010-02-18T12:55:50Z</time>
      </trkpt>
      <trkpt lat="45.47982" lon="4.6509">
        <ele>460</ele>
        <time>2010-02-18T12:55:56Z</time>
      </trkpt>
      <trkpt lat="45.47979" lon="4.65079">
        <ele>455</ele>
        <time>2010-02-18T12:56:02Z</time>
      </trkpt>
      <trkpt lat="45.47977" lon="4.65068">
        <ele>455</ele>
        <time>2010-02-18T12:56:08Z</time>
      </trkpt>
      <trkpt lat="45.47976" lon="4.65067">
        <ele>455</ele>
        <time>2010-02-18T12:56:09Z</time>
      </trkpt>
      <trkpt lat="45.47972" lon="4.65044">
        <ele>454</ele>
        <time>2010-02-18T12:56:20Z</time>
      </trkpt>
      <trkpt lat="45.47969" lon="4.65032">
        <ele>454</ele>
        <time>2010-02-18T12:56:25Z</time>
      </trkpt>
      <trkpt lat="45.47966" lon="4.65021">
        <ele>453</ele>
        <time>2010-02-18T12:56:29Z</time>
      </trkpt>
      <trkpt lat="45.47963" lon="4.6501">
        <ele>453</ele>
        <time>2010-02-18T12:56:34Z</time>
      </trkpt>
      <trkpt lat="45.4796" lon="4.64999">
        <ele>447</ele>
        <time>2010-02-18T12:56:40Z</time>
      </trkpt>
      <trkpt lat="45.47959" lon="4.64988">
        <ele>447</ele>
        <time>2010-02-18T12:56:46Z</time>
      </trkpt>
      <trkpt lat="45.47958" lon="4.64976">
        <ele>447</ele>
        <time>2010-02-18T12:56:52Z</time>
      </trkpt>
      <trkpt lat="45.47956" lon="4.64965">
        <ele>446</ele>
        <time>2010-02-18T12:56:57Z</time>
      </trkpt>
      <trkpt lat="45.47955" lon="4.64954">
        <ele>446</ele>
        <time>2010-02-18T12:57:04Z</time>
      </trkpt>
      <trkpt lat="45.47953" lon="4.64941">
        <ele>446</ele>
        <time>2010-02-18T12:57:10Z</time>
      </trkpt>
      <trkpt lat="45.47953" lon="4.64939">
        <ele>446</ele>
        <time>2010-02-18T12:57:11Z</time>
      </trkpt>
      <trkpt lat="45.47949" lon="4.64919">
        <ele>446</ele>
        <time>2010-02-18T12:57:20Z</time>
      </trkpt>
      <trkpt lat="45.47947" lon="4.64906">
        <ele>442</ele>
        <time>2010-02-18T12:57:27Z</time>
      </trkpt>
      <trkpt lat="45.47946" lon="4.64894">
        <ele>441</ele>
        <time>2010-02-18T12:57:35Z</time>
      </trkpt>
      <trkpt lat="45.47946" lon="4.64882">
        <ele>440</ele>
        <time>2010-02-18T12:57:44Z</time>
      </trkpt>
      <trkpt lat="45.47945" lon="4.6487">
        <ele>440</ele>
        <time>2010-02-18T12:57:50Z</time>
      </trkpt>
      <trkpt lat="45.47944" lon="4.64859">
        <ele>440</ele>
        <time>2010-02-18T12:57:55Z</time>
      </trkpt>
      <trkpt lat="45.47942" lon="4.64847">
        <ele>439</ele>
        <time>2010-02-18T12:58:01Z</time>
      </trkpt>
      <trkpt lat="45.4794" lon="4.64837">
        <ele>439</ele>
        <time>2010-02-18T12:58:05Z</time>
      </trkpt>
      <trkpt lat="45.47941" lon="4.64824">
        <ele>434</ele>
        <time>2010-02-18T12:58:11Z</time>
      </trkpt>
      <trkpt lat="45.47941" lon="4.64822">
        <ele>434</ele>
        <time>2010-02-18T12:58:12Z</time>
      </trkpt>
      <trkpt lat="45.47942" lon="4.64804">
        <ele>433</ele>
        <time>2010-02-18T12:58:22Z</time>
      </trkpt>
      <trkpt lat="45.47937" lon="4.64792">
        <ele>432</ele>
        <time>2010-02-18T12:58:28Z</time>
      </trkpt>
      <trkpt lat="45.47939" lon="4.6478">
        <ele>431</ele>
        <time>2010-02-18T12:58:35Z</time>
      </trkpt>
      <trkpt lat="45.47939" lon="4.64769">
        <ele>430</ele>
        <time>2010-02-18T12:58:42Z</time>
      </trkpt>
      <trkpt lat="45.47938" lon="4.64756">
        <ele>429</ele>
        <time>2010-02-18T12:58:48Z</time>
      </trkpt>
      <trkpt lat="45.47937" lon="4.64745">
        <ele>425</ele>
        <time>2010-02-18T12:58:53Z</time>
      </trkpt>
      <trkpt lat="45.47933" lon="4.64738">
        <ele>425</ele>
        <time>2010-02-18T12:58:56Z</time>
      </trkpt>
      <trkpt lat="45.47926" lon="4.64729">
        <ele>424</ele>
        <time>2010-02-18T12:59:01Z</time>
      </trkpt>
      <trkpt lat="45.4792" lon="4.64722">
        <ele>424</ele>
        <time>2010-02-18T12:59:06Z</time>
      </trkpt>
      <trkpt lat="45.47914" lon="4.64716">
        <ele>425</ele>
        <time>2010-02-18T12:59:11Z</time>
      </trkpt>
      <trkpt lat="45.47907" lon="4.64708">
        <ele>424</ele>
        <time>2010-02-18T12:59:21Z</time>
      </trkpt>
      <trkpt lat="45.47907" lon="4.64708">
        <ele>425</ele>
        <time>2010-02-18T12:59:22Z</time>
      </trkpt>
    </trkseg>
  </trk>
</gpx>